[[{"header":{"parameterUnit":"m.s-1","parameterCategory":1,"la1":31.0,"la2":29.5877,"lo1":-88.7671,"lo2":-86.6584,"dy":0.0162,"dx":0.0185,"nx":115,"ny":88,"refTime":"2023-06-29T06:00:00:Z","depth":0,"parameterNumber":2,"parameterNumberName":"U-component_of_WINDS"},"data":[0.0,0.0,0.0,0.0,0.0,0.0,0.0,0.0,0.0,0.0,0.0,0.0,0.0,0.0,0.0,0.0,0.0,0.0,0.0,0.0,0.0,0.0,0.0,0.0,0.0,0.0,0.0,0.0,0.0,0.0,0.0,0.0,0.0,0.0,0.0,0.0,0.0,0.0,0.0,0.0,0.0,0.0,0.0,0.0,0.0,0.0,0.0,0.0,0.0,0.0,0.0,0.0,0.0,0.0,0.0,0.0,0.0,0.0,0.0,0.0,0.0,0.0,0.0,0.0,0.0,0.0,0.0,0.0,0.0,0.0,0.0,0.0,0.0,0.0,0.0,0.0,0.0,0.0,0.0,0.0,0.0,0.0,0.0,0.0,0.0,0.0,0.0,0.0,0.0,0.0,0.0,0.0,0.0,0.0,0.0,0.0,0.0,0.0,0.0,0.0,0.0,0.0,0.0,0.0,0.0,0.0,0.0,0.0,0.0,0.0,0.0,0.0,0.0,0.0,0.0,0.0,0.0,0.0,0.0,0.0,0.0,0.0,0.0,0.0,0.0,0.0,0.0,0.0,0.0,0.0,0.0,0.0,0.0,0.0,0.0,0.0,0.0,0.0,0.0,0.0,0.0,0.0,0.0,0.0,0.0,0.0,0.0,0.0,0.0,0.0,0.0,0.0,0.0,0.0,0.0,0.0,0.0,0.0,0.0,0.0,0.0,0.0,0.0,0.0,0.0,0.0,0.0,0.0,0.0,0.0,0.0,0.0,0.0,0.0,0.0,0.0,0.0,0.0,0.0,0.0,0.0,0.0,0.0,0.0,0.0,0.0,0.0,0.0,0.0,0.0,0.0,0.0,0.0,0.0,0.0,0.0,0.0,0.0,0.0,0.0,0.0,0.0,0.0,0.0,0.0,0.0,0.0,0.0,0.0,0.0,0.0,0.0,0.0,0.0,0.0,0.0,0.0,0.0,0.0,0.0,0.0,0.0,0.0,0.0,0.0,0.0,0.0,0.0,0.0,0.0,0.0,0.0,0.0,0.0,0.0,0.0,0.0,0.0,0.0,0.0,0.0,0.0,0.0,0.0,0.0,0.0,0.0,0.0,0.0,0.0,0.0,0.0,0.0,0.0,0.0,0.0,0.0,0.0,0.0,0.0,0.0,0.0,0.0,0.0,0.0,0.0,0.0,0.0,0.0,0.0,0.0,0.0,0.0,0.0,0.0,0.0,0.0,0.0,0.0,0.0,0.0,0.0,0.0,0.0,0.0,0.0,0.0,0.0,0.0,0.0,0.0,0.0,0.0,0.0,0.0,0.0,0.0,0.0,0.0,0.0,0.0,0.0,0.0,0.0,0.0,0.0,0.0,0.0,0.0,0.0,0.0,0.0,0.0,0.0,0.0,0.0,0.0,0.0,0.0,0.0,0.0,0.0,0.0,0.0,0.0,0.0,0.0,0.0,0.0,0.0,0.0,0.0,0.0,0.0,0.0,0.0,0.0,0.0,0.0,0.0,0.0,0.0,0.0,0.0,0.0,0.0,0.0,0.0,0.0,0.0,0.0,0.0,0.0,0.0,0.0,0.0,0.0,0.0,0.0,0.0,0.0,0.0,0.0,0.0,0.0,0.0,0.0,0.0,0.0,0.0,0.0,0.0,0.0,0.0,0.0,0.0,0.0,0.0,0.0,0.0,0.0,0.0,0.0,0.0,0.0,0.0,0.0,0.0,0.0,0.0,0.0,0.0,0.0,0.0,0.0,0.0,0.0,0.0,0.0,0.0,0.0,0.0,0.0,0.0,0.0,0.0,0.0,0.0,0.0,0.0,0.0,0.0,0.0,0.0,0.0,0.0,0.0,0.0,0.0,0.0,0.0,0.0,0.0,0.0,0.0,0.0,0.0,0.0,0.0,0.0,0.0,0.0,0.0,0.0,0.0,0.0,0.0,0.0,0.0,0.0,0.0,0.0,0.0,0.0,0.0,0.0,0.0,0.0,0.0,0.0,0.0,0.0,0.0,0.0,0.0,0.0,0.0,0.0,0.0,0.0,0.0,0.0,0.0,0.0,0.0,0.0,0.0,0.0,0.0,0.0,0.0,0.0,0.0,0.0,0.0,0.0,0.0,0.0,0.0,0.0,0.0,0.0,0.0,0.0,0.0,0.0,0.0,0.0,0.0,0.0,0.0,0.0,0.0,0.0,0.0,0.0,0.0,0.0,0.0,0.0,0.0,0.0,0.0,0.0,0.0,0.0,0.0,0.0,0.0,0.0,0.0,0.0,0.0,0.0,0.0,0.0,0.0,0.0,0.0,0.0,0.0,0.0,0.0,0.0,0.0,0.0,0.0,0.0,0.0,0.0,0.0,0.0,0.0,0.0,0.0,0.0,0.0,0.0,0.0,0.0,0.0,0.0,0.0,0.0,0.0,0.0,0.0,0.0,0.0,0.0,0.0,0.0,0.0,0.0,0.0,0.0,0.0,0.0,0.0,0.0,0.0,0.0,0.0,0.0,0.0,0.0,0.0,0.0,0.0,0.0,0.0,0.0,0.0,0.0,0.0,0.0,0.0,0.0,0.0,0.0,0.0,0.0,0.0,0.0,0.0,0.0,0.0,0.0,0.0,0.0,0.0,0.0,0.0,0.0,0.0,0.0,0.0,0.0,0.0,0.0,0.0,0.0,0.0,0.0,0.0,0.0,0.0,0.0,0.0,0.0,0.0,0.0,0.0,0.0,0.0,0.0,0.0,0.0,0.0,0.0,0.0,0.0,0.0,0.0,0.0,0.0,0.0,0.0,0.0,0.0,0.0,0.0,0.0,0.0,0.0,0.0,0.0,0.0,0.0,0.0,0.0,0.0,0.0,0.0,0.0,0.0,0.0,0.0,0.0,0.0,0.0,0.0,0.0,0.0,0.0,0.0,0.0,0.0,0.0,0.0,0.0,0.0,0.0,0.0,0.0,0.0,0.0,0.0,0.0,0.0,0.0,0.0,0.0,0.0,0.0,0.0,0.0,0.0,0.0,0.0,0.0,0.0,0.0,0.0,0.0,0.0,0.0,0.0,0.0,0.0,0.0,0.0,0.0,0.0,0.0,0.0,0.0,0.0,0.0,0.0,0.0,0.0,0.0,0.0,0.0,0.0,0.0,0.0,0.0,0.0,0.0,0.0,0.0,0.0,0.0,0.0,0.0,0.0,0.0,0.0,0.0,0.0,0.0,0.0,0.0,0.0,0.0,0.0,0.0,0.0,0.0,0.0,0.0,0.0,0.0,0.0,0.0,0.0,0.0,0.0,0.0,0.0,0.0,0.0,0.0,0.0,0.0,0.0,0.0,0.0,0.0,0.0,0.0,0.0,0.0,0.0,0.0,0.0,0.0,0.0,0.0,0.0,0.0,0.0,0.0,0.0,0.0,0.0,0.0,0.0,0.0,0.0,0.0,0.0,0.0,0.0,0.0,0.0,0.0,0.0,0.0,0.0,0.0,0.0,0.0,0.0,0.0,0.0,0.0,0.0,0.0,0.0,0.0,0.0,0.0,0.0,0.0,0.0,0.0,0.0,0.0,0.0,0.0,0.0,0.0,0.0,0.0,0.0,0.0,0.0,0.0,0.0,0.0,0.0,0.0,0.0,0.0,0.0,0.0,0.0,0.0,0.0,0.0,0.0,0.0,0.0,0.0,0.0,0.0,0.0,0.0,0.0,0.0,0.0,0.0,0.0,0.0,0.0,0.0,0.0,0.0,0.0,0.0,0.0,0.0,0.0,0.0,0.0,0.0,0.0,0.0,0.0,0.0,0.0,0.0,0.0,0.0,0.0,0.0,0.0,0.0,0.0,0.0,0.0,0.0,0.0,0.0,0.0,0.0,0.0,0.0,0.0,0.0,0.0,0.0,0.0,0.0,0.0,0.0,0.0,0.0,0.0,0.0,0.0,0.0,0.0,0.0,0.0,0.0,0.0,0.0,0.0,0.0,0.0,0.0,0.0,0.0,0.0,0.0,0.0,0.0,0.0,0.0,0.0,0.0,0.0,0.0,0.0,0.0,0.0,0.0,0.0,0.0,0.0,0.0,0.0,0.0,0.0,0.0,0.0,0.0,0.0,0.0,0.0,0.0,0.0,0.0,0.0,0.0,0.0,0.0,0.0,0.0,0.0,0.0,0.0,0.0,0.0,0.0,0.0,0.0,0.0,0.0,0.0,0.0,0.0,0.0,0.0,0.0,0.0,0.0,0.0,0.0,0.0,0.0,0.0,0.0,0.0,0.0,0.0,0.0,0.0,0.0,0.0,0.0,0.0,-1.3738,0.0,0.0,0.0,0.0,0.0,0.0,0.0,0.0,0.0,0.0,0.0,0.0,0.0,0.0,0.0,0.0,0.0,0.0,0.0,0.0,0.0,0.0,0.0,0.0,0.0,0.0,0.0,0.0,0.0,0.0,0.0,0.0,0.0,0.0,0.0,0.0,0.0,0.0,0.0,0.0,0.0,0.0,0.0,0.0,0.0,0.0,0.0,0.0,0.0,0.0,0.0,0.0,0.0,0.0,0.0,0.0,0.0,0.0,0.0,0.0,0.0,0.0,0.0,0.0,0.0,0.0,0.0,0.0,0.0,0.0,0.0,0.0,0.0,0.0,0.0,0.0,0.0,0.0,0.0,0.0,0.0,0.0,0.0,0.0,0.0,0.0,0.0,0.0,0.0,0.0,0.0,0.0,0.0,0.0,0.0,0.0,0.0,0.0,0.0,0.0,0.0,0.0,0.0,0.0,0.0,0.0,0.0,0.0,0.0,0.0,-1.2759,-1.2153,-1.2169,-1.237,-1.278,0.0,0.0,0.0,0.0,0.0,0.0,0.0,0.0,0.0,0.0,0.0,0.0,0.0,0.0,0.0,0.0,0.0,0.0,0.0,0.0,0.0,0.0,0.0,0.0,0.0,0.0,0.0,0.0,0.0,0.0,0.0,0.0,0.0,0.0,0.0,0.0,0.0,0.0,0.0,0.0,0.0,0.0,0.0,0.0,0.0,0.0,0.0,0.0,0.0,0.0,0.0,0.0,0.0,0.0,0.0,0.0,0.0,0.0,0.0,0.0,0.0,0.0,0.0,0.0,0.0,0.0,0.0,0.0,0.0,0.0,0.0,0.0,0.0,0.0,0.0,0.0,0.0,0.0,0.0,0.0,0.0,0.0,0.0,0.0,0.0,0.0,0.0,0.0,0.0,0.0,0.0,0.0,0.0,0.0,0.0,0.0,0.0,0.0,0.0,0.0,0.0,0.0,0.0,0.0,0.0,0.0,0.0,0.0,0.0,0.0,0.0,0.0,-1.2273,-1.2244,-1.2095,0.0,0.0,0.0,0.0,0.0,0.0,0.0,0.0,0.0,0.0,0.0,0.0,0.0,0.0,0.0,0.0,0.0,0.0,0.0,0.0,0.0,0.0,0.0,0.0,0.0,0.0,0.0,0.0,0.0,0.0,0.0,0.0,0.0,0.0,0.0,0.0,0.0,0.0,0.0,0.0,0.0,0.0,0.0,0.0,0.0,0.0,0.0,0.0,0.0,0.0,0.0,0.0,0.0,0.0,0.0,0.0,0.0,0.0,0.0,0.0,0.0,0.0,0.0,0.0,0.0,0.0,0.0,0.0,0.0,0.0,0.0,0.0,0.0,0.0,0.0,0.0,0.0,0.0,0.0,0.0,0.0,0.0,0.0,0.0,0.0,0.0,0.0,0.0,0.0,0.0,0.0,0.0,0.0,0.0,0.0,0.0,0.0,0.0,0.0,0.0,0.0,0.0,0.0,0.0,0.0,0.0,0.0,0.0,0.0,0.0,-1.4134,-1.2875,-1.289,0.0,-1.2073,0.0,0.0,0.0,0.0,0.0,0.0,0.0,0.0,0.0,0.0,0.0,0.0,0.0,0.0,0.0,0.0,0.0,0.0,0.0,0.0,0.0,0.0,0.0,0.0,0.0,0.0,0.0,0.0,0.0,0.0,0.0,0.0,0.0,0.0,0.0,0.0,0.0,0.0,0.0,0.0,0.0,0.0,0.0,0.0,0.0,0.0,0.0,0.0,0.0,0.0,0.0,0.0,0.0,0.0,0.0,0.0,0.0,0.0,0.0,0.0,0.0,0.0,0.0,0.0,0.0,0.0,0.0,0.0,0.0,0.0,0.0,0.0,0.0,0.0,0.0,0.0,0.0,0.0,0.0,0.0,0.0,0.0,0.0,0.0,0.0,0.0,0.0,0.0,0.0,0.0,0.0,0.0,0.0,0.0,0.0,0.0,0.0,0.0,0.0,0.0,0.0,0.0,0.0,0.0,0.0,0.0,0.0,0.0,0.0,0.0,-1.5697,-1.4756,-1.4754,-1.4448,0.0,0.0,0.0,0.0,0.0,0.0,0.0,0.0,0.0,0.0,0.0,0.0,0.0,0.0,0.0,0.0,0.0,0.0,0.0,0.0,0.0,0.0,0.0,0.0,0.0,0.0,0.0,0.0,0.0,0.0,0.0,0.0,0.0,0.0,0.0,0.0,0.0,0.0,0.0,0.0,0.0,0.0,0.0,0.0,0.0,0.0,0.0,0.0,0.0,0.0,0.0,0.0,0.0,0.0,0.0,0.0,0.0,0.0,0.0,0.0,0.0,0.0,0.0,0.0,0.0,0.0,0.0,0.0,0.0,0.0,0.0,0.0,0.0,0.0,0.0,0.0,0.0,0.0,0.0,0.0,0.0,0.0,0.0,0.0,0.0,0.0,0.0,0.0,0.0,0.0,0.0,0.0,0.0,0.0,0.0,0.0,0.0,0.0,0.0,0.0,0.0,0.0,0.0,0.0,0.0,0.0,0.0,0.0,0.0,0.0,-1.7212,-1.6954,-1.633,-1.6101,-1.5677,-1.5023,0.0,0.0,0.0,0.0,0.0,0.0,0.0,0.0,0.0,0.0,0.0,0.0,0.0,0.0,0.0,0.0,0.0,0.0,0.0,0.0,0.0,0.0,0.0,0.0,0.0,0.0,0.0,0.0,0.0,0.0,0.0,0.0,0.0,0.0,0.0,0.0,0.0,0.0,0.0,0.0,0.0,0.0,0.0,0.0,0.0,0.0,0.0,0.0,0.0,0.0,0.0,0.0,0.0,0.0,0.0,0.0,0.0,0.0,0.0,0.0,0.0,0.0,0.0,0.0,0.0,0.0,0.0,0.0,0.0,0.0,0.0,0.0,0.0,0.0,0.0,0.0,0.0,0.0,0.0,0.0,0.0,0.0,0.0,0.0,0.0,0.0,0.0,0.0,0.0,0.0,0.0,0.0,0.0,0.0,0.0,0.0,0.0,0.0,0.0,0.0,0.0,0.0,0.0,0.0,0.0,0.0,0.0,0.0,-1.7684,-1.7876,-1.7684,-1.7105,-1.639,-1.5707,0.0,0.0,0.0,0.0,0.0,0.0,0.0,0.0,0.0,0.0,0.0,0.0,0.0,0.0,0.0,0.0,0.0,0.0,0.0,0.0,0.0,0.0,0.0,0.0,0.0,0.0,0.0,0.0,0.0,0.0,0.0,0.0,0.0,0.0,0.0,0.0,0.0,0.0,0.0,0.0,0.0,0.0,0.0,0.0,0.0,0.0,0.0,0.0,0.0,0.0,0.0,0.0,0.0,0.0,0.0,0.0,0.0,0.0,0.0,0.0,0.0,0.0,0.0,0.0,0.0,0.0,0.0,0.0,0.0,0.0,0.0,0.0,0.0,0.0,0.0,0.0,0.0,0.0,0.0,0.0,0.0,0.0,0.0,0.0,0.0,0.0,0.0,0.0,0.0,0.0,0.0,0.0,0.0,0.0,0.0,0.0,0.0,0.0,0.0,0.0,0.0,0.0,0.0,0.0,0.0,0.0,0.0,0.0,0.0,-1.8927,-1.9228,-1.929,-1.9161,-1.8914,-1.8405,0.0,0.0,0.0,0.0,0.0,0.0,0.0,0.0,0.0,0.0,0.0,0.0,0.0,0.0,0.0,0.0,0.0,0.0,0.0,0.0,0.0,0.0,0.0,0.0,0.0,0.0,0.0,0.0,0.0,0.0,0.0,0.0,0.0,0.0,0.0,0.0,0.0,0.0,0.0,0.0,0.0,0.0,0.0,0.0,0.0,0.0,0.0,0.0,0.0,0.0,0.0,0.0,0.0,0.0,0.0,0.0,0.0,0.0,0.0,0.0,0.0,0.0,0.0,0.0,0.0,0.0,0.0,0.0,0.0,0.0,0.0,0.0,0.0,0.0,0.0,0.0,0.0,0.0,0.0,0.0,0.0,0.0,0.0,0.0,0.0,0.0,0.0,0.0,0.0,0.0,0.0,0.0,0.0,0.0,0.0,0.0,0.0,0.0,0.0,0.0,0.0,0.0,0.0,0.0,0.0,0.0,0.0,0.0,0.0,-1.9404,0.0,-1.9938,-2.0272,-2.0287,-1.9962,0.0,0.0,0.0,0.0,0.0,0.0,0.0,0.0,0.0,0.0,0.0,0.0,0.0,0.0,0.0,0.0,0.0,0.0,0.0,0.0,0.0,0.0,0.0,0.0,0.0,0.0,0.0,0.0,0.0,0.0,0.0,0.0,0.0,0.0,0.0,0.0,0.0,0.0,0.0,0.0,0.0,0.0,0.0,0.0,0.0,0.0,0.0,0.0,0.0,0.0,0.0,0.0,0.0,0.0,0.0,0.0,0.0,0.0,0.0,0.0,0.0,0.0,0.0,0.0,0.0,0.0,0.0,0.0,0.0,0.0,0.0,0.0,0.0,0.0,0.0,0.0,0.0,0.0,0.0,0.0,0.0,0.0,0.0,0.0,0.0,0.0,0.0,0.0,0.0,0.0,0.0,0.0,0.0,0.0,0.0,0.0,0.0,0.0,0.0,0.0,0.0,0.0,0.0,0.0,0.0,0.0,0.0,0.0,-1.7762,-1.8925,-1.9042,-1.9447,-2.0225,-2.0227,-1.995,0.0,0.0,0.0,0.0,0.0,0.0,0.0,0.0,0.0,0.0,0.0,0.0,0.0,0.0,0.0,0.0,0.0,0.0,0.0,0.0,0.0,0.0,0.0,0.0,0.0,0.0,0.0,0.0,0.0,0.0,0.0,0.0,0.0,0.0,0.0,0.0,0.0,0.0,0.0,0.0,0.0,0.0,0.0,0.0,0.0,0.0,0.0,0.0,0.0,0.0,0.0,0.0,0.0,0.0,0.0,0.0,0.0,0.0,0.0,0.0,0.0,0.0,0.0,0.0,0.0,0.0,0.0,0.0,0.0,0.0,0.0,0.0,0.0,0.0,0.0,0.0,0.0,0.0,0.0,0.0,0.0,0.0,0.0,0.0,0.0,0.0,0.0,0.0,0.0,0.0,0.0,0.0,0.0,0.0,0.0,0.0,0.0,0.0,0.0,0.0,0.0,0.0,0.0,0.0,0.0,0.0,0.0,0.0,0.0,-1.8209,-1.8305,-1.8477,-1.8758,-1.8821,-1.8992,0.0,0.0,0.0,0.0,0.0,0.0,0.0,0.0,0.0,0.0,0.0,0.0,0.0,0.0,0.0,0.0,0.0,0.0,0.0,0.0,0.0,0.0,0.0,0.0,0.0,0.0,0.0,0.0,0.0,0.0,0.0,0.0,0.0,0.0,0.0,0.0,0.0,0.0,0.0,0.0,0.0,0.0,0.0,0.0,0.0,0.0,0.0,0.0,0.0,0.0,0.0,0.0,0.0,0.0,0.0,0.0,0.0,0.0,0.0,0.0,0.0,0.0,0.0,0.0,0.0,0.0,0.0,0.0,0.0,0.0,0.0,0.0,0.0,0.0,0.0,0.0,0.0,0.0,0.0,0.0,0.0,0.0,0.0,0.0,0.0,0.0,0.0,0.0,0.0,0.0,0.0,0.0,0.0,0.0,0.0,0.0,0.0,0.0,0.0,0.0,0.0,0.0,0.0,0.0,0.0,0.0,0.0,0.0,0.0,-1.7858,-1.8438,-1.8918,-1.9264,-1.9098,-1.9069,-1.9271,0.0,0.0,0.0,0.0,0.0,0.0,0.0,0.0,0.0,0.0,0.0,0.0,0.0,0.0,0.0,0.0,0.0,0.0,0.0,0.0,0.0,0.0,0.0,0.0,0.0,0.0,0.0,0.0,0.0,0.0,0.0,0.0,0.0,0.0,0.0,0.0,0.0,0.0,0.0,0.0,0.0,0.0,0.0,0.0,0.0,0.0,0.0,0.0,0.0,0.0,0.0,0.0,0.0,0.0,0.0,0.0,0.0,0.0,0.0,0.0,0.0,0.0,0.0,0.0,0.0,0.0,0.0,0.0,0.0,0.0,0.0,0.0,0.0,0.0,0.0,0.0,0.0,0.0,0.0,0.0,0.0,0.0,0.0,0.0,0.0,0.0,0.0,0.0,0.0,0.0,0.0,0.0,0.0,0.0,0.0,0.0,0.0,0.0,0.0,0.0,0.0,0.0,0.0,0.0,0.0,0.0,0.0,0.0,-1.7943,-1.9409,-2.0495,-2.1147,-2.0549,-1.995,0.0,0.0,0.0,0.0,0.0,0.0,0.0,0.0,0.0,0.0,0.0,0.0,0.0,0.0,0.0,0.0,0.0,0.0,0.0,0.0,0.0,0.0,0.0,0.0,0.0,0.0,0.0,0.0,0.0,0.0,0.0,0.0,0.0,0.0,0.0,0.0,0.0,0.0,0.0,0.0,0.0,0.0,0.0,0.0,0.0,0.0,0.0,0.0,0.0,0.0,0.0,0.0,0.0,0.0,0.0,0.0,0.0,0.0,0.0,0.0,0.0,0.0,0.0,0.0,0.0,0.0,0.0,0.0,0.0,0.0,0.0,0.0,0.0,0.0,0.0,0.0,0.0,0.0,0.0,0.0,0.0,0.0,0.0,0.0,0.0,0.0,0.0,0.0,0.0,0.0,0.0,0.0,0.0,0.0,0.0,0.0,0.0,0.0,0.0,0.0,0.0,0.0,0.0,0.0,0.0,0.0,0.0,0.0,0.0,-1.9668,-2.1432,-2.177,-2.0538,-1.9885,-1.9487,0.0,0.0,0.0,0.0,0.0,0.0,0.0,0.0,0.0,0.0,0.0,0.0,0.0,0.0,0.0,0.0,0.0,0.0,0.0,0.0,0.0,0.0,0.0,0.0,0.0,0.0,0.0,0.0,0.0,0.0,0.0,0.0,0.0,0.0,0.0,0.0,0.0,0.0,0.0,0.0,0.0,0.0,0.0,0.0,0.0,0.0,0.0,0.0,0.0,0.0,0.0,0.0,0.0,0.0,0.0,0.0,0.0,0.0,0.0,0.0,0.0,0.0,0.0,0.0,0.0,0.0,0.0,0.0,0.0,0.0,0.0,0.0,0.0,0.0,0.0,0.0,0.0,0.0,0.0,0.0,0.0,0.0,0.0,0.0,0.0,0.0,0.0,0.0,0.0,0.0,0.0,0.0,0.0,0.0,0.0,0.0,0.0,0.0,0.0,0.0,0.0,0.0,0.0,0.0,0.0,0.0,0.0,0.0,-2.0042,-2.0567,-2.2595,-2.3099,-2.1952,-2.0762,-2.0011,0.0,0.0,0.0,0.0,0.0,0.0,0.0,0.0,0.0,0.0,0.0,0.0,0.0,0.0,0.0,0.0,0.0,0.0,0.0,0.0,0.0,0.0,0.0,0.0,0.0,0.0,0.0,0.0,0.0,0.0,0.0,0.0,0.0,0.0,0.0,0.0,0.0,0.0,0.0,0.0,0.0,0.0,0.0,0.0,0.0,0.0,0.0,0.0,0.0,0.0,0.0,0.0,0.0,0.0,0.0,0.0,0.0,0.0,0.0,0.0,0.0,0.0,0.0,0.0,0.0,0.0,0.0,0.0,0.0,0.0,0.0,0.0,0.0,0.0,0.0,0.0,0.0,0.0,0.0,0.0,0.0,0.0,0.0,0.0,0.0,0.0,0.0,0.0,0.0,0.0,0.0,0.0,0.0,0.0,0.0,0.0,0.0,0.0,0.0,0.0,0.0,0.0,0.0,0.0,0.0,0.0,0.0,0.0,-2.136,-2.1088,-2.3193,-2.4261,-2.4158,-2.239,-2.1106,0.0,0.0,0.0,0.0,0.0,0.0,0.0,0.0,0.0,0.0,0.0,0.0,0.0,0.0,0.0,0.0,0.0,0.0,0.0,0.0,0.0,0.0,0.0,0.0,0.0,0.0,0.0,0.0,0.0,0.0,0.0,0.0,0.0,0.0,0.0,0.0,0.0,0.0,0.0,0.0,0.0,0.0,0.0,0.0,0.0,0.0,0.0,0.0,0.0,0.0,0.0,0.0,0.0,0.0,0.0,0.0,0.0,0.0,0.0,0.0,0.0,0.0,0.0,0.0,0.0,0.0,0.0,0.0,0.0,0.0,0.0,0.0,0.0,0.0,0.0,0.0,0.0,0.0,0.0,0.0,0.0,0.0,0.0,0.0,0.0,0.0,0.0,0.0,0.0,0.0,0.0,0.0,0.0,0.0,0.0,0.0,0.0,0.0,0.0,0.0,0.0,0.0,0.0,0.0,0.0,0.0,0.0,0.0,-2.1325,-2.2086,-2.3528,-2.4135,-2.3745,-2.2664,-2.1781,0.0,0.0,0.0,0.0,0.0,0.0,0.0,0.0,0.0,0.0,0.0,0.0,0.0,0.0,0.0,0.0,0.0,0.0,0.0,0.0,0.0,0.0,0.0,0.0,0.0,0.0,0.0,0.0,0.0,0.0,0.0,0.0,0.0,0.0,0.0,0.0,0.0,0.0,0.0,0.0,0.0,0.0,0.0,0.0,0.0,0.0,0.0,0.0,-1.7583,0.0,0.0,0.0,0.0,0.0,0.0,0.0,0.0,0.0,0.0,0.0,0.0,0.0,0.0,0.0,0.0,0.0,0.0,0.0,0.0,0.0,0.0,0.0,0.0,0.0,0.0,0.0,0.0,0.0,0.0,0.0,0.0,0.0,0.0,0.0,0.0,0.0,0.0,0.0,0.0,0.0,0.0,0.0,0.0,0.0,0.0,0.0,0.0,0.0,0.0,0.0,0.0,0.0,0.0,0.0,0.0,0.0,0.0,0.0,-2.2094,-2.2766,-2.3784,-2.4162,-2.3921,-2.3182,-2.2609,0.0,0.0,0.0,0.0,0.0,0.0,0.0,0.0,0.0,0.0,0.0,0.0,0.0,0.0,0.0,0.0,0.0,0.0,0.0,0.0,0.0,0.0,0.0,0.0,0.0,0.0,0.0,0.0,0.0,0.0,0.0,0.0,0.0,0.0,0.0,0.0,0.0,0.0,0.0,0.0,0.0,0.0,0.0,0.0,0.0,0.0,0.0,0.0,0.0,0.0,0.0,0.0,0.0,0.0,0.0,0.0,0.0,0.0,0.0,0.0,0.0,0.0,0.0,0.0,0.0,0.0,0.0,0.0,0.0,0.0,0.0,0.0,0.0,0.0,0.0,0.0,0.0,0.0,0.0,0.0,0.0,0.0,0.0,0.0,0.0,0.0,0.0,0.0,0.0,0.0,0.0,0.0,0.0,0.0,0.0,0.0,0.0,0.0,0.0,0.0,0.0,0.0,0.0,0.0,0.0,0.0,0.0,-2.2099,-2.2915,-2.3366,-2.3984,-2.4281,-2.4287,-2.3656,-2.3348,-2.3425,0.0,0.0,0.0,0.0,0.0,0.0,0.0,0.0,0.0,0.0,0.0,0.0,0.0,0.0,0.0,0.0,0.0,0.0,0.0,0.0,0.0,0.0,0.0,0.0,0.0,0.0,0.0,0.0,0.0,0.0,0.0,0.0,0.0,0.0,0.0,0.0,0.0,0.0,-1.7316,-1.7264,0.0,0.0,0.0,0.0,0.0,0.0,0.0,0.0,-1.7144,0.0,0.0,0.0,0.0,0.0,0.0,0.0,0.0,0.0,0.0,0.0,0.0,0.0,0.0,0.0,0.0,0.0,0.0,0.0,0.0,0.0,0.0,0.0,0.0,0.0,0.0,0.0,0.0,0.0,0.0,0.0,0.0,0.0,0.0,0.0,0.0,0.0,0.0,0.0,0.0,0.0,0.0,0.0,0.0,0.0,0.0,0.0,0.0,0.0,0.0,0.0,0.0,0.0,0.0,0.0,0.0,-2.243,-2.2233,-2.2772,-2.4076,-2.422,-2.4281,-2.4266,-2.364,-2.3563,-2.4025,0.0,0.0,0.0,0.0,0.0,0.0,0.0,0.0,0.0,0.0,0.0,0.0,0.0,0.0,0.0,0.0,0.0,0.0,0.0,0.0,0.0,0.0,0.0,0.0,0.0,0.0,0.0,0.0,0.0,0.0,0.0,0.0,0.0,0.0,0.0,0.0,0.0,0.0,0.0,-1.7512,-1.7421,0.0,0.0,0.0,0.0,0.0,0.0,0.0,0.0,-1.775,0.0,0.0,0.0,0.0,0.0,0.0,0.0,0.0,0.0,0.0,0.0,0.0,0.0,0.0,0.0,0.0,0.0,0.0,0.0,0.0,0.0,0.0,0.0,0.0,0.0,0.0,0.0,0.0,0.0,0.0,0.0,0.0,0.0,0.0,0.0,0.0,0.0,0.0,0.0,0.0,0.0,0.0,0.0,0.0,0.0,0.0,0.0,0.0,0.0,0.0,0.0,0.0,0.0,0.0,0.0,-2.2869,-2.2717,-2.3177,-2.4251,-2.4281,-2.4281,-2.4266,-2.364,-2.3456,0.0,0.0,0.0,0.0,0.0,0.0,0.0,0.0,0.0,0.0,0.0,0.0,0.0,0.0,0.0,0.0,0.0,0.0,0.0,0.0,0.0,0.0,0.0,0.0,0.0,0.0,0.0,0.0,0.0,0.0,0.0,0.0,0.0,0.0,0.0,0.0,0.0,0.0,0.0,0.0,-1.7904,-1.7973,-1.8529,0.0,0.0,0.0,0.0,0.0,0.0,-1.8451,-1.8318,0.0,0.0,0.0,0.0,0.0,0.0,0.0,0.0,0.0,0.0,0.0,0.0,0.0,0.0,0.0,0.0,0.0,0.0,0.0,0.0,0.0,0.0,0.0,0.0,0.0,0.0,0.0,0.0,0.0,0.0,0.0,0.0,0.0,0.0,0.0,0.0,0.0,0.0,0.0,0.0,0.0,0.0,0.0,0.0,0.0,0.0,0.0,0.0,0.0,0.0,0.0,0.0,0.0,0.0,0.0,-2.3249,-2.3488,-2.3953,-2.4687,-2.4733,-2.4733,-2.4702,-2.3933,-2.3502,0.0,0.0,0.0,0.0,0.0,0.0,0.0,0.0,0.0,0.0,0.0,0.0,0.0,0.0,0.0,0.0,0.0,0.0,0.0,0.0,0.0,0.0,0.0,0.0,0.0,0.0,0.0,0.0,0.0,0.0,0.0,0.0,0.0,0.0,0.0,0.0,0.0,0.0,0.0,0.0,0.0,-1.8526,-1.9046,-1.8817,0.0,0.0,0.0,0.0,-1.9038,-1.898,0.0,0.0,0.0,0.0,0.0,0.0,0.0,0.0,0.0,0.0,0.0,0.0,0.0,0.0,0.0,0.0,0.0,0.0,0.0,0.0,0.0,0.0,0.0,0.0,0.0,0.0,0.0,0.0,0.0,0.0,0.0,0.0,0.0,0.0,0.0,0.0,0.0,0.0,0.0,0.0,0.0,0.0,0.0,0.0,0.0,0.0,0.0,0.0,0.0,0.0,0.0,0.0,0.0,0.0,0.0,0.0,-2.409,-2.4661,-2.5369,-2.6103,-2.6134,-2.6171,-2.6118,-2.4887,-2.4194,0.0,0.0,0.0,0.0,0.0,0.0,0.0,0.0,0.0,0.0,0.0,0.0,0.0,0.0,0.0,0.0,0.0,0.0,0.0,0.0,0.0,0.0,0.0,0.0,0.0,0.0,0.0,0.0,0.0,0.0,0.0,0.0,0.0,0.0,0.0,0.0,0.0,0.0,0.0,0.0,0.0,-1.8608,-1.9185,-1.9248,-1.9194,0.0,0.0,-1.9806,-1.9872,-1.9743,0.0,0.0,0.0,0.0,0.0,0.0,0.0,0.0,0.0,0.0,0.0,0.0,0.0,0.0,0.0,0.0,0.0,0.0,0.0,0.0,0.0,0.0,0.0,0.0,0.0,0.0,0.0,0.0,0.0,0.0,0.0,0.0,0.0,0.0,0.0,0.0,0.0,0.0,0.0,0.0,0.0,0.0,0.0,0.0,0.0,0.0,0.0,0.0,0.0,0.0,0.0,0.0,0.0,0.0,0.0,-2.4145,-2.4233,-2.5308,-2.6028,-2.6311,-2.638,-2.6402,-2.6402,-2.5041,-2.4281,0.0,0.0,0.0,0.0,0.0,0.0,0.0,0.0,0.0,0.0,0.0,0.0,0.0,0.0,0.0,0.0,0.0,0.0,0.0,0.0,0.0,0.0,0.0,0.0,0.0,0.0,0.0,0.0,0.0,0.0,0.0,0.0,0.0,0.0,0.0,0.0,0.0,0.0,0.0,0.0,0.0,0.0,-1.9869,-1.9955,0.0,0.0,0.0,-2.0109,-2.0096,0.0,0.0,0.0,0.0,0.0,0.0,0.0,0.0,0.0,0.0,0.0,0.0,0.0,0.0,0.0,0.0,0.0,0.0,0.0,0.0,0.0,0.0,0.0,0.0,0.0,0.0,0.0,0.0,0.0,0.0,0.0,0.0,0.0,0.0,0.0,0.0,0.0,0.0,0.0,0.0,0.0,0.0,0.0,0.0,0.0,0.0,0.0,0.0,0.0,0.0,0.0,0.0,0.0,0.0,0.0,0.0,0.0,-2.4765,-2.6173,-2.6872,-2.6819,-2.6872,-2.6926,-2.6872,-2.5718,0.0,0.0,0.0,0.0,0.0,0.0,0.0,0.0,0.0,0.0,0.0,0.0,0.0,0.0,0.0,0.0,0.0,0.0,0.0,0.0,0.0,0.0,0.0,0.0,0.0,0.0,0.0,-1.7074,0.0,0.0,0.0,0.0,0.0,0.0,0.0,0.0,0.0,0.0,0.0,0.0,0.0,0.0,-2.0295,-2.0425,-2.0593,-2.0711,0.0,0.0,-2.0428,-2.0451,-2.0226,-2.0018,0.0,0.0,0.0,0.0,0.0,0.0,0.0,0.0,0.0,0.0,0.0,0.0,0.0,0.0,0.0,0.0,0.0,0.0,0.0,0.0,0.0,0.0,0.0,0.0,0.0,0.0,0.0,0.0,0.0,0.0,0.0,0.0,0.0,0.0,0.0,0.0,0.0,0.0,0.0,0.0,0.0,0.0,0.0,0.0,0.0,0.0,0.0,0.0,0.0,0.0,0.0,0.0,0.0,0.0,-2.5558,-2.6272,-2.758,-2.8242,-2.8258,-2.8273,-2.8273,-2.8258,-2.7565,-2.6565,0.0,0.0,0.0,0.0,0.0,0.0,0.0,0.0,0.0,0.0,0.0,0.0,0.0,0.0,0.0,0.0,0.0,0.0,0.0,0.0,0.0,0.0,0.0,0.0,0.0,0.0,0.0,0.0,0.0,0.0,0.0,0.0,0.0,0.0,0.0,0.0,0.0,0.0,0.0,0.0,0.0,-2.0471,-2.0481,-2.0992,-2.1331,0.0,-2.1224,-2.1137,-2.1126,-2.0957,-2.065,-2.0083,0.0,0.0,0.0,0.0,0.0,0.0,0.0,0.0,0.0,0.0,0.0,0.0,0.0,0.0,0.0,0.0,0.0,0.0,0.0,0.0,0.0,0.0,0.0,0.0,0.0,0.0,0.0,0.0,0.0,0.0,0.0,0.0,0.0,0.0,0.0,0.0,0.0,0.0,0.0,0.0,0.0,0.0,0.0,0.0,0.0,0.0,0.0,0.0,0.0,0.0,0.0,0.0,0.0,-2.5635,-2.6342,-2.768,-2.8411,-2.8411,-2.8411,-2.8411,-2.8411,-2.7765,-2.6749,0.0,0.0,0.0,0.0,0.0,0.0,0.0,0.0,0.0,0.0,0.0,0.0,0.0,0.0,0.0,0.0,0.0,0.0,0.0,0.0,0.0,0.0,0.0,0.0,0.0,0.0,0.0,0.0,-1.8489,-1.8741,-1.9107,0.0,0.0,0.0,0.0,0.0,0.0,0.0,0.0,0.0,0.0,-2.0978,-2.1036,-2.125,0.0,0.0,-2.1204,-2.1082,-2.1082,-2.0911,-2.0696,-2.046,-2.058,0.0,0.0,0.0,0.0,0.0,0.0,0.0,0.0,0.0,0.0,0.0,0.0,0.0,0.0,0.0,0.0,0.0,0.0,0.0,0.0,0.0,0.0,0.0,0.0,0.0,0.0,0.0,-2.1052,0.0,0.0,0.0,0.0,0.0,0.0,0.0,0.0,0.0,0.0,0.0,0.0,0.0,0.0,0.0,0.0,0.0,0.0,0.0,0.0,0.0,0.0,0.0,0.0,-2.5727,-2.6619,-2.7787,-2.8411,-2.8411,-2.8411,-2.8411,-2.8396,-2.791,-2.7088,0.0,0.0,0.0,0.0,0.0,0.0,0.0,0.0,0.0,0.0,0.0,0.0,0.0,0.0,0.0,0.0,0.0,0.0,0.0,0.0,0.0,0.0,0.0,0.0,0.0,0.0,0.0,0.0,-1.9316,-1.9614,-2.0022,0.0,0.0,0.0,0.0,0.0,0.0,0.0,0.0,0.0,0.0,-2.118,-2.1313,-2.1326,-2.1337,-2.1326,-2.118,-2.1046,-2.1008,-2.0848,-2.0762,-2.0775,0.0,0.0,0.0,0.0,0.0,0.0,0.0,0.0,0.0,0.0,0.0,0.0,0.0,0.0,0.0,0.0,0.0,0.0,0.0,0.0,0.0,0.0,0.0,0.0,0.0,0.0,0.0,-2.227,0.0,0.0,-2.1396,0.0,0.0,0.0,0.0,0.0,0.0,0.0,0.0,0.0,0.0,0.0,0.0,0.0,0.0,0.0,0.0,0.0,0.0,0.0,0.0,0.0,0.0,-2.5988,-2.7349,-2.8018,-2.8411,-2.8411,-2.8411,-2.8387,-2.8372,-2.8244,-2.7843,-2.7155,0.0,0.0,0.0,0.0,0.0,0.0,0.0,0.0,0.0,0.0,0.0,0.0,0.0,0.0,0.0,0.0,0.0,0.0,0.0,0.0,0.0,0.0,0.0,0.0,0.0,0.0,-1.9682,-2.0308,-2.0646,0.0,0.0,0.0,0.0,0.0,0.0,0.0,0.0,0.0,-2.1021,-2.1008,-2.1071,-2.1207,-2.1218,-2.1231,-2.1231,-2.1231,-2.1144,-2.1035,-2.0938,-2.0888,0.0,0.0,0.0,0.0,0.0,0.0,0.0,0.0,0.0,0.0,0.0,0.0,0.0,0.0,0.0,0.0,0.0,0.0,0.0,0.0,0.0,0.0,0.0,0.0,0.0,0.0,0.0,-2.3284,-2.3442,0.0,0.0,0.0,0.0,0.0,0.0,0.0,0.0,0.0,0.0,0.0,-2.5281,-2.5216,0.0,0.0,0.0,0.0,0.0,0.0,0.0,0.0,0.0,0.0,0.0,0.0,-2.6934,-2.7396,-2.8057,-2.8411,-2.8411,-2.8323,-2.8275,-2.8259,-2.8152,-2.771,-2.697,0.0,0.0,0.0,0.0,0.0,0.0,0.0,0.0,0.0,0.0,0.0,0.0,0.0,0.0,0.0,0.0,0.0,0.0,0.0,0.0,0.0,0.0,0.0,0.0,0.0,-1.9877,0.0,0.0,0.0,0.0,0.0,0.0,0.0,0.0,0.0,0.0,-2.0961,-2.0997,-2.0997,-2.0997,-2.1154,-2.1603,-2.1669,-2.1669,0.0,0.0,0.0,0.0,0.0,0.0,0.0,0.0,0.0,0.0,0.0,0.0,0.0,0.0,-1.9852,-2.0059,-2.0085,-2.0046,-1.9863,0.0,0.0,0.0,0.0,0.0,0.0,0.0,0.0,0.0,0.0,0.0,0.0,0.0,0.0,-2.4361,-2.4484,-2.4325,0.0,0.0,0.0,0.0,0.0,0.0,0.0,0.0,-2.4376,-2.5028,-2.587,-2.5832,-2.6137,-2.6657,-2.6382,-2.5606,0.0,0.0,0.0,0.0,0.0,0.0,0.0,0.0,-2.748,-2.7702,-2.8093,-2.8314,-2.8266,-2.8177,-2.8113,-2.8113,-2.8005,-2.7669,-2.7109,-2.6423,-2.5835,0.0,0.0,0.0,0.0,0.0,0.0,0.0,0.0,0.0,0.0,0.0,0.0,0.0,0.0,0.0,0.0,0.0,0.0,0.0,0.0,0.0,0.0,0.0,-2.0849,0.0,0.0,0.0,0.0,0.0,0.0,0.0,0.0,0.0,-2.0825,-2.1008,-2.1177,-2.1202,-2.1164,-2.1414,-2.2048,0.0,0.0,0.0,0.0,0.0,0.0,0.0,-2.2401,-2.2401,-2.2401,-2.2257,-2.189,-2.1524,-2.1302,-2.1302,0.0,0.0,-2.0438,-2.0216,-2.0072,-2.0072,-2.0229,-2.0373,-2.0386,-2.0568,-2.0517,0.0,0.0,0.0,0.0,-2.7288,0.0,0.0,0.0,-2.6373,-2.5988,0.0,-2.6065,0.0,0.0,0.0,0.0,-2.4242,-2.4786,0.0,0.0,-2.6473,-2.7094,-2.7124,-2.7252,-2.7308,-2.7262,-2.675,-2.6488,-2.6518,-2.6518,-2.6419,0.0,0.0,0.0,0.0,0.0,-2.7709,-2.8272,-2.8293,-2.8213,-2.8096,-2.8071,-2.8071,-2.8071,-2.7916,-2.7771,-2.76,-2.7001,-2.6602,-2.6572,-2.5352,0.0,0.0,0.0,0.0,0.0,0.0,0.0,0.0,0.0,0.0,0.0,0.0,0.0,0.0,0.0,0.0,0.0,0.0,0.0,0.0,-2.1759,0.0,0.0,0.0,0.0,0.0,0.0,0.0,0.0,0.0,-2.0738,-2.0804,-2.1197,-2.1485,-2.1538,0.0,0.0,0.0,0.0,-2.1957,-2.2524,-2.2629,-2.2615,-2.2454,-2.2467,-2.248,-2.2479,0.0,0.0,-2.2426,-2.2414,-2.2362,-2.2375,-2.2323,-2.1865,-2.0244,-1.9551,-1.9133,-1.912,-1.9577,-1.9826,-1.9878,-2.0347,-2.053,-2.9289,0.0,0.0,0.0,0.0,-2.7049,-2.6855,-2.6691,-2.6706,-2.6561,-2.6379,-2.6576,0.0,0.0,0.0,0.0,0.0,0.0,-2.6252,-2.733,-2.8207,-2.8824,-2.9297,-2.9205,-2.9194,-2.9194,-2.8935,-2.8855,-2.8971,-2.8971,-2.8094,-2.6411,0.0,0.0,0.0,0.0,-2.8865,-2.9463,-2.9483,-2.9457,-2.9431,-2.9342,-2.9237,-2.9143,-2.864,-2.8374,-2.8293,-2.7675,-2.7091,-2.6617,-2.6243,0.0,0.0,0.0,0.0,0.0,0.0,0.0,0.0,0.0,0.0,0.0,0.0,0.0,0.0,0.0,0.0,0.0,0.0,0.0,-2.1708,-2.1722,-2.1842,0.0,0.0,0.0,0.0,0.0,0.0,0.0,0.0,0.0,-2.1838,-2.1681,-2.1655,0.0,0.0,-2.2349,-2.2965,-2.29,-2.2847,-2.299,-2.3398,0.0,-2.3041,-2.3328,-2.3616,-2.36,-2.3263,-2.2947,-2.296,-2.2635,-2.2401,-2.2401,-2.2401,-2.2218,-2.1773,-2.1172,-2.078,-2.0753,-2.0597,-2.0451,-2.0465,-2.0582,-2.0686,-3.0694,-2.9935,-2.9402,-2.8916,-2.8483,-2.8394,-2.8295,-2.8147,-2.8087,-2.8062,-2.8062,-2.8062,-2.7457,-2.643,-2.6158,0.0,0.0,0.0,-2.7673,-2.8834,-2.9178,-2.9572,-2.9966,-3.0186,-3.0144,-2.9932,-3.0132,-3.0144,-2.9993,-2.9993,-2.9281,-2.7889,0.0,-2.8509,-2.8921,-2.9214,-2.9587,-2.9913,-2.9902,-2.9902,-2.9848,-2.9741,-2.9675,-2.9592,-2.9205,-2.8996,-2.8981,-2.8338,-2.7799,-2.7395,-2.6871,-2.6228,0.0,0.0,0.0,0.0,0.0,0.0,0.0,0.0,0.0,0.0,0.0,-2.3674,-2.3076,0.0,0.0,0.0,-2.2758,-2.2828,-2.2752,-2.2881,0.0,0.0,0.0,0.0,0.0,0.0,0.0,-2.2376,-2.21,-2.2086,-2.2609,-2.24,-2.2322,-2.2648,-2.2741,-2.291,-2.3456,0.0,-2.3274,-2.3509,-2.3861,-2.3952,-2.3613,-2.3848,-2.4125,-2.4125,-2.3825,-2.3548,-2.3522,-2.3276,-2.3095,-2.3095,-2.3095,-2.3067,-2.3093,-2.2596,-2.21,-2.1917,-2.1603,-2.138,-2.1367,-2.1367,-2.138,-3.2567,-3.2475,-3.1232,-3.0663,-3.0529,-3.0409,-3.0357,-3.0315,-3.0186,-3.0118,-3.0091,-3.0133,-2.9705,-2.8981,-2.8378,0.0,-2.9026,-2.9004,-2.938,-3.0024,-2.9946,-2.9921,-2.9951,-3.0631,-3.0629,-3.0129,-3.0782,-3.0819,-3.0319,-3.0288,-3.0258,-3.0285,-3.0285,-3.0224,-3.0073,-3.0042,-3.0008,-2.9949,-2.9937,-2.9895,-2.9744,-2.9756,-2.9729,-2.9771,-2.9711,-2.9681,-2.9666,-2.9026,-2.8682,-2.8637,-2.7455,-2.6722,-2.6656,0.0,0.0,0.0,0.0,0.0,0.0,0.0,0.0,0.0,0.0,0.0,0.0,0.0,0.0,0.0,-2.4128,0.0,-2.4468,-2.4653,0.0,0.0,0.0,-2.3595,-2.3637,-2.3137,-2.2763,-2.2682,0.0,0.0,-2.3267,-2.3317,-2.3302,-2.3326,-2.3315,-2.3485,-2.4034,-2.3613,-2.3469,-2.4021,-2.4112,-2.4125,-2.406,-2.4099,-2.4125,-2.4125,-2.4125,-2.4086,-2.4086,-2.4044,-2.407,-2.4047,-2.4112,-2.4086,-2.4099,-2.3561,-2.3132,-2.265,-2.2427,-2.2362,-2.2322,-2.231,-2.2283,-3.4012,-3.3981,-3.3673,-3.2865,-3.176,-3.1622,-3.1511,-3.1412,-3.1246,-3.1146,-3.1117,-3.1146,-3.1027,-3.0849,-3.0685,-3.0715,-3.0879,-3.1374,-3.1746,-3.2027,-3.2494,-3.272,-3.272,-3.29,-3.2885,-3.2646,-3.2796,-3.2796,-3.2691,-3.2676,-3.2676,-3.2661,-3.2676,-3.1954,-3.0579,-3.0421,-3.0636,-3.1104,-3.1104,-3.1076,-3.1032,-3.1047,-3.1032,-3.1047,-3.0567,-3.0283,-3.0268,-2.9699,-2.9382,-2.9325,-2.8562,-2.7889,-2.739,-2.6596,0.0,0.0,0.0,0.0,0.0,0.0,0.0,0.0,0.0,-2.5297,-2.5141,0.0,-2.5257,0.0,-2.5165,-2.5035,-2.4536,-2.4898,0.0,0.0,-2.5217,-2.5208,-2.5558,-2.4994,-2.4685,-2.4955,-2.4218,-2.3918,-2.4496,-2.4178,-2.406,-2.4508,-2.4178,-2.3926,-2.407,-2.4008,-2.3913,-2.4083,-2.4164,-2.4125,-2.4164,-2.4125,-2.4138,-2.4125,-2.4125,-2.4125,-2.4125,-2.4125,-2.4125,-2.4125,-2.4125,-2.4125,-2.4125,-2.3995,-2.3864,-2.3668,-2.3016,-2.2401,-2.2401,-2.2401,-2.2401,-3.6276,-3.6276,-3.6261,-3.5799,-3.488,-3.3554,-3.2891,-3.2774,-3.2584,-3.2481,-3.2378,-3.2407,-3.2378,-3.2378,-3.2407,-3.2407,-3.2407,-3.2781,-3.2976,-3.3081,-3.3427,-3.3637,-3.3622,-3.3938,-3.3861,-3.3514,-3.3784,-3.3938,-3.3925,-3.3894,-3.3894,-3.3909,-3.3909,-3.3245,-3.2015,-3.1868,-3.2018,-3.2392,-3.2093,-3.1795,-3.1511,-3.1496,-3.1361,-3.1076,-3.0717,-3.0372,-3.0088,-2.949,-2.9146,-2.9131,-2.8517,-2.7989,-2.76,-2.6971,-2.6437,0.0,0.0,0.0,0.0,0.0,0.0,0.0,0.0,0.0,0.0,0.0,-2.6346,-2.6287,-2.6083,-2.5893,-2.5697,-2.5981,-2.6253,-2.6491,-2.6199,-2.6136,-2.6441,-2.5877,-2.5552,-2.5782,-2.5508,-2.5425,-2.5756,-2.5775,-2.5858,-2.6183,-2.5687,-2.5203,-2.49,-2.4853,-2.484,-2.484,-2.484,-2.487,-2.4853,-2.4661,-2.4504,-2.4478,-2.4282,-2.4125,-2.4125,-2.4125,-2.4125,-2.4125,-2.4125,-2.4125,-2.4125,-2.4125,-2.4125,-2.4034,-2.3602,-2.3184,-2.3145,-2.3145,-2.3132,-3.8508,-3.8508,-3.8508,-3.8508,-3.8306,-3.5784,-3.4638,-3.4501,-3.4363,-3.4209,-3.4008,-3.4008,-3.4008,-3.3993,-3.3993,-3.3993,-3.3993,-3.4008,-3.3993,-3.4008,-3.3993,-3.3993,-3.4023,-3.4577,-3.4547,-3.4038,-3.4608,-3.4846,-3.4772,-3.4725,-3.4679,-3.4663,-3.4602,-3.4273,-3.3785,-3.3754,-3.3695,-3.3592,-3.2871,-3.2213,-3.1645,-3.1555,-3.121,-3.058,-3.0535,-3.025,-2.9675,-2.9067,-2.8753,-2.8738,-2.8109,-2.7779,-2.7824,-2.724,-2.6886,0.0,-2.6926,0.0,0.0,0.0,0.0,0.0,0.0,0.0,0.0,-2.727,-2.7549,-2.7452,-2.6907,-2.6753,-2.7199,-2.7244,-2.731,-2.7386,-2.6945,-2.6724,-2.689,-2.6465,-2.6183,-2.6281,-2.6749,-2.7046,-2.706,-2.7527,-2.7794,-2.7762,-2.7363,-2.688,-2.6388,-2.5988,-2.5688,-2.578,-2.578,-2.5636,-2.5649,-2.538,-2.511,-2.5014,-2.4739,-2.4292,-2.4269,-2.4256,-2.4217,-2.4109,-2.4125,-2.4125,-2.4125,-2.4125,-2.4125,-2.4112,-2.406,-2.4021,-2.4034,-2.4008,-2.4125,-3.8508,-3.8508,-3.8508,-3.8508,-3.8429,-3.7744,-3.7382,-3.7215,-3.7035,-3.6869,-3.6671,-3.6671,-3.6671,-3.6671,-3.6671,-3.6686,-3.6671,-3.6671,-3.6686,-3.6671,-3.6671,-3.6671,-3.6671,-3.6791,-3.6791,-3.6686,-3.6791,-3.6843,-3.6827,-3.6345,-3.6105,-3.6075,-3.5563,-3.5244,-3.513,0.0,0.0,0.0,-3.308,-3.2437,-3.2288,-3.178,-3.1254,-3.0691,-3.0661,0.0,-2.9959,-2.9716,-2.9576,-2.9546,-2.8824,0.0,0.0,0.0,0.0,0.0,0.0,0.0,0.0,0.0,0.0,0.0,-2.748,-2.7405,-2.742,-2.7525,-2.76,-2.7575,-2.747,-2.7415,-2.7509,-2.7524,-2.7524,-2.7549,-2.7473,-2.7631,-2.8125,-2.8121,-2.8261,-2.882,-2.8557,-2.8364,-2.8351,-2.8054,-2.8035,-2.8515,-2.842,-2.8465,-2.8744,-2.71,-2.5882,-2.578,-2.5952,-2.585,-2.578,-2.5759,-2.5667,-2.561,-2.5602,-2.5301,-2.494,-2.4835,-2.4652,-2.4269,-2.4125,-2.4138,-2.4138,-2.4125,-2.4125,-2.4125,-2.4125,-2.4125,-2.4125,-2.4125,-2.4125,-3.9508,-3.9474,-3.9459,-3.9441,0.0,-3.9305,-3.9101,-3.8795,-3.8043,-3.7605,-3.7404,-3.7404,-3.7404,-3.7404,-3.7404,-3.7404,-3.7404,-3.7778,-3.7916,-3.7965,-3.8284,-3.8433,-3.8448,-3.8116,-3.8132,-3.84,-3.7714,-3.7748,-3.8317,-3.7748,-3.7461,-3.743,-3.6793,-3.628,-3.5983,-3.5669,-3.514,-3.4471,-3.3818,-3.317,-3.2512,-3.2153,-3.1524,-3.0651,-3.0894,0.0,0.0,0.0,0.0,0.0,0.0,0.0,0.0,-2.9265,-2.9262,-2.9577,-2.928,-2.9086,-2.9086,-2.8783,-2.8438,-2.8124,-2.7794,-2.7585,-2.7585,-2.7585,-2.7585,-2.7585,-2.7585,-2.7735,-2.8064,-2.8109,-2.8244,-2.8543,-2.8588,-2.8712,-2.9052,-2.9086,-2.9205,-2.9535,-2.9599,-2.9582,-2.9582,-2.965,-2.9726,-3.0001,-2.9792,-2.9668,-2.9805,-2.866,-2.7655,-2.7592,-2.7292,-2.7128,-2.707,-2.6577,-2.6287,-2.6216,-2.602,-2.5733,-2.5445,-2.5393,-2.5288,-2.4988,-2.4739,-2.4543,-2.4504,-2.4321,-2.4125,-2.4125,-2.4125,-2.4125,-2.4125,-2.4125,-2.42,-4.0489,-4.0489,-4.0455,-4.0401,-4.0277,-4.0226,-3.998,-3.9585,-3.8467,0.0,0.0,-3.7764,-3.7833,-3.7955,-3.7955,-3.8024,-3.8145,-3.8749,-3.9046,-3.9046,-3.9597,-3.985,-3.9803,-3.9178,-3.9146,-3.9597,-3.8366,-3.8299,-3.9357,-3.8841,-3.8583,-3.8554,-3.8035,-3.7408,-3.6697,-3.6129,-3.5525,-3.4841,-3.4626,-3.3948,-3.2901,-3.2632,-3.1928,-3.0745,-3.1065,-3.0754,-2.9744,-3.0079,-3.0079,-2.966,-2.9606,-2.9651,-2.9729,-2.9771,-2.9804,-2.9924,-2.9846,-2.9756,-2.9744,-2.9639,-2.934,-2.8801,-2.8274,-2.7854,-2.763,-2.7705,-2.7779,-2.7764,-2.7884,-2.8199,-2.8727,-2.8771,-2.8981,-2.9562,-2.9621,-2.9621,-2.9741,-2.9744,-2.9831,-2.9939,-3.0374,-3.0658,-3.0673,-3.1078,-3.1496,-3.1409,-3.0955,-3.0673,-3.0584,-2.9907,-2.9268,-2.9236,-2.8787,-2.8625,-2.8547,-2.7916,-2.725,-2.7293,-2.687,-2.6445,-2.6325,-2.6299,-2.6259,-2.6214,-2.5699,-2.5461,-2.5428,-2.4988,-2.4459,-2.4442,-2.4328,-2.423,-2.4138,-2.4125,-2.4258,-4.0489,-4.0489,-4.0366,-4.0296,-4.0277,-3.9945,-3.9661,-3.943,-3.9215,-3.914,-3.914,-3.914,-3.9466,-4.0063,-4.0063,-4.039,-4.0929,-4.1044,-4.1077,-4.1077,-4.1192,-4.1225,-4.1192,-4.0525,-4.0254,-4.0288,-3.9521,-3.9197,-3.937,-3.9378,-3.9357,-3.9331,-3.9249,-3.8576,-3.7431,-3.7203,-3.6798,-3.6136,-3.5072,-3.4414,-3.4188,-3.3095,-3.2212,-3.1562,-3.1074,-3.0552,-2.9985,-2.9917,-2.9848,-2.9783,-2.966,-2.9819,-3.0342,-3.0372,-3.0627,-3.1137,-3.0702,-3.0357,-3.0357,-2.9879,-2.9562,-2.9472,-2.9382,-2.8843,-2.7735,-2.8113,-2.8457,-2.8472,-2.8921,-2.9352,-2.9487,-2.9472,-2.949,-2.9636,-2.9636,-2.9789,-3.0313,-3.0372,-3.0582,-3.1062,-3.1286,-3.1331,-3.1316,-3.1421,-3.1496,-3.1467,-3.1351,-3.1322,-3.1131,-3.0299,-2.9611,-2.9518,-2.9442,-2.9348,-2.9317,-2.9244,-2.8931,-2.9098,-2.8924,-2.8571,-2.8169,-2.8113,-2.7977,-2.7598,-2.6985,-2.6813,-2.7185,-2.6381,-2.5775,-2.5681,-2.5354,-2.4863,-2.4452,-2.4288,-2.4236,-4.0489,-4.0489,-4.0366,-4.0242,-4.0101,-3.9696,-3.9481,-3.9388,-3.9388,-3.9388,-3.946,-3.9824,-4.0181,-4.0478,-4.0512,-4.0684,-4.0974,-4.1327,-4.1492,-4.1525,-4.1917,-4.2078,-4.2013,-4.1409,-4.126,-4.1574,-4.0907,-4.0737,-4.1078,-4.0765,-4.0573,-4.0544,-4.0244,-3.9377,-3.8153,-3.8006,-3.7643,-3.6936,-3.5999,-3.5538,-3.5489,-3.4258,-3.3457,-3.3159,-3.2518,-3.1905,-3.1379,-3.1253,-3.1043,-3.0741,-3.067,-3.0748,-3.1017,-3.1032,-3.1182,-3.1481,-3.1212,-3.1032,-3.1032,-3.0447,-3.0088,-3.0073,-2.9801,-2.9367,-2.8738,-2.8978,-2.9157,-2.9146,-2.943,-2.9756,-3.0043,-3.0088,-3.0223,-3.0612,-3.0614,-3.0761,-3.0972,-3.1032,-3.1152,-3.1451,-3.1496,-3.1496,-3.1496,-3.1496,-3.1496,-3.1496,-3.1496,-3.1496,-3.1496,-3.0999,-3.0584,-3.0554,-3.0284,-3.0086,-3.0011,-2.969,-2.9549,-2.9518,-2.9518,-2.9392,-2.9155,-2.9127,-2.9031,-2.8778,-2.8226,-2.8017,-2.8286,-2.7547,-2.7035,-2.6929,-2.6777,-2.6303,-2.5773,-2.5571,-2.5357,-4.0489,-4.0489,-4.0296,-4.0101,-3.9854,-3.9532,-3.9388,-3.9388,-3.9388,-3.9388,-3.9496,-4.0021,-4.0355,-4.0512,-4.0512,-4.0581,-4.0805,-4.1426,-4.1754,-4.1819,-4.2491,-4.2803,-4.2741,-4.2094,-4.2045,-4.2443,-4.1852,-4.1787,-4.2253,-4.1917,-4.1819,-4.1869,-4.1294,-4.0368,-3.9208,-3.9024,-3.8563,-3.7859,-3.718,-3.6745,-3.6579,-3.5521,-3.4896,-3.4819,-3.4054,-3.3351,-3.2748,-3.2538,-3.2146,-3.1539,-3.1496,-3.1496,-3.1496,-3.1496,-3.1496,-3.1496,-3.1496,-3.1496,-3.1466,-3.1017,-3.0731,-3.0717,-3.0298,-3.0028,-3.0028,-3.0028,-2.9953,-2.9861,-2.9968,-3.0253,-3.0642,-3.0718,-3.0928,-3.1436,-3.1496,-3.1436,-3.1496,-3.1496,-3.1496,-3.1496,-3.1496,-3.1496,-3.1496,-3.1496,-3.1496,-3.1496,-3.1496,-3.1496,-3.1496,-3.1496,-3.1496,-3.1409,-3.1058,-3.0733,-3.0703,-3.0359,-3.0072,-2.9936,-3.0011,-3.0043,-3.0015,-2.9983,-2.9966,-2.9913,-2.949,-2.9279,-2.9223,-2.8672,-2.8275,-2.8207,-2.8035,-2.7715,-2.7079,-2.7096,-2.6783,-4.0489,-4.0455,-4.0156,-3.9803,-3.9496,-3.9424,-3.9388,-3.9388,-3.9388,-3.9388,-3.946,-3.9481,-3.995,-4.0443,-4.0547,-4.0873,-4.1426,-4.2158,-4.2491,-4.2554,-4.3204,-4.3492,-4.3355,-4.2772,-4.2522,-4.2522,-4.1884,-4.1689,-4.1819,-4.2253,-4.282,-4.3243,-4.269,-4.1966,-4.1267,-4.057,-3.9881,-3.9221,-3.8504,-3.7847,-3.7286,-3.66,-3.6209,-3.6203,-3.498,-3.4027,-3.3464,-3.282,-3.2212,-3.157,-3.1525,-3.1511,-3.1511,-3.1511,-3.1496,-3.1496,-3.1496,-3.1496,-3.1496,-3.1451,-3.1376,-3.1406,-3.1316,-3.1256,-3.1256,-3.1271,-3.1047,-3.0657,-3.0971,-3.1256,-3.1406,-3.1376,-3.1376,-3.1466,-3.1496,-3.1496,-3.1496,-3.1496,-3.1496,-3.1496,-3.1496,-3.1496,-3.1496,-3.1496,-3.1496,-3.1496,-3.1496,-3.1496,-3.1496,-3.1496,-3.1496,-3.1496,-3.1394,-3.1365,-3.1351,-3.138,-3.1117,-3.1175,-3.1278,-3.1146,-3.1087,-3.1131,-3.1292,-3.0852,-3.0689,-3.0454,-3.0601,-3.0276,-2.9418,-2.9391,-2.9086,-2.8484,-2.7962,-2.8139,-2.8011,-4.047,-4.0366,-4.0242,-3.996,-3.9589,-3.946,-3.9388,-3.9409,-3.9895,-4.0056,-4.0126,-4.0462,-4.0805,-4.1093,-4.1525,-4.1884,-4.2158,-4.2459,-4.2617,-4.2617,-4.2896,-4.3005,-4.2974,-4.2741,-4.2617,-4.2648,-4.2679,-4.2758,-4.2803,-4.3035,-4.3325,-4.3535,-4.3284,-4.2802,-4.2131,-4.1378,-4.0668,-3.9982,-3.9276,-3.8788,-3.8435,-3.7492,-3.7176,-3.7354,-3.6263,-3.5272,-3.4641,-3.3964,-3.3334,-3.2706,-3.2303,-3.2079,-3.2079,-3.172,-3.1496,-3.1496,-3.1496,-3.1496,-3.1496,-3.1496,-3.1496,-3.1496,-3.1496,-3.1496,-3.1496,-3.1496,-3.1361,-3.1197,-3.1346,-3.1496,-3.1511,-3.1496,-3.1496,-3.1496,-3.1496,-3.1511,-3.1496,-3.1511,-3.1496,-3.1496,-3.1496,-3.1511,-3.1496,-3.1496,-3.1496,-3.1496,-3.1496,-3.1496,-3.1496,-3.1496,-3.1496,-3.1496,-3.1496,-3.1496,-3.1496,-3.1496,-3.1496,-3.1496,-3.1496,-3.1496,-3.1496,-3.1496,-3.1467,-3.1496,-3.1248,-3.1131,-3.135,-3.1219,-3.0675,-3.0587,-3.025,-2.9674,-2.9416,-2.9594,-2.9432,-4.0296,-4.0242,-4.0172,-3.9945,-3.961,-3.946,-3.9517,-3.9753,-4.0285,-4.0615,-4.0839,-4.1508,-4.1787,-4.1836,-4.2158,-4.2317,-4.2317,-4.2522,-4.2617,-4.2617,-4.2789,-4.2865,-4.2881,-4.2881,-4.2881,-4.2943,-4.3325,-4.3598,-4.3615,-4.3615,-4.3615,-4.3615,-4.3615,-4.3317,-4.2771,-4.2059,-4.1458,-4.0945,-4.0094,-3.9613,-3.9445,-3.8508,-3.8124,-3.843,-3.7512,-3.6587,-3.5947,-3.5127,-3.439,-3.3759,-3.3156,-3.2781,-3.2766,-3.2123,-3.169,-3.1511,-3.1496,-3.1496,-3.1496,-3.1496,-3.1496,-3.1496,-3.1496,-3.1496,-3.1525,-3.1675,-3.178,-3.178,-3.1929,-3.1989,-3.1525,-3.1675,-3.1765,-3.178,-3.1899,-3.2034,-3.2064,-3.2049,-3.2093,-3.2049,-3.2153,-3.1944,-3.1795,-3.1645,-3.1496,-3.1496,-3.1496,-3.1496,-3.1496,-3.1496,-3.1496,-3.1496,-3.1496,-3.1496,-3.1496,-3.1496,-3.1496,-3.1496,-3.1496,-3.1496,-3.1496,-3.1496,-3.1496,-3.1496,-3.1496,-3.1496,-3.1511,-3.1467,-3.1438,-3.138,-3.1073,-3.0704,-3.0646,-3.0763,-3.0763,-3.9996,-3.9996,-3.9803,-3.9625,-3.9409,-3.9409,-3.9773,-4.032,-4.0478,-4.0873,-4.1459,-4.2221,-4.2554,-4.2506,-4.1981,-4.1608,-4.1722,-4.2349,-4.2679,-4.271,-4.3235,-4.3539,-4.3552,-4.3568,-4.3539,-4.3479,-4.3539,-4.3615,-4.3615,-4.3615,-4.3615,-4.3615,-4.3615,-4.3582,-4.3383,-4.2738,-4.2423,-4.2154,-4.0978,-4.0326,-4.026,-3.9566,-3.9197,-3.9121,-3.8585,-3.7862,-3.7162,-3.6034,-3.509,-3.4429,-3.3849,-3.3485,-3.3425,-3.2811,-3.2183,-3.1675,-3.157,-3.1555,-3.1585,-3.1615,-3.16,-3.157,-3.166,-3.1555,-3.172,-3.2153,-3.2437,-3.2467,-3.2946,-3.2826,-3.1899,-3.2168,-3.2437,-3.2512,-3.3006,-3.326,-3.3335,-3.32,-3.3395,-3.332,-3.323,-3.2931,-3.2482,-3.1884,-3.16,-3.1525,-3.1496,-3.1496,-3.1496,-3.1496,-3.1496,-3.1496,-3.1496,-3.1496,-3.1496,-3.1496,-3.1496,-3.1496,-3.1496,-3.1496,-3.1496,-3.1496,-3.1496,-3.1496,-3.1496,-3.1496,-3.1496,-3.1496,-3.1496,-3.1467,-3.1467,-3.1307,-3.1219,-3.138,-3.1336,-4.0011,-3.9975,-3.9625,-3.9553,-3.9553,-3.9445,-3.9553,-3.9879,-4.0771,-4.126,-4.1689,-4.271,-4.3235,-4.3235,-4.2958,-4.2851,-4.2865,-4.3127,-4.3235,-4.3265,-4.3492,-4.3615,-4.3615,-4.3615,-4.3615,-4.3615,-4.3615,-4.3615,-4.3615,-4.3615,-4.3615,-4.3615,-4.3615,-4.3615,-4.3466,-4.287,-4.2506,-4.2406,-4.1524,-4.0829,-4.0459,-4.0144,-3.9796,-3.9305,-3.9094,-3.863,-3.7978,-3.7495,-3.6965,-3.6348,-3.529,-3.4714,-3.4607,-3.3713,-3.3051,-3.2826,-3.2796,-3.2781,-3.2781,-3.2796,-3.2796,-3.2796,-3.2796,-3.2736,-3.2826,-3.3006,-3.3155,-3.32,-3.3305,-3.3185,-3.3006,-3.3021,-3.314,-3.3185,-3.335,-3.3559,-3.3499,-3.3499,-3.3499,-3.3499,-3.3499,-3.323,-3.2751,-3.2288,-3.1974,-3.1585,-3.1496,-3.1511,-3.1496,-3.1496,-3.1496,-3.1496,-3.1496,-3.1496,-3.1496,-3.1496,-3.1496,-3.1496,-3.1496,-3.1496,-3.1496,-3.1496,-3.1496,-3.1496,-3.1496,-3.1496,-3.1496,-3.1496,-3.1496,-3.1496,-3.1496,-3.1496,-3.1496,-3.1496,-3.1496,-3.9783,-3.9783,-3.9496,-3.9625,-3.993,-3.9809,-4.0005,-4.0512,-4.1459,-4.1981,-4.2349,-4.3204,-4.3615,-4.3615,-4.3615,-4.3615,-4.3615,-4.3615,-4.3615,-4.3615,-4.3615,-4.3615,-4.3615,-4.3615,-4.3615,-4.3615,-4.3615,-4.3615,-4.3615,-4.3615,-4.3615,-4.3615,-4.3615,-4.3615,-4.3515,-4.3085,-4.2853,-4.2721,-4.2125,-4.1524,-4.1094,-4.0829,-4.0365,-3.9796,-3.9663,-3.9335,-3.865,-3.8407,-3.8137,-3.7613,-3.6631,-3.587,-3.5368,-3.4379,-3.374,-3.3529,-3.3484,-3.3499,-3.3499,-3.3499,-3.3484,-3.3484,-3.3499,-3.3499,-3.3499,-3.371,-3.3799,-3.3844,-3.4053,-3.4143,-3.4143,-3.4158,-3.4053,-3.3918,-3.4008,-3.4143,-3.4158,-3.4158,-3.4173,-3.4188,-3.3993,-3.3634,-3.323,-3.2976,-3.2557,-3.1914,-3.1809,-3.178,-3.1555,-3.1496,-3.1496,-3.1496,-3.1496,-3.1496,-3.1496,-3.1496,-3.1496,-3.1496,-3.1496,-3.1496,-3.1496,-3.1496,-3.1496,-3.1496,-3.1496,-3.1496,-3.1496,-3.1496,-3.1496,-3.1496,-3.1496,-3.1496,-3.1496,-3.1496,-3.1496,-3.9424,-3.9496,-3.9424,-3.9895,-4.0462,-4.0497,-4.1276,-4.219,-4.2459,-4.2772,-4.3204,-4.3568,-4.3615,-4.3615,-4.3615,-4.3615,-4.3615,-4.3615,-4.3615,-4.3615,-4.3615,-4.3615,-4.3615,-4.3615,-4.3615,-4.3615,-4.3615,-4.3615,-4.3615,-4.3615,-4.3615,-4.3615,-4.3615,-4.3615,-4.3615,-4.3515,-4.3532,-4.3383,-4.2804,-4.2456,-4.2406,-4.1756,-4.1094,-4.0492,-4.0359,-4.0011,-3.9311,-3.8706,-3.8379,-3.8266,-3.7703,-3.677,-3.5674,-3.4925,-3.4265,-3.3861,-3.3635,-3.3574,-3.3604,-3.3664,-3.3724,-3.3724,-3.3619,-3.3739,-3.3844,-3.4203,-3.4518,-3.4577,-3.4966,-3.537,-3.5325,-3.531,-3.51,-3.4698,-3.4936,-3.525,-3.5355,-3.5444,-3.5459,-3.528,-3.4846,-3.4517,-3.4354,-3.3873,-3.326,-3.2706,-3.2437,-3.2198,-3.175,-3.1585,-3.1496,-3.1496,-3.1496,-3.1496,-3.1496,-3.1496,-3.1496,-3.1496,-3.1496,-3.1496,-3.1496,-3.1496,-3.1496,-3.1496,-3.1496,-3.1496,-3.1496,-3.1496,-3.1496,-3.1496,-3.1496,-3.1496,-3.1496,-3.1496,-3.1496,-3.9681,-4.0146,-4.0146,-4.0547,-4.116,-4.1194,-4.1492,-4.1884,-4.2349,-4.271,-4.2974,-4.3386,-4.3615,-4.3615,-4.3615,-4.3598,-4.3615,-4.3615,-4.3615,-4.3615,-4.3615,-4.3615,-4.3615,-4.3615,-4.3615,-4.3615,-4.3615,-4.3598,-4.3615,-4.3615,-4.3615,-4.3615,-4.3615,-4.3615,-4.3628,-4.3615,-4.3615,-4.3565,-4.3367,-4.3019,-4.2539,-4.2291,-4.1823,-4.1143,-4.0713,-4.0358,-4.0044,-3.9358,-3.9013,-3.8969,-3.8395,-3.7623,-3.6833,-3.6168,-3.5752,-3.5491,-3.5083,-3.4876,-3.4876,-3.4846,-3.4831,-3.4861,-3.4846,-3.4876,-3.4876,-3.5011,-3.516,-3.516,-3.5385,-3.5489,-3.5489,-3.5489,-3.537,-3.522,-3.537,-3.5489,-3.5489,-3.5489,-3.5489,-3.5489,-3.531,-3.5011,-3.4638,-3.4249,-3.3918,-3.3275,-3.2856,-3.2422,-3.2183,-3.175,-3.1525,-3.1496,-3.1496,-3.1496,-3.1496,-3.1496,-3.1496,-3.1496,-3.1496,-3.1496,-3.1496,-3.1496,-3.1496,-3.1496,-3.1496,-3.1496,-3.1496,-3.1496,-3.1496,-3.1496,-3.1496,-3.1496,-3.1496,-3.1496,-3.1496,-4.0076,-4.0512,-4.0771,-4.126,-4.1884,-4.1933,-4.2045,-4.2301,-4.2741,-4.2974,-4.3082,-4.3402,-4.3658,-4.3687,-4.3628,-4.3658,-4.3704,-4.3628,-4.3615,-4.3615,-4.3615,-4.3615,-4.3615,-4.3615,-4.3615,-4.3615,-4.3615,-4.3628,-4.3704,-4.3611,-4.3658,-4.373,-4.3747,-4.3763,-4.3776,-4.3734,-4.3704,-4.3704,-4.3628,-4.3413,-4.3107,-4.3036,-4.2671,-4.2003,-4.1633,-4.115,-4.0486,-3.9999,-3.9617,-3.9268,-3.8662,-3.8108,-3.7706,-3.7115,-3.6662,-3.6368,-3.6038,-3.575,-3.5569,-3.5415,-3.5489,-3.5489,-3.5489,-3.5474,-3.5489,-3.5489,-3.5489,-3.5489,-3.5489,-3.5489,-3.5489,-3.5489,-3.5489,-3.5489,-3.5489,-3.5489,-3.5489,-3.5489,-3.5489,-3.5489,-3.5474,-3.5265,-3.4996,-3.4846,-3.4577,-3.3948,-3.3305,-3.2691,-3.2467,-3.1914,-3.1675,-3.1511,-3.1496,-3.1496,-3.1496,-3.1496,-3.1496,-3.1496,-3.1496,-3.1496,-3.1496,-3.1496,-3.1496,-3.1496,-3.1496,-3.1496,-3.1496,-3.1496,-3.1496,-3.1496,-3.1496,-3.1496,-3.1496,-3.1496,-3.1496,-4.0581,-4.0668,-4.1294,-4.1981,-4.2617,-4.2664,-4.2943,-4.3462,-4.3539,-4.3539,-4.3568,-4.3568,-4.3704,-4.3793,-4.3674,-4.3687,-4.3822,-4.3734,-4.3674,-4.3658,-4.3658,-4.3674,-4.3598,-4.3615,-4.3645,-4.3645,-4.3645,-4.3734,-4.3881,-4.3747,-4.3759,-4.401,-4.3939,-4.3985,-4.4027,-4.3985,-4.3927,-4.3898,-4.3717,-4.3713,-4.3814,-4.3831,-4.3548,-4.2894,-4.2819,-4.2161,-4.1006,-4.0552,-4.0113,-3.9344,-3.8745,-3.8451,-3.8266,-3.778,-3.7177,-3.6692,-3.6477,-3.6085,-3.5716,-3.5537,-3.5489,-3.5489,-3.5489,-3.5489,-3.5489,-3.5489,-3.5489,-3.5489,-3.5489,-3.5489,-3.5489,-3.5489,-3.5489,-3.5489,-3.5489,-3.5489,-3.5489,-3.5489,-3.5489,-3.5489,-3.5489,-3.5474,-3.5415,-3.54,-3.5115,-3.4622,-3.3963,-3.3365,-3.2736,-3.2228,-3.1705,-3.154,-3.1511,-3.1496,-3.1496,-3.1496,-3.1496,-3.1496,-3.1496,-3.1496,-3.1496,-3.1496,-3.1496,-3.1496,-3.1496,-3.1496,-3.1496,-3.1496,-3.1496,-3.1496,-3.1496,-3.1496,-3.1496,-3.1496,-3.1496,-4.1558,-4.2061,-4.2253,-4.271,-4.3295,-4.3342,-4.3432,-4.3615,-4.3615,-4.3615,-4.3615,-4.3615,-4.3628,-4.3658,-4.3658,-4.3687,-4.3852,-4.3852,-4.3881,-4.3969,-4.3981,-4.3805,-4.3628,-4.3598,-4.3704,-4.3793,-4.3822,-4.3927,-4.4056,-4.3981,-4.401,-4.4097,-4.4068,-4.4068,-4.4085,-4.4085,-4.4056,-4.4056,-4.401,-4.3981,-4.401,-4.4039,-4.3972,-4.3755,-4.3378,-4.2842,-4.2071,-4.1023,-4.0115,-3.9381,-3.9148,-3.905,-3.8925,-3.8407,-3.7937,-3.7648,-3.692,-3.6368,-3.6133,-3.5765,-3.5522,-3.5489,-3.5522,-3.5489,-3.5489,-3.5489,-3.5489,-3.5489,-3.5489,-3.5489,-3.5489,-3.5489,-3.5489,-3.5489,-3.5489,-3.5489,-3.5489,-3.5489,-3.5489,-3.5489,-3.5489,-3.5489,-3.5489,-3.5489,-3.5429,-3.513,-3.4592,-3.3994,-3.3305,-3.2691,-3.2183,-3.1675,-3.1525,-3.1511,-3.1496,-3.1496,-3.1496,-3.1496,-3.1496,-3.1496,-3.1496,-3.1496,-3.1496,-3.1496,-3.1496,-3.1496,-3.1496,-3.1496,-3.1496,-3.1496,-3.1496,-3.1496,-3.1496,-3.1496,-3.1496,-4.2269,-4.2617,-4.2912,-4.3235,-4.3598,-4.3615,-4.3615,-4.3615,-4.3615,-4.3658,-4.3687,-4.3628,-4.3717,-4.3877,-4.3776,-4.3835,-4.4056,-4.3998,-4.4027,-4.4068,-4.4097,-4.3981,-4.3835,-4.3805,-4.3864,-4.3969,-4.3969,-4.4039,-4.4155,-4.4126,-4.4184,-4.427,-4.4241,-4.4241,-4.4315,-4.4212,-4.4167,-4.4167,-4.4155,-4.4126,-4.4167,-4.4167,-4.4167,-4.4145,-4.3855,-4.3575,-4.2807,-4.1322,-4.0143,-3.9508,-3.9315,-3.9315,-3.9272,-3.8969,-3.859,-3.8306,-3.7589,-3.7115,-3.6753,-3.6242,-3.591,-3.5846,-3.5733,-3.5554,-3.5522,-3.5539,-3.5572,-3.5504,-3.5504,-3.5489,-3.5489,-3.5489,-3.5489,-3.5489,-3.5554,-3.5554,-3.5489,-3.5489,-3.5489,-3.5489,-3.5489,-3.5489,-3.5489,-3.5504,-3.5489,-3.5355,-3.4846,-3.4367,-3.3903,-3.3305,-3.2751,-3.2272,-3.1913,-3.1943,-3.1837,-3.1762,-3.1718,-3.1688,-3.1553,-3.1553,-3.1524,-3.1524,-3.1496,-3.1496,-3.1496,-3.1496,-3.1524,-3.1524,-3.1496,-3.1496,-3.1496,-3.1496,-3.1496,-3.1496,-3.1496,-4.2863,-4.282,-4.3402,-4.3658,-4.3658,-4.3674,-4.3687,-4.3658,-4.3687,-4.3793,-4.3852,-4.3734,-4.3894,-4.4281,-4.3998,-4.4039,-4.4281,-4.4155,-4.4172,-4.4184,-4.4184,-4.4155,-4.4172,-4.4039,-4.4068,-4.4097,-4.4126,-4.4212,-4.4281,-4.4212,-4.4298,-4.4457,-4.4412,-4.444,-4.4485,-4.4412,-4.4355,-4.431,-4.4241,-4.427,-4.431,-4.4355,-4.4338,-4.4367,-4.4361,-4.3895,-4.2926,-4.1621,-4.04,-3.9518,-3.9392,-3.9315,-3.9315,-3.9272,-3.9023,-3.8546,-3.8266,-3.7908,-3.7488,-3.6814,-3.6399,-3.6305,-3.5975,-3.5671,-3.5636,-3.5701,-3.5686,-3.5569,-3.5537,-3.5554,-3.5554,-3.5554,-3.5587,-3.5619,-3.5686,-3.5653,-3.5587,-3.5569,-3.5569,-3.5569,-3.5554,-3.5554,-3.5569,-3.5569,-3.5554,-3.5653,-3.5217,-3.4901,-3.4525,-3.4059,-3.3502,-3.2975,-3.2719,-3.2555,-3.2315,-3.2059,-3.2,-3.1955,-3.1758,-3.1668,-3.164,-3.1611,-3.1524,-3.1496,-3.1496,-3.1524,-3.1597,-3.1568,-3.1553,-3.1582,-3.1655,-3.1597,-3.1539,-3.1496,-3.1496,-4.3802,-4.3789,-4.3906,-4.3981,-4.401,-4.3998,-4.3981,-4.3981,-4.3981,-4.3981,-4.4039,-4.401,-4.4039,-4.4155,-4.4114,-4.4155,-4.431,-4.4281,-4.4327,-4.4485,-4.4485,-4.4485,-4.4429,-4.4258,-4.4167,-4.4224,-4.4236,-4.4338,-4.4468,-4.4468,-4.4514,-4.457,-4.4542,-4.457,-4.457,-4.4542,-4.4542,-4.4525,-4.4485,-4.4485,-4.4497,-4.4514,-4.4497,-4.4514,-4.444,-4.3968,-4.3188,-4.2194,-4.1281,-4.0525,-3.9764,-3.9325,-3.9325,-3.9342,-3.9228,-3.9007,-3.859,-3.8266,-3.7982,-3.731,-3.6662,-3.6677,-3.6305,-3.5926,-3.591,-3.591,-3.5831,-3.5718,-3.5671,-3.5686,-3.5686,-3.5814,-3.5829,-3.5861,-3.5878,-3.5894,-3.5878,-3.5878,-3.5861,-3.5861,-3.5861,-3.5893,-3.5878,-3.5876,-3.5861,-3.5863,-3.5681,-3.5424,-3.5121,-3.4772,-3.4319,-3.3788,-3.3592,-3.3411,-3.3169,-3.2912,-3.2747,-3.2612,-3.2385,-3.2232,-3.216,-3.1953,-3.1985,-3.1763,-3.1496,-3.1553,-3.1683,-3.1712,-3.1741,-3.1769,-3.1798,-3.1741,-3.1683,-3.1626,-3.1582,-4.4138,-4.4097,-4.4097,-4.4097,-4.4097,-4.4097,-4.4097,-4.4097,-4.4097,-4.4126,-4.4167,-4.4126,-4.42,-4.4315,-4.4241,-4.4298,-4.4412,-4.444,-4.4497,-4.457,-4.4598,-4.4598,-4.4587,-4.4457,-4.4384,-4.4423,-4.444,-4.4514,-4.457,-4.4598,-4.457,-4.4598,-4.4598,-4.457,-4.4598,-4.4598,-4.4598,-4.4598,-4.4598,-4.4598,-4.4598,-4.4598,-4.4598,-4.4598,-4.4497,-4.4176,-4.3721,-4.2589,-4.1841,-4.114,-4.0164,-3.9511,-3.9468,-3.9511,-3.9468,-3.9398,-3.9131,-3.8909,-3.8684,-3.8137,-3.7602,-3.7602,-3.6965,-3.6585,-3.6383,-3.6227,-3.6022,-3.5894,-3.5831,-3.5831,-3.5863,-3.5894,-3.6005,-3.602,-3.6068,-3.6085,-3.6085,-3.6037,-3.602,-3.602,-3.5988,-3.5988,-3.602,-3.6052,-3.602,-3.5973,-3.5941,-3.573,-3.5746,-3.5396,-3.5109,-3.4729,-3.4531,-3.4304,-3.4045,-3.3817,-3.3665,-3.3514,-3.3347,-3.327,-3.324,-3.2911,-3.2553,-3.2283,-3.1968,-3.1784,-3.1855,-3.1883,-3.1957,-3.1912,-3.1912,-3.1883,-3.1883,-3.1826,-3.1811,-4.4281,-4.4172,-4.42,-4.42,-4.4184,-4.4184,-4.4184,-4.4184,-4.4155,-4.427,-4.4327,-4.4212,-4.4372,-4.4514,-4.4412,-4.4468,-4.4542,-4.457,-4.4598,-4.4598,-4.4598,-4.4598,-4.4587,-4.457,-4.4542,-4.4598,-4.457,-4.4598,-4.4598,-4.4598,-4.4598,-4.4598,-4.4598,-4.4598,-4.4598,-4.4598,-4.4598,-4.4598,-4.4598,-4.4598,-4.4598,-4.4598,-4.4598,-4.4598,-4.457,-4.4497,-4.4007,-4.2991,-4.2072,-4.1902,-4.056,-3.9889,-3.9755,-3.9703,-3.9703,-3.9677,-3.9511,-3.9468,-3.9382,-3.8947,-3.853,-3.8707,-3.7892,-3.7294,-3.7071,-3.6753,-3.6445,-3.6227,-3.6148,-3.6022,-3.6037,-3.61,-3.6115,-3.6115,-3.6179,-3.6242,-3.6211,-3.6132,-3.6147,-3.6115,-3.6178,-3.6178,-3.6163,-3.6163,-3.61,-3.6068,-3.6068,-3.6068,-3.6068,-3.6024,-3.5705,-3.5615,-3.5416,-3.5339,-3.5125,-3.4651,-3.4469,-3.4362,-3.421,-3.4102,-3.4086,-3.3768,-3.3315,-3.2833,-3.25,-3.2421,-3.2329,-3.2387,-3.2357,-3.2159,-3.2053,-3.2053,-3.2025,-3.2025,-3.201,-4.4542,-4.4514,-4.453,-4.4514,-4.4514,-4.4514,-4.4485,-4.4514,-4.4485,-4.4514,-4.4542,-4.4514,-4.4514,-4.457,-4.457,-4.457,-4.4598,-4.4598,-4.4598,-4.4598,-4.4598,-4.4598,-4.4598,-4.4598,-4.4598,-4.4598,-4.4598,-4.4598,-4.4598,-4.4598,-4.4598,-4.4598,-4.4598,-4.4598,-4.4598,-4.4598,-4.4598,-4.4598,-4.4598,-4.4598,-4.4598,-4.4598,-4.4598,-4.4598,-4.4598,-4.457,-4.422,-4.3139,-4.225,-4.2115,-4.0814,-4.0172,-3.9969,-3.9833,-3.9755,-3.9729,-3.972,-3.9677,-3.9651,-3.9276,-3.8974,-3.8821,-3.8435,-3.8124,-3.7924,-3.7517,-3.7087,-3.6784,-3.6461,-3.6196,-3.6164,-3.6289,-3.6398,-3.6429,-3.6398,-3.6429,-3.6414,-3.6398,-3.6367,-3.6336,-3.6367,-3.6398,-3.632,-3.6289,-3.6289,-3.6304,-3.6304,-3.6304,-3.6304,-3.6336,-3.6275,-3.626,-3.6291,-3.626,-3.6214,-3.563,-3.5277,-3.5139,-3.4986,-3.4694,-3.4616,-3.4461,-3.4111,-3.3889,-3.3556,-3.3358,-3.3235,-3.3064,-3.2772,-3.2616,-3.2405,-3.2224,-3.2178,-3.2135,-3.2122,-4.4598,-4.4598,-4.4598,-4.4598,-4.4598,-4.4598,-4.4598,-4.4598,-4.4598,-4.4598,-4.4598,-4.4598,-4.4598,-4.4598,-4.4598,-4.4598,-4.4598,-4.4598,-4.4598,-4.4598,-4.4598,-4.4598,-4.4598,-4.4598,-4.4598,-4.4598,-4.4598,-4.4598,-4.4598,-4.4598,-4.4598,-4.4598,-4.4598,-4.4598,-4.4598,-4.4598,-4.4598,-4.4598,-4.4598,-4.4598,-4.4598,-4.4598,-4.4598,-4.4598,-4.4598,-4.4598,-4.431,-4.3125,-4.232,-4.2016,-4.0891,-4.0265,-4.0045,-3.9995,-3.991,-3.9884,-3.9833,-3.9833,-3.9858,-3.9635,-3.9513,-3.9497,-3.9065,-3.8794,-3.8629,-3.8238,-3.7693,-3.7296,-3.7087,-3.6662,-3.6414,-3.646,-3.6492,-3.6492,-3.6492,-3.6492,-3.6492,-3.6492,-3.6492,-3.6492,-3.646,-3.646,-3.646,-3.646,-3.6492,-3.6492,-3.6492,-3.6492,-3.6492,-3.6492,-3.6492,-3.6492,-3.6476,-3.6476,-3.6476,-3.6184,-3.5845,-3.5753,-3.5706,-3.5414,-3.5367,-3.5291,-3.5399,-3.5401,-3.5003,-3.4345,-3.4053,-3.3865,-3.3449,-3.3093,-3.299,-3.2839,-3.2471,-3.2259,-3.2293,-4.4598,-4.4598,-4.4598,-4.4598,-4.4598,-4.4598,-4.4598,-4.4598,-4.4598,-4.4598,-4.4598,-4.4598,-4.4598,-4.4598,-4.4598,-4.4598,-4.4598,-4.4598,-4.4598,-4.4598,-4.4598,-4.4598,-4.4598,-4.4598,-4.4598,-4.4598,-4.4598,-4.4598,-4.4598,-4.4598,-4.4598,-4.4598,-4.4598,-4.4598,-4.4598,-4.4598,-4.4598,-4.4598,-4.4598,-4.4598,-4.4598,-4.4598,-4.4598,-4.4598,-4.4598,-4.4598,-4.4445,-4.3335,-4.254,-4.2033,-4.1153,-4.0282,-4.0146,-4.0113,-4.0113,-4.0087,-3.9986,-4.0011,-4.0037,-4.0003,-3.991,-3.9944,-3.9618,-3.9444,-3.9216,-3.8794,-3.8181,-3.7592,-3.7342,-3.7058,-3.66,-3.6492,-3.6492,-3.6492,-3.6492,-3.6492,-3.6492,-3.6492,-3.6492,-3.6492,-3.6492,-3.6492,-3.6492,-3.6492,-3.6492,-3.6492,-3.6492,-3.6492,-3.6492,-3.6492,-3.6492,-3.6492,-3.6492,-3.6492,-3.6492,-3.6492,-3.6261,-3.6199,-3.6168,-3.603,-3.6138,-3.6261,-3.6291,-3.6107,-3.5799,-3.5169,-3.4922,-3.4628,-3.4245,-3.3952,-3.3737,-3.3413,-3.2957,-3.2696,-3.265,-4.4598,-4.4598,-4.4598,-4.4598,-4.4598,-4.4598,-4.4598,-4.4598,-4.4598,-4.4598,-4.4598,-4.4598,-4.4598,-4.4598,-4.4598,-4.4598,-4.4598,-4.4598,-4.4598,-4.4598,-4.4598,-4.4598,-4.4598,-4.4598,-4.4598,-4.4598,-4.4598,-4.4598,-4.4598,-4.4598,-4.4598,-4.4598,-4.4598,-4.4598,-4.4598,-4.4598,-4.4598,-4.4598,-4.4598,-4.4598,-4.4598,-4.4598,-4.4598,-4.4598,-4.4598,-4.4598,-4.4496,-4.3623,-4.298,-4.232,-4.1542,-4.0747,-4.0265,-4.0113,-4.0113,-4.0113,-4.007,-4.007,-4.0096,-4.0087,-4.0062,-4.0113,-3.9969,-3.9995,-3.9773,-3.9391,-3.8673,-3.749,-3.746,-3.7282,-3.6892,-3.6616,-3.6554,-3.6585,-3.6693,-3.6631,-3.6569,-3.6492,-3.6492,-3.6492,-3.6492,-3.6492,-3.6492,-3.6492,-3.6492,-3.6492,-3.6492,-3.6523,-3.6492,-3.6492,-3.6662,-3.6723,-3.6754,-3.6754,-3.6754,-3.6723,-3.6585,-3.6554,-3.6492,-3.6492,-3.6492,-3.6492,-3.6492,-3.6307,-3.6061,-3.5876,-3.5537,-3.523,-3.5013,-3.4736,-3.4414,-3.3952,-3.3444,-3.3244,-3.3121,-4.4598,-4.4598,-4.4598,-4.4598,-4.4598,-4.4598,-4.4598,-4.4598,-4.4598,-4.4598,-4.4598,-4.4598,-4.4598,-4.4598,-4.4598,-4.4598,-4.4598,-4.4598,-4.4598,-4.4598,-4.4598,-4.4598,-4.4598,-4.4598,-4.4598,-4.4598,-4.4598,-4.4598,-4.4598,-4.4598,-4.4598,-4.4598,-4.4598,-4.4598,-4.4598,-4.4598,-4.4598,-4.4598,-4.4598,-4.4598,-4.4598,-4.4598,-4.4598,-4.4598,-4.4598,-4.4598,-4.4401,-4.3826,-4.3308,-4.2726,-4.1897,-4.1102,-4.0679,-4.0383,-4.0113,-4.0113,-4.0113,-4.0096,-4.0113,-4.0113,-4.0113,-4.0113,-4.0113,-4.007,-4.0045,-3.9825,-3.9365,-3.8518,-3.8423,-3.8067,-3.7621,-3.7533,-3.7533,-3.7445,-3.7088,-3.6967,-3.6831,-3.6554,-3.6492,-3.6492,-3.6492,-3.6492,-3.6492,-3.6492,-3.6492,-3.6523,-3.6585,-3.6647,-3.6585,-3.6492,-3.6754,-3.7074,-3.7074,-3.7074,-3.7088,-3.7088,-3.68,-3.6693,-3.6492,-3.6492,-3.6492,-3.6492,-3.6492,-3.6492,-3.6338,-3.6168,-3.603,-3.5891,-3.5676,-3.5398,-3.509,-3.4643,-3.4183,-3.3983,-3.3796,-4.4598,-4.4598,-4.4598,-4.4598,-4.4598,-4.4598,-4.4598,-4.4598,-4.4598,-4.4598,-4.4598,-4.4598,-4.4598,-4.4598,-4.4598,-4.4598,-4.4598,-4.4598,-4.4598,-4.4598,-4.4598,-4.4598,-4.4598,-4.4598,-4.4598,-4.4598,-4.4598,-4.4598,-4.4598,-4.4598,-4.4598,-4.4598,-4.4598,-4.4598,-4.4598,-4.4598,-4.4598,-4.4598,-4.4598,-4.4598,-4.4598,-4.4598,-4.4598,-4.4598,-4.4598,-4.4598,-4.4513,-4.4113,-4.3758,-4.3122,-4.2506,-4.1863,-4.1457,-4.1102,-4.0874,-4.0874,-4.0891,-4.0722,-4.0502,-4.0299,-4.0146,-4.0113,-4.0113,-4.0113,-4.0096,-4.007,-3.9825,-3.9109,-3.9055,-3.8767,-3.8446,-3.8222,-3.8137,-3.7924,-3.765,-3.7519,-3.7312,-3.6952,-3.6616,-3.6492,-3.6492,-3.6492,-3.6492,-3.6492,-3.6523,-3.6523,-3.66,-3.6754,-3.6831,-3.6861,-3.7178,-3.7592,-3.7621,-3.7592,-3.7592,-3.7519,-3.7163,-3.6922,-3.6708,-3.6569,-3.66,-3.6554,-3.6492,-3.6492,-3.6585,-3.643,-3.6261,-3.6322,-3.6353,-3.6014,-3.5706,-3.5367,-3.5028,-3.4797,-3.4443,-4.4598,-4.4598,-4.4598,-4.4598,-4.4598,-4.4598,-4.4598,-4.4598,-4.4598,-4.4598,-4.4598,-4.4598,-4.4598,-4.4598,-4.4598,-4.4598,-4.4598,-4.4598,-4.4598,-4.4598,-4.4598,-4.4598,-4.4598,-4.4598,-4.4598,-4.4598,-4.4598,-4.4598,-4.4598,-4.4598,-4.4598,-4.4598,-4.4598,-4.4598,-4.4598,-4.4598,-4.4598,-4.4598,-4.4598,-4.4598,-4.4598,-4.4598,-4.4598,-4.4598,-4.4598,-4.4598,-4.4598,-4.4445,-4.4147,-4.3589,-4.3122,-4.2743,-4.2252,-4.1931,-4.1762,-4.1745,-4.1762,-4.1542,-4.1187,-4.0595,-4.0163,-4.0113,-4.0113,-4.0113,-4.0113,-4.0113,-3.9799,-3.9391,-3.9391,-3.9082,-3.8657,-3.8334,-3.8585,-3.8518,-3.8294,-3.7969,-3.7666,-3.7178,-3.6846,-3.6616,-3.6631,-3.6892,-3.6937,-3.7028,-3.6831,-3.6831,-3.7222,-3.7401,-3.7679,-3.7751,-3.7953,-3.821,-3.8222,-3.8193,-3.8181,-3.7982,-3.7767,-3.746,-3.7193,-3.6937,-3.6739,-3.6677,-3.6922,-3.68,-3.6892,-3.6693,-3.6523,-3.6476,-3.6492,-3.6507,-3.6276,-3.5907,-3.5491,-3.5136,-3.4859,-4.4598,-4.4598,-4.4598,-4.4598,-4.4598,-4.4598,-4.4598,-4.4598,-4.4598,-4.4598,-4.4598,-4.4598,-4.4598,-4.4598,-4.4598,-4.4598,-4.4598,-4.4598,-4.4598,-4.4598,-4.4598,-4.4598,-4.4598,-4.4598,-4.4598,-4.4598,-4.4598,-4.4598,-4.4598,-4.4598,-4.4598,-4.4598,-4.4598,-4.4598,-4.4598,-4.4598,-4.4598,-4.4598,-4.4598,-4.4598,-4.4598,-4.4598,-4.4598,-4.4598,-4.4598,-4.4598,-4.4598,-4.4598,-4.4367,-4.4096,-4.369,-4.3318,-4.2997,-4.2658,-4.2472,-4.2439,-4.2455,-4.2236,-4.1863,-4.1187,-4.0595,-4.0146,-4.0113,-4.0163,-4.0282,-4.0146,-4.0037,-3.9825,-3.9806,-3.9671,-3.9547,-3.9461,-3.9454,-3.9269,-3.9013,-3.8653,-3.8363,-3.8011,-3.7745,-3.7782,-3.7707,-3.7751,-3.7722,-3.7693,-3.7415,-3.7238,-3.765,-3.8039,-3.8334,-3.853,-3.8684,-3.8821,-3.8832,-3.8849,-3.8821,-3.8618,-3.8367,-3.8026,-3.7709,-3.7474,-3.7296,-3.7605,-3.7751,-3.7533,-3.7222,-3.7058,-3.6892,-3.6662,-3.6569,-3.6523,-3.6476,-3.6338,-3.5953,-3.5506,-3.5321,-4.4598,-4.4598,-4.4598,-4.4598,-4.4598,-4.4598,-4.4598,-4.4598,-4.4598,-4.4598,-4.4598,-4.4598,-4.4598,-4.4598,-4.4598,-4.4598,-4.4598,-4.4598,-4.4598,-4.4598,-4.4598,-4.4598,-4.4598,-4.4598,-4.4598,-4.4598,-4.4598,-4.4598,-4.4598,-4.4598,-4.4598,-4.4598,-4.4598,-4.4598,-4.4598,-4.4598,-4.4598,-4.4598,-4.4598,-4.4598,-4.4598,-4.4598,-4.4598,-4.4598,-4.4598,-4.4598,-4.4598,-4.4598,-4.4598,-4.4395,-4.413,-4.3842,-4.3589,-4.3335,-4.3031,-4.299,-4.2946,-4.2878,-4.2506,-4.1931,-4.1322,-4.1044,-4.0882,-4.0874,-4.0756,-4.0739,-4.0924,-4.0857,-4.0789,-4.0739,-4.0722,-4.0796,-4.0847,-4.0781,-4.0265,-3.9928,-3.9823,-3.9573,-3.9275,-3.9098,-3.8893,-3.8597,-3.8553,-3.8497,-3.8371,-3.8173,-3.8339,-3.8739,-3.9092,-3.9226,-3.9226,-3.9375,-3.9454,-3.947,-3.9461,-3.9098,-3.8756,-3.8574,-3.8294,-3.8153,-3.8108,-3.8362,-3.8334,-3.7982,-3.7709,-3.749,-3.7178,-3.6861,-3.6662,-3.6492,-3.6476,-3.6445,-3.6368,-3.5999,-3.5937,-4.4598,-4.4598,-4.4598,-4.4598,-4.4598,-4.4598,-4.4598,-4.4598,-4.4598,-4.4598,-4.4598,-4.4598,-4.4598,-4.4598,-4.4598,-4.4598,-4.4598,-4.4598,-4.4598,-4.4598,-4.4598,-4.4598,-4.4598,-4.4598,-4.4598,-4.4598,-4.4598,-4.4598,-4.4598,-4.4598,-4.4598,-4.4598,-4.4598,-4.4598,-4.4598,-4.4598,-4.4598,-4.4598,-4.4598,-4.4598,-4.4598,-4.4598,-4.4598,-4.4598,-4.4598,-4.4598,-4.4598,-4.4598,-4.4598,-4.453,-4.4496,-4.4361,-4.4299,-4.4282,-4.4225,-4.4276,-4.4327,-4.4028,-4.3453,-4.2709,-4.2303,-4.1982,-4.1728,-4.183,-4.2066,-4.21,-4.1948,-4.1694,-4.1897,-4.2025,-4.2144,-4.2127,-4.2087,-4.195,-4.1429,-4.1188,-4.1094,-4.1022,-4.0696,-4.0558,-3.9939,-3.9458,-3.9401,-3.9357,-3.933,-3.9235,-3.9185,-3.9391,-3.9679,-3.9731,-3.9679,-3.9705,-3.9799,-3.9825,-3.9722,-3.9444,-3.9206,-3.9028,-3.8957,-3.8849,-3.8723,-3.8767,-3.8657,-3.8407,-3.821,-3.8026,-3.7519,-3.7013,-3.6952,-3.6892,-3.6554,-3.6476,-3.6476,-3.643,-3.6276,-4.4598,-4.4598,-4.4598,-4.4598,-4.4598,-4.4598,-4.4598,-4.4598,-4.4598,-4.4598,-4.4598,-4.4598,-4.4598,-4.4598,-4.4598,-4.4598,-4.4598,-4.4598,-4.4598,-4.4598,-4.4598,-4.4598,-4.4598,-4.4598,-4.4598,-4.4598,-4.4598,-4.4598,-4.4598,-4.4598,-4.4598,-4.4598,-4.4598,-4.4598,-4.4598,-4.4598,-4.4598,-4.4598,-4.4598,-4.4598,-4.4598,-4.4598,-4.4598,-4.4598,-4.4598,-4.4598,-4.4598,-4.4598,-4.4598,-4.4598,-4.4598,-4.4598,-4.4598,-4.4598,-4.4598,-4.4598,-4.4598,-4.453,-4.4215,-4.3836,-4.3284,-4.2777,-4.2439,-4.2455,-4.232,-4.2303,-4.2286,-4.2398,-4.256,-4.2535,-4.2368,-4.2411,-4.2439,-4.2534,-4.2291,-4.2291,-4.223,-4.2194,-4.2064,-4.2057,-4.1691,-4.1375,-4.1218,-4.0698,-4.0507,-4.0277,-4.0201,-3.9865,-3.9995,-3.9978,-3.9952,-3.9969,-4.002,-4.0045,-3.9969,-3.9747,-3.967,-3.9575,-3.9627,-3.9705,-3.9549,-3.9295,-3.9348,-3.9295,-3.8947,-3.8562,-3.8112,-3.7679,-3.749,-3.7298,-3.6922,-3.6585,-3.6492,-3.6476,-3.6445,-4.4598,-4.4598,-4.4598,-4.4598,-4.4598,-4.4598,-4.4598,-4.4598,-4.4598,-4.4598,-4.4598,-4.4598,-4.4598,-4.4598,-4.4598,-4.4598,-4.4598,-4.4598,-4.4598,-4.4598,-4.4598,-4.4598,-4.4598,-4.4598,-4.4598,-4.4598,-4.4598,-4.4598,-4.4598,-4.4598,-4.4598,-4.4598,-4.4598,-4.4598,-4.4598,-4.4598,-4.4598,-4.4598,-4.4598,-4.4598,-4.4598,-4.4598,-4.4598,-4.4598,-4.4598,-4.4598,-4.4598,-4.4598,-4.4598,-4.4598,-4.4598,-4.4598,-4.4598,-4.4598,-4.4598,-4.4598,-4.4598,-4.4598,-4.453,-4.4513,-4.3938,-4.3379,-4.3098,-4.3135,-4.3162,-4.3342,-4.3379,-4.3345,-4.3175,-4.3229,-4.3291,-4.3284,-4.332,-4.3467,-4.3484,-4.3475,-4.3588,-4.3543,-4.3473,-4.3484,-4.3184,-4.303,-4.2739,-4.2278,-4.1766,-4.1452,-4.1172,-4.0781,-4.0306,-4.0213,-4.0196,-4.0196,-4.0213,-4.0238,-4.0213,-4.0121,-4.007,-4.0096,-4.0138,-4.0121,-4.0045,-3.9747,-3.9969,-4.002,-3.9418,-3.892,-3.8712,-3.8435,-3.7969,-3.7549,-3.7148,-3.6831,-3.6585,-3.6492,-3.6492,-4.4598,-4.4598,-4.4598,-4.4598,-4.4598,-4.4598,-4.4598,-4.4598,-4.4598,-4.4598,-4.4598,-4.4598,-4.4598,-4.4598,-4.4598,-4.4598,-4.4598,-4.4598,-4.4598,-4.4598,-4.4598,-4.4598,-4.4598,-4.4598,-4.4598,-4.4598,-4.4598,-4.4598,-4.4598,-4.4598,-4.4598,-4.4598,-4.4598,-4.4598,-4.4598,-4.4598,-4.4598,-4.4598,-4.4598,-4.4598,-4.4598,-4.4598,-4.4598,-4.4598,-4.4598,-4.4598,-4.4598,-4.4598,-4.4598,-4.4598,-4.4598,-4.4598,-4.4598,-4.4598,-4.4598,-4.4598,-4.4598,-4.4626,-4.4626,-4.4626,-4.4648,-4.4258,-4.4383,-4.4608,-4.4533,-4.4351,-4.4293,-4.4409,-4.4402,-4.4626,-4.4783,-4.4759,-4.4717,-4.4778,-4.4778,-4.4866,-4.4989,-4.4963,-4.4866,-4.4651,-4.4204,-4.3886,-4.3433,-4.3039,-4.2783,-4.2561,-4.2151,-4.1475,-4.0998,-4.0446,-4.0429,-4.0395,-4.0412,-4.0387,-4.0362,-4.0313,-4.0288,-4.0263,-4.0196,-4.0196,-4.0146,-4.0138,-4.0138,-3.9995,-3.9592,-3.9286,-3.9189,-3.8794,-3.821,-3.7825,-3.7431,-3.6952,-3.6631,-3.6523,-3.6492,-4.4598,-4.4598,-4.4598,-4.4598,-4.4598,-4.4598,-4.4598,-4.4598,-4.4598,-4.4598,-4.4598,-4.4598,-4.4598,-4.4598,-4.4598,-4.4598,-4.4598,-4.4598,-4.4598,-4.4598,-4.4598,-4.4598,-4.4598,-4.4598,-4.4598,-4.4598,-4.4598,-4.4598,-4.4598,-4.4598,-4.4598,-4.4598,-4.4598,-4.4598,-4.4598,-4.4598,-4.4598,-4.4598,-4.4598,-4.4598,-4.4598,-4.4598,-4.4598,-4.4598,-4.4598,-4.4598,-4.4598,-4.4598,-4.4598,-4.4598,-4.4598,-4.4615,-4.4598,-4.4598,-4.4598,-4.4598,-4.4682,-4.4765,-4.4765,-4.4848,-4.4858,-4.4858,-4.4858,-4.4831,-4.4814,-4.4831,-4.4886,-4.4995,-4.5076,-4.5086,-4.5113,-4.5167,-4.5194,-4.522,-4.522,-4.5291,-4.5371,-4.5344,-4.5264,-4.5178,-4.4747,-4.4635,-4.4163,-4.3889,-4.3666,-4.352,-4.3117,-4.2395,-4.1707,-4.1128,-4.0634,-4.06,-4.0558,-4.0534,-4.0485,-4.0436,-4.0436,-4.0412,-4.0362,-4.0313,-4.0263,-4.0238,-4.0188,-4.0045,-3.9825,-3.9773,-3.9773,-3.9242,-3.8562,-3.8124,-3.7693,-3.7163,-3.6723,-3.6585,-3.6492,-4.4598,-4.4598,-4.4598,-4.4598,-4.4598,-4.4598,-4.4598,-4.4598,-4.4598,-4.4598,-4.4598,-4.4598,-4.4598,-4.4598,-4.4598,-4.4598,-4.4598,-4.4598,-4.4598,-4.4598,-4.4598,-4.4598,-4.4598,-4.4598,-4.4598,-4.4598,-4.4598,-4.4598,-4.4598,-4.4598,-4.4598,-4.4598,-4.4598,-4.4598,-4.4598,-4.4598,-4.4598,-4.4598,-4.4598,-4.4598,-4.4598,-4.4598,-4.4598,-4.4598,-4.4598,-4.4626,-4.4682,-4.4682,-4.4692,-4.472,-4.4765,-4.4748,-4.4748,-4.4748,-4.4748,-4.4776,-4.4831,-4.4886,-4.4886,-4.494,-4.4995,-4.5022,-4.5022,-4.5005,-4.4978,-4.5022,-4.5103,-4.5184,-4.5184,-4.5211,-4.5264,-4.5291,-4.5327,-4.538,-4.5397,-4.5414,-4.5414,-4.5414,-4.5397,-4.5371,-4.5292,-4.5249,-4.5016,-4.4741,-4.4578,-4.4423,-4.4019,-4.3286,-4.2528,-4.1808,-4.1181,-4.0796,-4.0738,-4.068,-4.0631,-4.0583,-4.0534,-4.051,-4.0461,-4.0412,-4.0387,-4.0362,-4.0337,-4.0288,-4.0213,-4.0121,-4.0045,-3.954,-3.8936,-3.8463,-3.7966,-3.7474,-3.6937,-3.6554,-3.6492,-4.4626,-4.4598,-4.4598,-4.4598,-4.4598,-4.4598,-4.4598,-4.4598,-4.4598,-4.4598,-4.4598,-4.4598,-4.4598,-4.4598,-4.4598,-4.4598,-4.4598,-4.4598,-4.4598,-4.4598,-4.4598,-4.4598,-4.4598,-4.4598,-4.4598,-4.4598,-4.4598,-4.4598,-4.4598,-4.4598,-4.4598,-4.4598,-4.4598,-4.4598,-4.4598,-4.4598,-4.4598,-4.4598,-4.4598,-4.4598,-4.4598,-4.4598,-4.4598,-4.4643,-4.4671,-4.4709,-4.4776,-4.4831,-4.4869,-4.4951,-4.4978,-4.4978,-4.4951,-4.4968,-4.4968,-4.4978,-4.4978,-4.5005,-4.5032,-4.5059,-4.5059,-4.5076,-4.5049,-4.5113,-4.514,-4.514,-4.5167,-4.5264,-4.5291,-4.5291,-4.5344,-4.5344,-4.5371,-4.5397,-4.5397,-4.5414,-4.5414,-4.5414,-4.5414,-4.5397,-4.5371,-4.5344,-4.531,-4.5017,-4.4983,-4.507,-4.4828,-4.4113,-4.3302,-4.2502,-4.1674,-4.1037,-4.0834,-4.0776,-4.0728,-4.0721,-4.0673,-4.0624,-4.0583,-4.0534,-4.0527,-4.051,-4.051,-4.0412,-4.0313,-4.0305,-4.0138,-3.9592,-3.9125,-3.8712,-3.8222,-3.7751,-3.7296,-3.6937,-3.6785,-4.4934,-4.4615,-4.4598,-4.4598,-4.4598,-4.4598,-4.4598,-4.4598,-4.4598,-4.4598,-4.4598,-4.4598,-4.4598,-4.4598,-4.4598,-4.4598,-4.4598,-4.4598,-4.4598,-4.4598,-4.4598,-4.4598,-4.4598,-4.4598,-4.4598,-4.4598,-4.4598,-4.4598,-4.4598,-4.4598,-4.4598,-4.4598,-4.4598,-4.4615,-4.4626,-4.4626,-4.4626,-4.4654,-4.4654,-4.4654,-4.4654,-4.4709,-4.4765,-4.4793,-4.4831,-4.4886,-4.4968,-4.4951,-4.4951,-4.5005,-4.5005,-4.5022,-4.5022,-4.5022,-4.5022,-4.5022,-4.5113,-4.514,-4.5167,-4.5238,-4.5264,-4.5291,-4.5291,-4.5318,-4.5318,-4.5247,-4.5247,-4.5344,-4.5414,-4.5414,-4.5414,-4.5414,-4.5414,-4.5414,-4.5414,-4.5414,-4.5397,-4.5363,-4.5363,-4.5345,-4.5363,-4.5345,-4.5328,-4.5397,-4.5414,-4.5363,-4.5311,-4.4837,-4.4,-4.313,-4.1957,-4.1319,-4.0957,-4.0847,-4.0823,-4.0817,-4.0769,-4.0793,-4.0752,-4.0704,-4.0673,-4.0631,-4.0583,-4.0485,-4.0404,-4.0379,-4.0163,-3.9618,-3.9162,-3.8876,-3.8629,-3.8165,-3.808,-3.7809,-3.7533,-4.5152,-4.4889,-4.4682,-4.4598,-4.4598,-4.4598,-4.4598,-4.4598,-4.4598,-4.4598,-4.4598,-4.4598,-4.4598,-4.4598,-4.4598,-4.4598,-4.4598,-4.4598,-4.4598,-4.4598,-4.4598,-4.4598,-4.4598,-4.4598,-4.4598,-4.4598,-4.4598,-4.4598,-4.4598,-4.4598,-4.4598,-4.4598,-4.4615,-4.4643,-4.4654,-4.4682,-4.4709,-4.4793,-4.4765,-4.4765,-4.4765,-4.4803,-4.4858,-4.4896,-4.4951,-4.5032,-4.5086,-4.5086,-4.514,-4.514,-4.5211,-4.5211,-4.5211,-4.5194,-4.5194,-4.5194,-4.5247,-4.53,-4.53,-4.5371,-4.5414,-4.5414,-4.5414,-4.5371,-4.5371,-4.5318,-4.53,-4.5397,-4.5414,-4.5414,-4.5414,-4.5414,-4.5414,-4.5414,-4.5414,-4.5414,-4.5207,-4.5027,-4.4923,-4.4785,-4.4785,-4.4785,-4.4906,-4.5276,-4.5311,-4.5414,-4.5397,-4.4889,-4.4147,-4.3603,-4.2465,-4.1567,-4.1188,-4.0946,-4.0871,-4.0871,-4.0847,-4.0871,-4.0894,-4.0847,-4.0793,-4.0728,-4.068,-4.0607,-4.0534,-4.0436,-4.0146,-3.9705,-3.9365,-3.9082,-3.8876,-3.8657,-3.864,-3.8668,-3.8557,-4.5537,-4.5433,-4.4998,-4.4803,-4.4759,-4.472,-4.472,-4.4692,-4.4626,-4.4598,-4.4598,-4.4598,-4.4598,-4.4598,-4.4598,-4.4598,-4.4598,-4.4598,-4.4598,-4.4598,-4.4598,-4.4598,-4.4598,-4.4598,-4.4598,-4.4598,-4.4598,-4.4598,-4.4598,-4.4626,-4.4654,-4.4615,-4.4643,-4.4682,-4.4765,-4.4803,-4.4831,-4.4913,-4.4968,-4.4978,-4.4951,-4.4896,-4.4951,-4.5005,-4.5059,-4.5113,-4.5194,-4.5247,-4.53,-4.5327,-4.5344,-4.5344,-4.5344,-4.5344,-4.5344,-4.5371,-4.5344,-4.5371,-4.5397,-4.5397,-4.5414,-4.5414,-4.5414,-4.5414,-4.5414,-4.5397,-4.5397,-4.5397,-4.5397,-4.5414,-4.5414,-4.5414,-4.5414,-4.5414,-4.5414,-4.5414,-4.513,-4.4785,-4.4552,-4.4363,-4.4363,-4.438,-4.4613,-4.5027,-4.5276,-4.538,-4.5121,-4.4492,-4.3966,-4.3534,-4.2792,-4.193,-4.1343,-4.1136,-4.0946,-4.0894,-4.0894,-4.0894,-4.0894,-4.0894,-4.0871,-4.0823,-4.0799,-4.0799,-4.0704,-4.0534,-4.0296,-3.9978,-3.9627,-3.9418,-3.9454,-3.9428,-3.9332,-3.9411,-3.9542,-4.6595,-4.6548,-4.6035,-4.5792,-4.5716,-4.5346,-4.5161,-4.5115,-4.4786,-4.4598,-4.4654,-4.4598,-4.4598,-4.4598,-4.4598,-4.4598,-4.4598,-4.4598,-4.4598,-4.4598,-4.4598,-4.4598,-4.4598,-4.4598,-4.4598,-4.4598,-4.4598,-4.4598,-4.4598,-4.4682,-4.4709,-4.4615,-4.4737,-4.4793,-4.4793,-4.4831,-4.4896,-4.5005,-4.5059,-4.5059,-4.514,-4.514,-4.5123,-4.5177,-4.5274,-4.5318,-4.5371,-4.5371,-4.5353,-4.5397,-4.5414,-4.5414,-4.5414,-4.5414,-4.5414,-4.5414,-4.5414,-4.5414,-4.5414,-4.5414,-4.5414,-4.5414,-4.5414,-4.5414,-4.5414,-4.5414,-4.5397,-4.5397,-4.5414,-4.5414,-4.5414,-4.5414,-4.5414,-4.5414,-4.5414,-4.5414,-4.5259,-4.4785,-4.4397,-4.4328,-4.4328,-4.4345,-4.4414,-4.4854,-4.5345,-4.5414,-4.5414,-4.4854,-4.4509,-4.3845,-4.3034,-4.2275,-4.1516,-4.117,-4.0894,-4.0894,-4.0894,-4.0894,-4.0894,-4.0894,-4.0894,-4.0894,-4.0871,-4.0871,-4.0752,-4.0541,-4.0345,-4.0196,-4.0171,-4.0028,-4.0221,-4.0246,-4.0104,-4.0037,-4.0087]},{"header":{"parameterUnit":"m.s-1","parameterCategory":1,"la1":31.0,"la2":29.5877,"lo1":-88.7671,"lo2":-86.6584,"dy":0.0162,"dx":0.0185,"nx":115,"ny":88,"refTime":"2023-06-29T06:00:00:Z","depth":0,"parameterNumber":3,"parameterNumberName":"V-component_of_WINDS"},"data":[0.0,0.0,0.0,0.0,0.0,0.0,0.0,0.0,0.0,0.0,0.0,0.0,0.0,0.0,0.0,0.0,0.0,0.0,0.0,0.0,0.0,0.0,0.0,0.0,0.0,0.0,0.0,0.0,0.0,0.0,0.0,0.0,0.0,0.0,0.0,0.0,0.0,0.0,0.0,0.0,0.0,0.0,0.0,0.0,0.0,0.0,0.0,0.0,0.0,0.0,0.0,0.0,0.0,0.0,0.0,0.0,0.0,0.0,0.0,0.0,0.0,0.0,0.0,0.0,0.0,0.0,0.0,0.0,0.0,0.0,0.0,0.0,0.0,0.0,0.0,0.0,0.0,0.0,0.0,0.0,0.0,0.0,0.0,0.0,0.0,0.0,0.0,0.0,0.0,0.0,0.0,0.0,0.0,0.0,0.0,0.0,0.0,0.0,0.0,0.0,0.0,0.0,0.0,0.0,0.0,0.0,0.0,0.0,0.0,0.0,0.0,0.0,0.0,0.0,0.0,0.0,0.0,0.0,0.0,0.0,0.0,0.0,0.0,0.0,0.0,0.0,0.0,0.0,0.0,0.0,0.0,0.0,0.0,0.0,0.0,0.0,0.0,0.0,0.0,0.0,0.0,0.0,0.0,0.0,0.0,0.0,0.0,0.0,0.0,0.0,0.0,0.0,0.0,0.0,0.0,0.0,0.0,0.0,0.0,0.0,0.0,0.0,0.0,0.0,0.0,0.0,0.0,0.0,0.0,0.0,0.0,0.0,0.0,0.0,0.0,0.0,0.0,0.0,0.0,0.0,0.0,0.0,0.0,0.0,0.0,0.0,0.0,0.0,0.0,0.0,0.0,0.0,0.0,0.0,0.0,0.0,0.0,0.0,0.0,0.0,0.0,0.0,0.0,0.0,0.0,0.0,0.0,0.0,0.0,0.0,0.0,0.0,0.0,0.0,0.0,0.0,0.0,0.0,0.0,0.0,0.0,0.0,0.0,0.0,0.0,0.0,0.0,0.0,0.0,0.0,0.0,0.0,0.0,0.0,0.0,0.0,0.0,0.0,0.0,0.0,0.0,0.0,0.0,0.0,0.0,0.0,0.0,0.0,0.0,0.0,0.0,0.0,0.0,0.0,0.0,0.0,0.0,0.0,0.0,0.0,0.0,0.0,0.0,0.0,0.0,0.0,0.0,0.0,0.0,0.0,0.0,0.0,0.0,0.0,0.0,0.0,0.0,0.0,0.0,0.0,0.0,0.0,0.0,0.0,0.0,0.0,0.0,0.0,0.0,0.0,0.0,0.0,0.0,0.0,0.0,0.0,0.0,0.0,0.0,0.0,0.0,0.0,0.0,0.0,0.0,0.0,0.0,0.0,0.0,0.0,0.0,0.0,0.0,0.0,0.0,0.0,0.0,0.0,0.0,0.0,0.0,0.0,0.0,0.0,0.0,0.0,0.0,0.0,0.0,0.0,0.0,0.0,0.0,0.0,0.0,0.0,0.0,0.0,0.0,0.0,0.0,0.0,0.0,0.0,0.0,0.0,0.0,0.0,0.0,0.0,0.0,0.0,0.0,0.0,0.0,0.0,0.0,0.0,0.0,0.0,0.0,0.0,0.0,0.0,0.0,0.0,0.0,0.0,0.0,0.0,0.0,0.0,0.0,0.0,0.0,0.0,0.0,0.0,0.0,0.0,0.0,0.0,0.0,0.0,0.0,0.0,0.0,0.0,0.0,0.0,0.0,0.0,0.0,0.0,0.0,0.0,0.0,0.0,0.0,0.0,0.0,0.0,0.0,0.0,0.0,0.0,0.0,0.0,0.0,0.0,0.0,0.0,0.0,0.0,0.0,0.0,0.0,0.0,0.0,0.0,0.0,0.0,0.0,0.0,0.0,0.0,0.0,0.0,0.0,0.0,0.0,0.0,0.0,0.0,0.0,0.0,0.0,0.0,0.0,0.0,0.0,0.0,0.0,0.0,0.0,0.0,0.0,0.0,0.0,0.0,0.0,0.0,0.0,0.0,0.0,0.0,0.0,0.0,0.0,0.0,0.0,0.0,0.0,0.0,0.0,0.0,0.0,0.0,0.0,0.0,0.0,0.0,0.0,0.0,0.0,0.0,0.0,0.0,0.0,0.0,0.0,0.0,0.0,0.0,0.0,0.0,0.0,0.0,0.0,0.0,0.0,0.0,0.0,0.0,0.0,0.0,0.0,0.0,0.0,0.0,0.0,0.0,0.0,0.0,0.0,0.0,0.0,0.0,0.0,0.0,0.0,0.0,0.0,0.0,0.0,0.0,0.0,0.0,0.0,0.0,0.0,0.0,0.0,0.0,0.0,0.0,0.0,0.0,0.0,0.0,0.0,0.0,0.0,0.0,0.0,0.0,0.0,0.0,0.0,0.0,0.0,0.0,0.0,0.0,0.0,0.0,0.0,0.0,0.0,0.0,0.0,0.0,0.0,0.0,0.0,0.0,0.0,0.0,0.0,0.0,0.0,0.0,0.0,0.0,0.0,0.0,0.0,0.0,0.0,0.0,0.0,0.0,0.0,0.0,0.0,0.0,0.0,0.0,0.0,0.0,0.0,0.0,0.0,0.0,0.0,0.0,0.0,0.0,0.0,0.0,0.0,0.0,0.0,0.0,0.0,0.0,0.0,0.0,0.0,0.0,0.0,0.0,0.0,0.0,0.0,0.0,0.0,0.0,0.0,0.0,0.0,0.0,0.0,0.0,0.0,0.0,0.0,0.0,0.0,0.0,0.0,0.0,0.0,0.0,0.0,0.0,0.0,0.0,0.0,0.0,0.0,0.0,0.0,0.0,0.0,0.0,0.0,0.0,0.0,0.0,0.0,0.0,0.0,0.0,0.0,0.0,0.0,0.0,0.0,0.0,0.0,0.0,0.0,0.0,0.0,0.0,0.0,0.0,0.0,0.0,0.0,0.0,0.0,0.0,0.0,0.0,0.0,0.0,0.0,0.0,0.0,0.0,0.0,0.0,0.0,0.0,0.0,0.0,0.0,0.0,0.0,0.0,0.0,0.0,0.0,0.0,0.0,0.0,0.0,0.0,0.0,0.0,0.0,0.0,0.0,0.0,0.0,0.0,0.0,0.0,0.0,0.0,0.0,0.0,0.0,0.0,0.0,0.0,0.0,0.0,0.0,0.0,0.0,0.0,0.0,0.0,0.0,0.0,0.0,0.0,0.0,0.0,0.0,0.0,0.0,0.0,0.0,0.0,0.0,0.0,0.0,0.0,0.0,0.0,0.0,0.0,0.0,0.0,0.0,0.0,0.0,0.0,0.0,0.0,0.0,0.0,0.0,0.0,0.0,0.0,0.0,0.0,0.0,0.0,0.0,0.0,0.0,0.0,0.0,0.0,0.0,0.0,0.0,0.0,0.0,0.0,0.0,0.0,0.0,0.0,0.0,0.0,0.0,0.0,0.0,0.0,0.0,0.0,0.0,0.0,0.0,0.0,0.0,0.0,0.0,0.0,0.0,0.0,0.0,0.0,0.0,0.0,0.0,0.0,0.0,0.0,0.0,0.0,0.0,0.0,0.0,0.0,0.0,0.0,0.0,0.0,0.0,0.0,0.0,0.0,0.0,0.0,0.0,0.0,0.0,0.0,0.0,0.0,0.0,0.0,0.0,0.0,0.0,0.0,0.0,0.0,0.0,0.0,0.0,0.0,0.0,0.0,0.0,0.0,0.0,0.0,0.0,0.0,0.0,0.0,0.0,0.0,0.0,0.0,0.0,0.0,0.0,0.0,0.0,0.0,0.0,0.0,0.0,0.0,0.0,0.0,0.0,0.0,0.0,0.0,0.0,0.0,0.0,0.0,0.0,0.0,0.0,0.0,0.0,0.0,0.0,0.0,0.0,0.0,0.0,0.0,0.0,0.0,0.0,0.0,0.0,0.0,0.0,0.0,0.0,0.0,0.0,0.0,0.0,0.0,0.0,0.0,0.0,0.0,0.0,0.0,0.0,0.0,0.0,0.0,0.0,0.0,0.0,0.0,0.0,0.0,0.0,0.0,0.0,0.0,0.0,0.0,0.0,0.0,0.0,0.0,0.0,0.0,0.0,0.0,0.0,0.0,0.0,0.0,0.0,0.0,0.0,0.0,0.0,0.0,0.0,0.0,0.0,0.0,0.0,0.0,0.0,0.0,0.0,0.0,0.0,0.0,0.0,0.0,0.0,0.0,0.0,0.0,0.0,0.0,0.0,0.0,0.0,0.0,0.0,0.0,0.0,0.0,0.0,0.0,0.0,0.0,0.0,0.0,0.0,0.0,-0.9664,0.0,0.0,0.0,0.0,0.0,0.0,0.0,0.0,0.0,0.0,0.0,0.0,0.0,0.0,0.0,0.0,0.0,0.0,0.0,0.0,0.0,0.0,0.0,0.0,0.0,0.0,0.0,0.0,0.0,0.0,0.0,0.0,0.0,0.0,0.0,0.0,0.0,0.0,0.0,0.0,0.0,0.0,0.0,0.0,0.0,0.0,0.0,0.0,0.0,0.0,0.0,0.0,0.0,0.0,0.0,0.0,0.0,0.0,0.0,0.0,0.0,0.0,0.0,0.0,0.0,0.0,0.0,0.0,0.0,0.0,0.0,0.0,0.0,0.0,0.0,0.0,0.0,0.0,0.0,0.0,0.0,0.0,0.0,0.0,0.0,0.0,0.0,0.0,0.0,0.0,0.0,0.0,0.0,0.0,0.0,0.0,0.0,0.0,0.0,0.0,0.0,0.0,0.0,0.0,0.0,0.0,0.0,0.0,0.0,0.0,-1.0126,-0.9538,-0.9486,-0.9513,-0.9587,0.0,0.0,0.0,0.0,0.0,0.0,0.0,0.0,0.0,0.0,0.0,0.0,0.0,0.0,0.0,0.0,0.0,0.0,0.0,0.0,0.0,0.0,0.0,0.0,0.0,0.0,0.0,0.0,0.0,0.0,0.0,0.0,0.0,0.0,0.0,0.0,0.0,0.0,0.0,0.0,0.0,0.0,0.0,0.0,0.0,0.0,0.0,0.0,0.0,0.0,0.0,0.0,0.0,0.0,0.0,0.0,0.0,0.0,0.0,0.0,0.0,0.0,0.0,0.0,0.0,0.0,0.0,0.0,0.0,0.0,0.0,0.0,0.0,0.0,0.0,0.0,0.0,0.0,0.0,0.0,0.0,0.0,0.0,0.0,0.0,0.0,0.0,0.0,0.0,0.0,0.0,0.0,0.0,0.0,0.0,0.0,0.0,0.0,0.0,0.0,0.0,0.0,0.0,0.0,0.0,0.0,0.0,0.0,0.0,0.0,0.0,0.0,-0.9828,-0.9739,-0.9643,0.0,0.0,0.0,0.0,0.0,0.0,0.0,0.0,0.0,0.0,0.0,0.0,0.0,0.0,0.0,0.0,0.0,0.0,0.0,0.0,0.0,0.0,0.0,0.0,0.0,0.0,0.0,0.0,0.0,0.0,0.0,0.0,0.0,0.0,0.0,0.0,0.0,0.0,0.0,0.0,0.0,0.0,0.0,0.0,0.0,0.0,0.0,0.0,0.0,0.0,0.0,0.0,0.0,0.0,0.0,0.0,0.0,0.0,0.0,0.0,0.0,0.0,0.0,0.0,0.0,0.0,0.0,0.0,0.0,0.0,0.0,0.0,0.0,0.0,0.0,0.0,0.0,0.0,0.0,0.0,0.0,0.0,0.0,0.0,0.0,0.0,0.0,0.0,0.0,0.0,0.0,0.0,0.0,0.0,0.0,0.0,0.0,0.0,0.0,0.0,0.0,0.0,0.0,0.0,0.0,0.0,0.0,0.0,0.0,0.0,-1.1625,-1.0543,-1.0462,0.0,-0.9733,0.0,0.0,0.0,0.0,0.0,0.0,0.0,0.0,0.0,0.0,0.0,0.0,0.0,0.0,0.0,0.0,0.0,0.0,0.0,0.0,0.0,0.0,0.0,0.0,0.0,0.0,0.0,0.0,0.0,0.0,0.0,0.0,0.0,0.0,0.0,0.0,0.0,0.0,0.0,0.0,0.0,0.0,0.0,0.0,0.0,0.0,0.0,0.0,0.0,0.0,0.0,0.0,0.0,0.0,0.0,0.0,0.0,0.0,0.0,0.0,0.0,0.0,0.0,0.0,0.0,0.0,0.0,0.0,0.0,0.0,0.0,0.0,0.0,0.0,0.0,0.0,0.0,0.0,0.0,0.0,0.0,0.0,0.0,0.0,0.0,0.0,0.0,0.0,0.0,0.0,0.0,0.0,0.0,0.0,0.0,0.0,0.0,0.0,0.0,0.0,0.0,0.0,0.0,0.0,0.0,0.0,0.0,0.0,0.0,0.0,-1.2768,-1.1976,-1.1947,-1.1673,0.0,0.0,0.0,0.0,0.0,0.0,0.0,0.0,0.0,0.0,0.0,0.0,0.0,0.0,0.0,0.0,0.0,0.0,0.0,0.0,0.0,0.0,0.0,0.0,0.0,0.0,0.0,0.0,0.0,0.0,0.0,0.0,0.0,0.0,0.0,0.0,0.0,0.0,0.0,0.0,0.0,0.0,0.0,0.0,0.0,0.0,0.0,0.0,0.0,0.0,0.0,0.0,0.0,0.0,0.0,0.0,0.0,0.0,0.0,0.0,0.0,0.0,0.0,0.0,0.0,0.0,0.0,0.0,0.0,0.0,0.0,0.0,0.0,0.0,0.0,0.0,0.0,0.0,0.0,0.0,0.0,0.0,0.0,0.0,0.0,0.0,0.0,0.0,0.0,0.0,0.0,0.0,0.0,0.0,0.0,0.0,0.0,0.0,0.0,0.0,0.0,0.0,0.0,0.0,0.0,0.0,0.0,0.0,0.0,0.0,-1.4032,-1.3668,-1.3135,-1.2952,-1.2638,-1.2111,0.0,0.0,0.0,0.0,0.0,0.0,0.0,0.0,0.0,0.0,0.0,0.0,0.0,0.0,0.0,0.0,0.0,0.0,0.0,0.0,0.0,0.0,0.0,0.0,0.0,0.0,0.0,0.0,0.0,0.0,0.0,0.0,0.0,0.0,0.0,0.0,0.0,0.0,0.0,0.0,0.0,0.0,0.0,0.0,0.0,0.0,0.0,0.0,0.0,0.0,0.0,0.0,0.0,0.0,0.0,0.0,0.0,0.0,0.0,0.0,0.0,0.0,0.0,0.0,0.0,0.0,0.0,0.0,0.0,0.0,0.0,0.0,0.0,0.0,0.0,0.0,0.0,0.0,0.0,0.0,0.0,0.0,0.0,0.0,0.0,0.0,0.0,0.0,0.0,0.0,0.0,0.0,0.0,0.0,0.0,0.0,0.0,0.0,0.0,0.0,0.0,0.0,0.0,0.0,0.0,0.0,0.0,0.0,-1.4871,-1.467,-1.4256,-1.3636,-1.3154,-1.2663,0.0,0.0,0.0,0.0,0.0,0.0,0.0,0.0,0.0,0.0,0.0,0.0,0.0,0.0,0.0,0.0,0.0,0.0,0.0,0.0,0.0,0.0,0.0,0.0,0.0,0.0,0.0,0.0,0.0,0.0,0.0,0.0,0.0,0.0,0.0,0.0,0.0,0.0,0.0,0.0,0.0,0.0,0.0,0.0,0.0,0.0,0.0,0.0,0.0,0.0,0.0,0.0,0.0,0.0,0.0,0.0,0.0,0.0,0.0,0.0,0.0,0.0,0.0,0.0,0.0,0.0,0.0,0.0,0.0,0.0,0.0,0.0,0.0,0.0,0.0,0.0,0.0,0.0,0.0,0.0,0.0,0.0,0.0,0.0,0.0,0.0,0.0,0.0,0.0,0.0,0.0,0.0,0.0,0.0,0.0,0.0,0.0,0.0,0.0,0.0,0.0,0.0,0.0,0.0,0.0,0.0,0.0,0.0,0.0,-1.5881,-1.564,-1.5344,-1.5004,-1.4844,-1.4542,0.0,0.0,0.0,0.0,0.0,0.0,0.0,0.0,0.0,0.0,0.0,0.0,0.0,0.0,0.0,0.0,0.0,0.0,0.0,0.0,0.0,0.0,0.0,0.0,0.0,0.0,0.0,0.0,0.0,0.0,0.0,0.0,0.0,0.0,0.0,0.0,0.0,0.0,0.0,0.0,0.0,0.0,0.0,0.0,0.0,0.0,0.0,0.0,0.0,0.0,0.0,0.0,0.0,0.0,0.0,0.0,0.0,0.0,0.0,0.0,0.0,0.0,0.0,0.0,0.0,0.0,0.0,0.0,0.0,0.0,0.0,0.0,0.0,0.0,0.0,0.0,0.0,0.0,0.0,0.0,0.0,0.0,0.0,0.0,0.0,0.0,0.0,0.0,0.0,0.0,0.0,0.0,0.0,0.0,0.0,0.0,0.0,0.0,0.0,0.0,0.0,0.0,0.0,0.0,0.0,0.0,0.0,0.0,0.0,-1.6102,0.0,-1.5753,-1.5802,-1.5814,-1.5596,0.0,0.0,0.0,0.0,0.0,0.0,0.0,0.0,0.0,0.0,0.0,0.0,0.0,0.0,0.0,0.0,0.0,0.0,0.0,0.0,0.0,0.0,0.0,0.0,0.0,0.0,0.0,0.0,0.0,0.0,0.0,0.0,0.0,0.0,0.0,0.0,0.0,0.0,0.0,0.0,0.0,0.0,0.0,0.0,0.0,0.0,0.0,0.0,0.0,0.0,0.0,0.0,0.0,0.0,0.0,0.0,0.0,0.0,0.0,0.0,0.0,0.0,0.0,0.0,0.0,0.0,0.0,0.0,0.0,0.0,0.0,0.0,0.0,0.0,0.0,0.0,0.0,0.0,0.0,0.0,0.0,0.0,0.0,0.0,0.0,0.0,0.0,0.0,0.0,0.0,0.0,0.0,0.0,0.0,0.0,0.0,0.0,0.0,0.0,0.0,0.0,0.0,0.0,0.0,0.0,0.0,0.0,0.0,-1.544,-1.5393,-1.5248,-1.5366,-1.5766,-1.5732,-1.5516,0.0,0.0,0.0,0.0,0.0,0.0,0.0,0.0,0.0,0.0,0.0,0.0,0.0,0.0,0.0,0.0,0.0,0.0,0.0,0.0,0.0,0.0,0.0,0.0,0.0,0.0,0.0,0.0,0.0,0.0,0.0,0.0,0.0,0.0,0.0,0.0,0.0,0.0,0.0,0.0,0.0,0.0,0.0,0.0,0.0,0.0,0.0,0.0,0.0,0.0,0.0,0.0,0.0,0.0,0.0,0.0,0.0,0.0,0.0,0.0,0.0,0.0,0.0,0.0,0.0,0.0,0.0,0.0,0.0,0.0,0.0,0.0,0.0,0.0,0.0,0.0,0.0,0.0,0.0,0.0,0.0,0.0,0.0,0.0,0.0,0.0,0.0,0.0,0.0,0.0,0.0,0.0,0.0,0.0,0.0,0.0,0.0,0.0,0.0,0.0,0.0,0.0,0.0,0.0,0.0,0.0,0.0,0.0,0.0,-1.4911,-1.4823,-1.4797,-1.4821,-1.4804,-1.4838,0.0,0.0,0.0,0.0,0.0,0.0,0.0,0.0,0.0,0.0,0.0,0.0,0.0,0.0,0.0,0.0,0.0,0.0,0.0,0.0,0.0,0.0,0.0,0.0,0.0,0.0,0.0,0.0,0.0,0.0,0.0,0.0,0.0,0.0,0.0,0.0,0.0,0.0,0.0,0.0,0.0,0.0,0.0,0.0,0.0,0.0,0.0,0.0,0.0,0.0,0.0,0.0,0.0,0.0,0.0,0.0,0.0,0.0,0.0,0.0,0.0,0.0,0.0,0.0,0.0,0.0,0.0,0.0,0.0,0.0,0.0,0.0,0.0,0.0,0.0,0.0,0.0,0.0,0.0,0.0,0.0,0.0,0.0,0.0,0.0,0.0,0.0,0.0,0.0,0.0,0.0,0.0,0.0,0.0,0.0,0.0,0.0,0.0,0.0,0.0,0.0,0.0,0.0,0.0,0.0,0.0,0.0,0.0,0.0,-1.4754,-1.5031,-1.5183,-1.522,-1.4988,-1.4898,-1.4989,0.0,0.0,0.0,0.0,0.0,0.0,0.0,0.0,0.0,0.0,0.0,0.0,0.0,0.0,0.0,0.0,0.0,0.0,0.0,0.0,0.0,0.0,0.0,0.0,0.0,0.0,0.0,0.0,0.0,0.0,0.0,0.0,0.0,0.0,0.0,0.0,0.0,0.0,0.0,0.0,0.0,0.0,0.0,0.0,0.0,0.0,0.0,0.0,0.0,0.0,0.0,0.0,0.0,0.0,0.0,0.0,0.0,0.0,0.0,0.0,0.0,0.0,0.0,0.0,0.0,0.0,0.0,0.0,0.0,0.0,0.0,0.0,0.0,0.0,0.0,0.0,0.0,0.0,0.0,0.0,0.0,0.0,0.0,0.0,0.0,0.0,0.0,0.0,0.0,0.0,0.0,0.0,0.0,0.0,0.0,0.0,0.0,0.0,0.0,0.0,0.0,0.0,0.0,0.0,0.0,0.0,0.0,0.0,-1.4956,-1.5788,-1.6339,-1.6522,-1.6018,-1.5516,0.0,0.0,0.0,0.0,0.0,0.0,0.0,0.0,0.0,0.0,0.0,0.0,0.0,0.0,0.0,0.0,0.0,0.0,0.0,0.0,0.0,0.0,0.0,0.0,0.0,0.0,0.0,0.0,0.0,0.0,0.0,0.0,0.0,0.0,0.0,0.0,0.0,0.0,0.0,0.0,0.0,0.0,0.0,0.0,0.0,0.0,0.0,0.0,0.0,0.0,0.0,0.0,0.0,0.0,0.0,0.0,0.0,0.0,0.0,0.0,0.0,0.0,0.0,0.0,0.0,0.0,0.0,0.0,0.0,0.0,0.0,0.0,0.0,0.0,0.0,0.0,0.0,0.0,0.0,0.0,0.0,0.0,0.0,0.0,0.0,0.0,0.0,0.0,0.0,0.0,0.0,0.0,0.0,0.0,0.0,0.0,0.0,0.0,0.0,0.0,0.0,0.0,0.0,0.0,0.0,0.0,0.0,0.0,0.0,-1.6909,-1.7511,-1.7278,-1.6191,-1.5536,-1.5157,0.0,0.0,0.0,0.0,0.0,0.0,0.0,0.0,0.0,0.0,0.0,0.0,0.0,0.0,0.0,0.0,0.0,0.0,0.0,0.0,0.0,0.0,0.0,0.0,0.0,0.0,0.0,0.0,0.0,0.0,0.0,0.0,0.0,0.0,0.0,0.0,0.0,0.0,0.0,0.0,0.0,0.0,0.0,0.0,0.0,0.0,0.0,0.0,0.0,0.0,0.0,0.0,0.0,0.0,0.0,0.0,0.0,0.0,0.0,0.0,0.0,0.0,0.0,0.0,0.0,0.0,0.0,0.0,0.0,0.0,0.0,0.0,0.0,0.0,0.0,0.0,0.0,0.0,0.0,0.0,0.0,0.0,0.0,0.0,0.0,0.0,0.0,0.0,0.0,0.0,0.0,0.0,0.0,0.0,0.0,0.0,0.0,0.0,0.0,0.0,0.0,0.0,0.0,0.0,0.0,0.0,0.0,0.0,-1.7042,-1.745,-1.8216,-1.821,-1.7267,-1.6221,-1.5564,0.0,0.0,0.0,0.0,0.0,0.0,0.0,0.0,0.0,0.0,0.0,0.0,0.0,0.0,0.0,0.0,0.0,0.0,0.0,0.0,0.0,0.0,0.0,0.0,0.0,0.0,0.0,0.0,0.0,0.0,0.0,0.0,0.0,0.0,0.0,0.0,0.0,0.0,0.0,0.0,0.0,0.0,0.0,0.0,0.0,0.0,0.0,0.0,0.0,0.0,0.0,0.0,0.0,0.0,0.0,0.0,0.0,0.0,0.0,0.0,0.0,0.0,0.0,0.0,0.0,0.0,0.0,0.0,0.0,0.0,0.0,0.0,0.0,0.0,0.0,0.0,0.0,0.0,0.0,0.0,0.0,0.0,0.0,0.0,0.0,0.0,0.0,0.0,0.0,0.0,0.0,0.0,0.0,0.0,0.0,0.0,0.0,0.0,0.0,0.0,0.0,0.0,0.0,0.0,0.0,0.0,0.0,0.0,-1.7843,-1.7345,-1.8407,-1.904,-1.9044,-1.7532,-1.6416,0.0,0.0,0.0,0.0,0.0,0.0,0.0,0.0,0.0,0.0,0.0,0.0,0.0,0.0,0.0,0.0,0.0,0.0,0.0,0.0,0.0,0.0,0.0,0.0,0.0,0.0,0.0,0.0,0.0,0.0,0.0,0.0,0.0,0.0,0.0,0.0,0.0,0.0,0.0,0.0,0.0,0.0,0.0,0.0,0.0,0.0,0.0,0.0,0.0,0.0,0.0,0.0,0.0,0.0,0.0,0.0,0.0,0.0,0.0,0.0,0.0,0.0,0.0,0.0,0.0,0.0,0.0,0.0,0.0,0.0,0.0,0.0,0.0,0.0,0.0,0.0,0.0,0.0,0.0,0.0,0.0,0.0,0.0,0.0,0.0,0.0,0.0,0.0,0.0,0.0,0.0,0.0,0.0,0.0,0.0,0.0,0.0,0.0,0.0,0.0,0.0,0.0,0.0,0.0,0.0,0.0,0.0,0.0,-1.7854,-1.8739,-1.8926,-1.9198,-1.9618,-1.8068,-1.6979,0.0,0.0,0.0,0.0,0.0,0.0,0.0,0.0,0.0,0.0,0.0,0.0,0.0,0.0,0.0,0.0,0.0,0.0,0.0,0.0,0.0,0.0,0.0,0.0,0.0,0.0,0.0,0.0,0.0,0.0,0.0,0.0,0.0,0.0,0.0,0.0,0.0,0.0,0.0,0.0,0.0,0.0,0.0,0.0,0.0,0.0,0.0,0.0,-1.9962,0.0,0.0,0.0,0.0,0.0,0.0,0.0,0.0,0.0,0.0,0.0,0.0,0.0,0.0,0.0,0.0,0.0,0.0,0.0,0.0,0.0,0.0,0.0,0.0,0.0,0.0,0.0,0.0,0.0,0.0,0.0,0.0,0.0,0.0,0.0,0.0,0.0,0.0,0.0,0.0,0.0,0.0,0.0,0.0,0.0,0.0,0.0,0.0,0.0,0.0,0.0,0.0,0.0,0.0,0.0,0.0,0.0,0.0,0.0,-1.8213,-1.8809,-1.8919,-1.9133,-1.9371,-1.8357,-1.7664,0.0,0.0,0.0,0.0,0.0,0.0,0.0,0.0,0.0,0.0,0.0,0.0,0.0,0.0,0.0,0.0,0.0,0.0,0.0,0.0,0.0,0.0,0.0,0.0,0.0,0.0,0.0,0.0,0.0,0.0,0.0,0.0,0.0,0.0,0.0,0.0,0.0,0.0,0.0,0.0,0.0,0.0,0.0,0.0,0.0,0.0,0.0,0.0,0.0,0.0,0.0,0.0,0.0,0.0,0.0,0.0,0.0,0.0,0.0,0.0,0.0,0.0,0.0,0.0,0.0,0.0,0.0,0.0,0.0,0.0,0.0,0.0,0.0,0.0,0.0,0.0,0.0,0.0,0.0,0.0,0.0,0.0,0.0,0.0,0.0,0.0,0.0,0.0,0.0,0.0,0.0,0.0,0.0,0.0,0.0,0.0,0.0,0.0,0.0,0.0,0.0,0.0,0.0,0.0,0.0,0.0,0.0,-1.8298,-1.8597,-1.8503,-1.8823,-1.9013,-1.8975,-1.8482,-1.8241,-1.8301,0.0,0.0,0.0,0.0,0.0,0.0,0.0,0.0,0.0,0.0,0.0,0.0,0.0,0.0,0.0,0.0,0.0,0.0,0.0,0.0,0.0,0.0,0.0,0.0,0.0,0.0,0.0,0.0,0.0,0.0,0.0,0.0,0.0,0.0,0.0,0.0,0.0,0.0,-1.9232,-1.9174,0.0,0.0,0.0,0.0,0.0,0.0,0.0,0.0,-2.0161,0.0,0.0,0.0,0.0,0.0,0.0,0.0,0.0,0.0,0.0,0.0,0.0,0.0,0.0,0.0,0.0,0.0,0.0,0.0,0.0,0.0,0.0,0.0,0.0,0.0,0.0,0.0,0.0,0.0,0.0,0.0,0.0,0.0,0.0,0.0,0.0,0.0,0.0,0.0,0.0,0.0,0.0,0.0,0.0,0.0,0.0,0.0,0.0,0.0,0.0,0.0,0.0,0.0,0.0,0.0,0.0,-1.8572,-1.8166,-1.8276,-1.8895,-1.8965,-1.9013,-1.9001,-1.847,-1.841,-1.877,0.0,0.0,0.0,0.0,0.0,0.0,0.0,0.0,0.0,0.0,0.0,0.0,0.0,0.0,0.0,0.0,0.0,0.0,0.0,0.0,0.0,0.0,0.0,0.0,0.0,0.0,0.0,0.0,0.0,0.0,0.0,0.0,0.0,0.0,0.0,0.0,0.0,0.0,0.0,-1.9449,-1.9348,0.0,0.0,0.0,0.0,0.0,0.0,0.0,0.0,-2.0464,0.0,0.0,0.0,0.0,0.0,0.0,0.0,0.0,0.0,0.0,0.0,0.0,0.0,0.0,0.0,0.0,0.0,0.0,0.0,0.0,0.0,0.0,0.0,0.0,0.0,0.0,0.0,0.0,0.0,0.0,0.0,0.0,0.0,0.0,0.0,0.0,0.0,0.0,0.0,0.0,0.0,0.0,0.0,0.0,0.0,0.0,0.0,0.0,0.0,0.0,0.0,0.0,0.0,0.0,0.0,-1.8685,-1.8314,-1.8395,-1.8989,-1.9013,-1.9013,-1.9001,-1.847,-1.8326,0.0,0.0,0.0,0.0,0.0,0.0,0.0,0.0,0.0,0.0,0.0,0.0,0.0,0.0,0.0,0.0,0.0,0.0,0.0,0.0,0.0,0.0,0.0,0.0,0.0,0.0,0.0,0.0,0.0,0.0,0.0,0.0,0.0,0.0,0.0,0.0,0.0,0.0,0.0,0.0,-1.9754,-1.9744,-2.0399,0.0,0.0,0.0,0.0,0.0,0.0,-2.0993,-2.098,0.0,0.0,0.0,0.0,0.0,0.0,0.0,0.0,0.0,0.0,0.0,0.0,0.0,0.0,0.0,0.0,0.0,0.0,0.0,0.0,0.0,0.0,0.0,0.0,0.0,0.0,0.0,0.0,0.0,0.0,0.0,0.0,0.0,0.0,0.0,0.0,0.0,0.0,0.0,0.0,0.0,0.0,0.0,0.0,0.0,0.0,0.0,0.0,0.0,0.0,0.0,0.0,0.0,0.0,0.0,-1.8743,-1.8725,-1.8925,-1.9287,-1.9324,-1.9324,-1.93,-1.8698,-1.8362,0.0,0.0,0.0,0.0,0.0,0.0,0.0,0.0,0.0,0.0,0.0,0.0,0.0,0.0,0.0,0.0,0.0,0.0,0.0,0.0,0.0,0.0,0.0,0.0,0.0,0.0,0.0,0.0,0.0,0.0,0.0,0.0,0.0,0.0,0.0,0.0,0.0,0.0,0.0,0.0,0.0,-2.0085,-2.0694,-2.0268,0.0,0.0,0.0,0.0,-2.1098,-2.1359,0.0,0.0,0.0,0.0,0.0,0.0,0.0,0.0,0.0,0.0,0.0,0.0,0.0,0.0,0.0,0.0,0.0,0.0,0.0,0.0,0.0,0.0,0.0,0.0,0.0,0.0,0.0,0.0,0.0,0.0,0.0,0.0,0.0,0.0,0.0,0.0,0.0,0.0,0.0,0.0,0.0,0.0,0.0,0.0,0.0,0.0,0.0,0.0,0.0,0.0,0.0,0.0,0.0,0.0,0.0,0.0,-1.9162,-1.9573,-2.0,-2.0394,-2.0418,-2.0401,-2.0406,-1.9444,-1.8903,0.0,0.0,0.0,0.0,0.0,0.0,0.0,0.0,0.0,0.0,0.0,0.0,0.0,0.0,0.0,0.0,0.0,0.0,0.0,0.0,0.0,0.0,0.0,0.0,0.0,0.0,0.0,0.0,0.0,0.0,0.0,0.0,0.0,0.0,0.0,0.0,0.0,0.0,0.0,0.0,0.0,-1.9955,-2.0619,-2.0641,-2.0584,0.0,0.0,-2.1614,-2.1686,-2.183,0.0,0.0,0.0,0.0,0.0,0.0,0.0,0.0,0.0,0.0,0.0,0.0,0.0,0.0,0.0,0.0,0.0,0.0,0.0,0.0,0.0,0.0,0.0,0.0,0.0,0.0,0.0,0.0,0.0,0.0,0.0,0.0,0.0,0.0,0.0,0.0,0.0,0.0,0.0,0.0,0.0,0.0,0.0,0.0,0.0,0.0,0.0,0.0,0.0,0.0,0.0,0.0,0.0,0.0,0.0,-1.9249,-1.9233,-1.9951,-2.0427,-2.0603,-2.061,-2.0581,-2.0581,-1.9564,-1.9013,0.0,0.0,0.0,0.0,0.0,0.0,0.0,0.0,0.0,0.0,0.0,0.0,0.0,0.0,0.0,0.0,0.0,0.0,0.0,0.0,0.0,0.0,0.0,0.0,0.0,0.0,0.0,0.0,0.0,0.0,0.0,0.0,0.0,0.0,0.0,0.0,0.0,0.0,0.0,0.0,0.0,0.0,-2.1075,-2.1075,0.0,0.0,0.0,-2.1707,-2.1692,0.0,0.0,0.0,0.0,0.0,0.0,0.0,0.0,0.0,0.0,0.0,0.0,0.0,0.0,0.0,0.0,0.0,0.0,0.0,0.0,0.0,0.0,0.0,0.0,0.0,0.0,0.0,0.0,0.0,0.0,0.0,0.0,0.0,0.0,0.0,0.0,0.0,0.0,0.0,0.0,0.0,0.0,0.0,0.0,0.0,0.0,0.0,0.0,0.0,0.0,0.0,0.0,0.0,0.0,0.0,0.0,0.0,-1.9567,-2.0494,-2.0995,-2.1,-2.0995,-2.099,-2.0995,-2.0093,0.0,0.0,0.0,0.0,0.0,0.0,0.0,0.0,0.0,0.0,0.0,0.0,0.0,0.0,0.0,0.0,0.0,0.0,0.0,0.0,0.0,0.0,0.0,0.0,0.0,0.0,0.0,-1.8633,0.0,0.0,0.0,0.0,0.0,0.0,0.0,0.0,0.0,0.0,0.0,0.0,0.0,0.0,-2.148,-2.1383,-2.1465,-2.1541,0.0,0.0,-2.181,-2.1788,-2.2024,-2.2135,0.0,0.0,0.0,0.0,0.0,0.0,0.0,0.0,0.0,0.0,0.0,0.0,0.0,0.0,0.0,0.0,0.0,0.0,0.0,0.0,0.0,0.0,0.0,0.0,0.0,0.0,0.0,0.0,0.0,0.0,0.0,0.0,0.0,0.0,0.0,0.0,0.0,0.0,0.0,0.0,0.0,0.0,0.0,0.0,0.0,0.0,0.0,0.0,0.0,0.0,0.0,0.0,0.0,0.0,-2.0013,-2.0526,-2.1548,-2.2065,-2.2077,-2.2089,-2.2089,-2.2077,-2.1536,-2.0754,0.0,0.0,0.0,0.0,0.0,0.0,0.0,0.0,0.0,0.0,0.0,0.0,0.0,0.0,0.0,0.0,0.0,0.0,0.0,0.0,0.0,0.0,0.0,0.0,0.0,0.0,0.0,0.0,0.0,0.0,0.0,0.0,0.0,0.0,0.0,0.0,0.0,0.0,0.0,0.0,0.0,-2.1338,-2.1302,-2.1786,-2.2137,0.0,-2.2267,-2.2323,-2.236,-2.2572,-2.2536,-2.1917,0.0,0.0,0.0,0.0,0.0,0.0,0.0,0.0,0.0,0.0,0.0,0.0,0.0,0.0,0.0,0.0,0.0,0.0,0.0,0.0,0.0,0.0,0.0,0.0,0.0,0.0,0.0,0.0,0.0,0.0,0.0,0.0,0.0,0.0,0.0,0.0,0.0,0.0,0.0,0.0,0.0,0.0,0.0,0.0,0.0,0.0,0.0,0.0,0.0,0.0,0.0,0.0,0.0,-2.0073,-2.0627,-2.1675,-2.2197,-2.2197,-2.2197,-2.2197,-2.2197,-2.1692,-2.0899,0.0,0.0,0.0,0.0,0.0,0.0,0.0,0.0,0.0,0.0,0.0,0.0,0.0,0.0,0.0,0.0,0.0,0.0,0.0,0.0,0.0,0.0,0.0,0.0,0.0,0.0,0.0,0.0,-2.0489,-2.0814,-2.122,0.0,0.0,0.0,0.0,0.0,0.0,0.0,0.0,0.0,0.0,-2.1962,-2.1879,-2.2053,0.0,0.0,-2.2394,-2.2509,-2.2509,-2.2721,-2.2785,-2.2525,-2.2706,0.0,0.0,0.0,0.0,0.0,0.0,0.0,0.0,0.0,0.0,0.0,0.0,0.0,0.0,0.0,0.0,0.0,0.0,0.0,0.0,0.0,0.0,0.0,0.0,0.0,0.0,0.0,-1.6485,0.0,0.0,0.0,0.0,0.0,0.0,0.0,0.0,0.0,0.0,0.0,0.0,0.0,0.0,0.0,0.0,0.0,0.0,0.0,0.0,0.0,0.0,0.0,0.0,-2.0145,-2.0844,-2.1759,-2.2197,-2.2197,-2.2197,-2.2197,-2.2185,-2.1855,-2.1259,0.0,0.0,0.0,0.0,0.0,0.0,0.0,0.0,0.0,0.0,0.0,0.0,0.0,0.0,0.0,0.0,0.0,0.0,0.0,0.0,0.0,0.0,0.0,0.0,0.0,0.0,0.0,0.0,-2.1452,-2.1736,-2.2236,0.0,0.0,0.0,0.0,0.0,0.0,0.0,0.0,0.0,0.0,-2.2417,-2.2263,-2.2278,-2.224,-2.2278,-2.2417,-2.2569,-2.2578,-2.2752,-2.2857,-2.2872,0.0,0.0,0.0,0.0,0.0,0.0,0.0,0.0,0.0,0.0,0.0,0.0,0.0,0.0,0.0,0.0,0.0,0.0,0.0,0.0,0.0,0.0,0.0,0.0,0.0,0.0,0.0,-1.74,0.0,0.0,-1.6679,0.0,0.0,0.0,0.0,0.0,0.0,0.0,0.0,0.0,0.0,0.0,0.0,0.0,0.0,0.0,0.0,0.0,0.0,0.0,0.0,0.0,0.0,-2.035,-2.1368,-2.1939,-2.2197,-2.2197,-2.2197,-2.2228,-2.2216,-2.2316,-2.2098,-2.1552,0.0,0.0,0.0,0.0,0.0,0.0,0.0,0.0,0.0,0.0,0.0,0.0,0.0,0.0,0.0,0.0,0.0,0.0,0.0,0.0,0.0,0.0,0.0,0.0,0.0,0.0,-2.1859,-2.2504,-2.283,0.0,0.0,0.0,0.0,0.0,0.0,0.0,0.0,0.0,-2.2592,-2.2578,-2.2546,-2.2445,-2.2408,-2.2422,-2.2422,-2.2422,-2.2477,-2.2606,-2.2749,-2.2795,0.0,0.0,0.0,0.0,0.0,0.0,0.0,0.0,0.0,0.0,0.0,0.0,0.0,0.0,0.0,0.0,0.0,0.0,0.0,0.0,0.0,0.0,0.0,0.0,0.0,0.0,0.0,-1.848,-1.8564,0.0,0.0,0.0,0.0,0.0,0.0,0.0,0.0,0.0,0.0,0.0,-1.9796,-1.9879,0.0,0.0,0.0,0.0,0.0,0.0,0.0,0.0,0.0,0.0,0.0,0.0,-2.1043,-2.1404,-2.1921,-2.2197,-2.2197,-2.2278,-2.234,-2.2328,-2.2494,-2.2389,-2.1938,0.0,0.0,0.0,0.0,0.0,0.0,0.0,0.0,0.0,0.0,0.0,0.0,0.0,0.0,0.0,0.0,0.0,0.0,0.0,0.0,0.0,0.0,0.0,0.0,0.0,-2.1362,0.0,0.0,0.0,0.0,0.0,0.0,0.0,0.0,0.0,0.0,-2.2675,-2.2615,-2.2615,-2.2615,-2.2735,-2.3065,-2.3136,-2.3136,0.0,0.0,0.0,0.0,0.0,0.0,0.0,0.0,0.0,0.0,0.0,0.0,0.0,0.0,-2.2048,-2.2229,-2.2258,-2.2214,-2.2011,0.0,0.0,0.0,0.0,0.0,0.0,0.0,0.0,0.0,0.0,0.0,0.0,0.0,0.0,-1.9291,-1.9388,-1.9305,0.0,0.0,0.0,0.0,0.0,0.0,0.0,0.0,-1.9303,-1.9864,-2.0532,-2.0548,-2.0698,-2.0921,-2.0798,-2.0141,0.0,0.0,0.0,0.0,0.0,0.0,0.0,0.0,-2.1518,-2.1741,-2.2097,-2.2321,-2.2383,-2.2463,-2.2512,-2.2512,-2.2678,-2.2657,-2.2446,-2.1927,-2.1534,0.0,0.0,0.0,0.0,0.0,0.0,0.0,0.0,0.0,0.0,0.0,0.0,0.0,0.0,0.0,0.0,0.0,0.0,0.0,0.0,0.0,0.0,0.0,-2.1923,0.0,0.0,0.0,0.0,0.0,0.0,0.0,0.0,0.0,-2.2826,-2.2976,-2.306,-2.3037,-2.3046,-2.3267,-2.3851,0.0,0.0,0.0,0.0,0.0,0.0,0.0,-2.4824,-2.4824,-2.4824,-2.4665,-2.4312,-2.3853,-2.3554,-2.3554,0.0,0.0,-2.2649,-2.2403,-2.2243,-2.2243,-2.2417,-2.2577,-2.2591,-2.2743,-2.2736,0.0,0.0,0.0,0.0,-2.132,0.0,0.0,0.0,-2.0651,-2.035,0.0,-2.041,0.0,0.0,0.0,0.0,-1.9283,-1.976,0.0,0.0,-2.1342,-2.194,-2.1965,-2.1775,-2.1673,-2.1637,-2.1088,-2.0788,-2.0718,-2.0718,-2.0687,0.0,0.0,0.0,0.0,0.0,-2.1795,-2.2438,-2.2505,-2.2543,-2.2751,-2.2782,-2.2782,-2.2782,-2.291,-2.2994,-2.3108,-2.2606,-2.2322,-2.2297,-2.132,0.0,0.0,0.0,0.0,0.0,0.0,0.0,0.0,0.0,0.0,0.0,0.0,0.0,0.0,0.0,0.0,0.0,0.0,0.0,0.0,-2.1855,0.0,0.0,0.0,0.0,0.0,0.0,0.0,0.0,0.0,-2.2931,-2.3004,-2.349,-2.3914,-2.392,0.0,0.0,0.0,0.0,-2.4014,-2.4634,-2.4749,-2.4788,-2.4829,-2.4843,-2.4911,-2.4965,0.0,0.0,-2.4907,-2.4839,-2.4781,-2.4795,-2.4737,-2.423,-2.2483,-2.1714,-2.1249,-2.1235,-2.1743,-2.2019,-2.2077,-2.2548,-2.2751,-2.2883,0.0,0.0,0.0,0.0,-2.1371,-2.1458,-2.1662,-2.1674,-2.1605,-2.1457,-2.1617,0.0,0.0,0.0,0.0,0.0,0.0,-2.1117,-2.1739,-2.2487,-2.303,-2.3408,-2.3492,-2.3536,-2.3536,-2.3484,-2.3366,-2.3252,-2.3252,-2.2347,-2.0634,0.0,0.0,0.0,0.0,-2.3166,-2.37,-2.3769,-2.3801,-2.3833,-2.3974,-2.4101,-2.4184,-2.3873,-2.3704,-2.374,-2.317,-2.2681,-2.2334,-2.202,0.0,0.0,0.0,0.0,0.0,0.0,0.0,0.0,0.0,0.0,0.0,0.0,0.0,0.0,0.0,0.0,0.0,0.0,0.0,-2.1851,-2.1864,-2.213,0.0,0.0,0.0,0.0,0.0,0.0,0.0,0.0,0.0,-2.4201,-2.4027,-2.4051,0.0,0.0,-2.4766,-2.5394,-2.5321,-2.5264,-2.5477,-2.5872,0.0,-2.5589,-2.5908,-2.6228,-2.6268,-2.5836,-2.5542,-2.5556,-2.5139,-2.4824,-2.4824,-2.4824,-2.4621,-2.4181,-2.3514,-2.3078,-2.3049,-2.2875,-2.2664,-2.2678,-2.2809,-2.2873,-2.4035,-2.3388,-2.3023,-2.2693,-2.2454,-2.2535,-2.2659,-2.2844,-2.2948,-2.2978,-2.2978,-2.2978,-2.2484,-2.1642,-2.1419,0.0,0.0,0.0,-2.2559,-2.3298,-2.368,-2.4,-2.432,-2.4608,-2.4628,-2.4455,-2.4674,-2.4628,-2.4288,-2.4288,-2.3553,-2.2134,0.0,-2.283,-2.3159,-2.3604,-2.4013,-2.4386,-2.4431,-2.4431,-2.4496,-2.4626,-2.4736,-2.4775,-2.4506,-2.433,-2.4318,-2.3778,-2.3326,-2.2987,-2.2548,-2.2008,0.0,0.0,0.0,0.0,0.0,0.0,0.0,0.0,0.0,0.0,0.0,-2.0309,-2.0193,0.0,0.0,0.0,-2.113,-2.1711,-2.2212,-2.2192,0.0,0.0,0.0,0.0,0.0,0.0,0.0,-2.4742,-2.4491,-2.453,-2.511,-2.4878,-2.4791,-2.5154,-2.5201,-2.5444,-2.6108,0.0,-2.5905,-2.6166,-2.6559,-2.666,-2.6283,-2.6544,-2.6794,-2.6794,-2.646,-2.621,-2.6181,-2.585,-2.5593,-2.5593,-2.5593,-2.5618,-2.5647,-2.5096,-2.4544,-2.4288,-2.394,-2.3693,-2.3679,-2.3679,-2.3641,-2.5444,-2.5372,-2.4456,-2.4011,-2.396,-2.408,-2.4147,-2.4168,-2.439,-2.4444,-2.4476,-2.4456,-2.427,-2.389,-2.3393,0.0,-2.3927,-2.4016,-2.4327,-2.4805,-2.4961,-2.5051,-2.5076,-2.5419,-2.5361,-2.4892,-2.5206,-2.5068,-2.4661,-2.4637,-2.4612,-2.4579,-2.4579,-2.453,-2.4407,-2.4382,-2.4517,-2.4743,-2.4788,-2.4808,-2.4958,-2.4913,-2.4946,-2.4926,-2.4876,-2.485,-2.4838,-2.4356,-2.4067,-2.4029,-2.3037,-2.2422,-2.2318,0.0,0.0,0.0,0.0,0.0,0.0,0.0,0.0,0.0,0.0,0.0,0.0,0.0,0.0,0.0,-2.1393,0.0,-2.2618,-2.259,0.0,0.0,0.0,-2.3802,-2.3844,-2.4329,-2.4679,-2.4807,0.0,0.0,-2.5727,-2.5839,-2.5879,-2.5963,-2.5894,-2.6083,-2.6692,-2.6283,-2.6123,-2.6678,-2.6779,-2.6794,-2.6721,-2.6765,-2.6794,-2.6794,-2.6794,-2.675,-2.675,-2.6762,-2.6791,-2.6707,-2.6779,-2.675,-2.6765,-2.6224,-2.5691,-2.51,-2.4853,-2.4781,-2.4791,-2.4723,-2.4694,-2.6513,-2.6489,-2.6249,-2.5792,-2.5206,-2.5379,-2.5517,-2.5608,-2.5872,-2.5961,-2.5995,-2.5961,-2.592,-2.5828,-2.5691,-2.5716,-2.5854,-2.6267,-2.6461,-2.6459,-2.6905,-2.7092,-2.7092,-2.7181,-2.7229,-2.7272,-2.7337,-2.7337,-2.7189,-2.7176,-2.7176,-2.7224,-2.7176,-2.6517,-2.5207,-2.5245,-2.5536,-2.6042,-2.6042,-2.6076,-2.6097,-2.6109,-2.6097,-2.6109,-2.5649,-2.541,-2.5398,-2.4921,-2.46,-2.4607,-2.3966,-2.3401,-2.2932,-2.2268,0.0,0.0,0.0,0.0,0.0,0.0,0.0,0.0,0.0,-2.1415,-2.1568,0.0,-2.1763,0.0,-2.154,-2.181,-2.2631,-2.232,0.0,0.0,-2.3361,-2.3714,-2.4254,-2.4137,-2.4258,-2.4901,-2.4915,-2.5149,-2.5813,-2.627,-2.6721,-2.7159,-2.6852,-2.6631,-2.6791,-2.6663,-2.6617,-2.6806,-2.6837,-2.6794,-2.6837,-2.6794,-2.6808,-2.6794,-2.6794,-2.6794,-2.6794,-2.6794,-2.6794,-2.6794,-2.6794,-2.6794,-2.6794,-2.6649,-2.6504,-2.6286,-2.5506,-2.4824,-2.4824,-2.4824,-2.4824,-2.8342,-2.8342,-2.833,-2.8032,-2.7559,-2.681,-2.6575,-2.6718,-2.698,-2.7135,-2.7228,-2.7193,-2.7228,-2.7228,-2.7193,-2.7193,-2.7253,-2.7507,-2.7609,-2.7513,-2.7801,-2.7914,-2.7963,-2.8163,-2.8225,-2.8122,-2.8348,-2.8101,-2.7533,-2.7508,-2.7508,-2.7521,-2.7521,-2.7223,-2.6627,-2.6681,-2.6866,-2.718,-2.6989,-2.6738,-2.6499,-2.6487,-2.6373,-2.6076,-2.5774,-2.5485,-2.5247,-2.4745,-2.4456,-2.4443,-2.3929,-2.3434,-2.3108,-2.2581,-2.2184,0.0,0.0,0.0,0.0,0.0,0.0,0.0,0.0,0.0,0.0,0.0,-2.2353,-2.2452,-2.2179,-2.2311,-2.3037,-2.2835,-2.2821,-2.3232,-2.3589,-2.3949,-2.4281,-2.4343,-2.4514,-2.4952,-2.5176,-2.5425,-2.5813,-2.6343,-2.6835,-2.7172,-2.7187,-2.7265,-2.7594,-2.7663,-2.7648,-2.7648,-2.7648,-2.7621,-2.7663,-2.7389,-2.7215,-2.7186,-2.6968,-2.6794,-2.6794,-2.6794,-2.6794,-2.6794,-2.6794,-2.6794,-2.6794,-2.6794,-2.6794,-2.6692,-2.6213,-2.5749,-2.5705,-2.5705,-2.5691,-3.0086,-3.0086,-3.0086,-3.0086,-2.9995,-2.8336,-2.7738,-2.7938,-2.8138,-2.8325,-2.8536,-2.8536,-2.8536,-2.8524,-2.8524,-2.8524,-2.8524,-2.8536,-2.8524,-2.8536,-2.8524,-2.8524,-2.8549,-2.9013,-2.8988,-2.8561,-2.8976,-2.8597,-2.7412,-2.7313,-2.7277,-2.7265,-2.7217,-2.7568,-2.8286,-2.8323,-2.8211,-2.7938,-2.7521,-2.709,-2.6612,-2.6537,-2.6189,-2.5603,-2.5565,-2.5327,-2.4736,-2.4336,-2.4073,-2.4061,-2.3534,-2.3258,-2.3296,-2.2807,-2.256,0.0,-2.2543,0.0,0.0,0.0,0.0,0.0,0.0,0.0,0.0,-2.2832,-2.3168,-2.3343,-2.293,-2.2899,-2.3488,-2.3526,-2.348,-2.339,-2.3839,-2.4115,-2.4106,-2.4571,-2.4901,-2.4939,-2.5439,-2.5778,-2.5792,-2.6236,-2.6607,-2.6809,-2.7244,-2.7775,-2.8484,-2.8611,-2.8593,-2.8694,-2.8694,-2.8534,-2.8549,-2.8187,-2.7826,-2.7781,-2.7476,-2.7038,-2.6953,-2.6939,-2.6895,-2.6835,-2.6794,-2.6794,-2.6794,-2.6794,-2.6794,-2.6779,-2.6721,-2.6678,-2.6692,-2.6663,-2.6794,-3.0086,-3.0086,-3.0086,-3.0086,-3.0091,-2.9888,-2.9935,-3.0204,-3.0394,-3.0595,-3.0771,-3.0771,-3.0771,-3.0771,-3.0771,-3.0783,-3.0771,-3.0771,-3.0783,-3.0771,-3.0771,-3.0771,-3.0771,-3.0871,-3.0871,-3.0783,-3.0871,-3.0778,-3.0493,-3.0094,-2.9895,-2.987,-2.9447,-2.9312,-2.9478,0.0,0.0,0.0,-2.7208,-2.7278,-2.7153,-2.6725,-2.6167,-2.5469,-2.5444,0.0,-2.4423,-2.4442,-2.4489,-2.4464,-2.4079,0.0,0.0,0.0,0.0,0.0,0.0,0.0,0.0,0.0,0.0,0.0,-2.3007,-2.2945,-2.2957,-2.3045,-2.3108,-2.3138,-2.305,-2.3055,-2.3185,-2.3198,-2.3198,-2.3168,-2.3258,-2.3495,-2.3968,-2.4124,-2.4351,-2.4778,-2.5376,-2.5708,-2.5752,-2.6218,-2.6779,-2.7238,-2.7505,-2.7851,-2.8432,-2.8619,-2.8681,-2.8694,-2.8697,-2.871,-2.8694,-2.8608,-2.8507,-2.8505,-2.8434,-2.81,-2.7637,-2.7521,-2.7318,-2.6953,-2.6794,-2.6808,-2.6808,-2.6794,-2.6794,-2.6794,-2.6794,-2.6794,-2.6794,-2.6794,-2.6794,-3.0867,-3.091,-3.0898,-3.0953,0.0,-3.1125,-3.1382,-3.1697,-3.129,-3.1207,-3.1386,-3.1386,-3.1386,-3.1386,-3.1386,-3.1386,-3.1386,-3.0935,-3.0704,-3.0675,-3.0181,-2.9959,-2.9972,-3.0455,-3.0467,-3.0001,-3.0951,-3.091,-3.0139,-3.0228,-3.0335,-3.0311,-2.9794,-2.9774,-3.0193,-2.993,-2.9161,-2.7852,-2.8002,-2.7833,-2.7341,-2.704,-2.6452,-2.5549,-2.513,0.0,0.0,0.0,0.0,0.0,0.0,0.0,0.0,-2.4556,-2.4499,-2.4763,-2.4569,-2.4406,-2.4406,-2.4098,-2.381,-2.3547,-2.3271,-2.3095,-2.3095,-2.3095,-2.3095,-2.3095,-2.3095,-2.3221,-2.3496,-2.3534,-2.3647,-2.3898,-2.3935,-2.4092,-2.4324,-2.4406,-2.4506,-2.4782,-2.528,-2.5659,-2.5659,-2.6175,-2.6648,-2.7013,-2.736,-2.7666,-2.7977,-2.8349,-2.8575,-2.8635,-2.8949,-2.9155,-2.9156,-2.9131,-2.9131,-2.9116,-2.8898,-2.8579,-2.826,-2.8202,-2.8086,-2.7752,-2.7476,-2.7258,-2.7215,-2.7012,-2.6794,-2.6794,-2.6794,-2.6794,-2.6794,-2.6794,-2.67,-3.1705,-3.1705,-3.1749,-3.1849,-3.2038,-3.2069,-3.2376,-3.2704,-3.1851,0.0,0.0,-3.1687,-3.1605,-3.1427,-3.1427,-3.1344,-3.1166,-3.0411,-3.0029,-3.0029,-2.9167,-2.882,-2.8852,-2.9792,-2.9834,-2.9167,-3.0861,-3.0945,-2.9523,-3.0006,-3.0212,-3.0122,-2.9516,-2.9557,-3.0251,-2.965,-2.9155,-2.8849,-2.8862,-2.8486,-2.7607,-2.7381,-2.6791,-2.5741,-2.5044,-2.4682,-2.4683,-2.4087,-2.4087,-2.4723,-2.4788,-2.4825,-2.4946,-2.4926,-2.5008,-2.5109,-2.4988,-2.4913,-2.4958,-2.487,-2.4619,-2.4167,-2.3672,-2.3321,-2.3133,-2.3195,-2.3258,-2.3246,-2.3346,-2.3609,-2.4104,-2.4142,-2.4318,-2.475,-2.48,-2.48,-2.4901,-2.4958,-2.4976,-2.5121,-2.5544,-2.5783,-2.5795,-2.6194,-2.6487,-2.6589,-2.6968,-2.7317,-2.7417,-2.8011,-2.8511,-2.8543,-2.8913,-2.932,-2.9369,-2.9353,-2.9415,-2.9268,-2.8941,-2.867,-2.8541,-2.8512,-2.8469,-2.8111,-2.7923,-2.7664,-2.7508,-2.733,-2.7045,-2.685,-2.69,-2.691,-2.6808,-2.6794,-2.6647,-3.1705,-3.1705,-3.1893,-3.1981,-3.2038,-3.2419,-3.2766,-3.3013,-3.2905,-3.2842,-3.2842,-3.2842,-3.2389,-3.1583,-3.1583,-3.1133,-3.0355,-3.0232,-3.0188,-3.0188,-2.9997,-2.9952,-2.9997,-3.0956,-3.1309,-3.1265,-3.229,-3.2744,-3.2382,-3.1253,-3.068,-3.0522,-2.9308,-2.8871,-2.9179,-2.8098,-2.7855,-2.8552,-2.8783,-2.8813,-2.8687,-2.777,-2.6909,-2.6133,-2.5558,-2.4962,-2.439,-2.4443,-2.4496,-2.4606,-2.4723,-2.5021,-2.546,-2.5485,-2.5699,-2.6185,-2.5762,-2.5473,-2.5473,-2.5071,-2.475,-2.4675,-2.46,-2.4148,-2.3221,-2.359,-2.3879,-2.3891,-2.4268,-2.4575,-2.4687,-2.4675,-2.4745,-2.4813,-2.4813,-2.4996,-2.5435,-2.5485,-2.5661,-2.6122,-2.6311,-2.6348,-2.6336,-2.6424,-2.6487,-2.6521,-2.6658,-2.6692,-2.6884,-2.7703,-2.8409,-2.8505,-2.8556,-2.8652,-2.8684,-2.8675,-2.8742,-2.8657,-2.861,-2.8384,-2.7985,-2.793,-2.7734,-2.7062,-2.74,-2.7404,-2.7008,-2.7739,-2.764,-2.7003,-2.707,-2.7312,-2.692,-2.6857,-2.6799,-3.1705,-3.1705,-3.1893,-3.2081,-3.2257,-3.2723,-3.2982,-3.3124,-3.3124,-3.3124,-3.3038,-3.2537,-3.2033,-3.1625,-3.1581,-3.1359,-3.0946,-3.0441,-3.0215,-3.017,-2.9624,-2.9395,-2.9486,-3.0362,-3.0531,-3.0136,-3.1036,-3.1258,-3.0744,-3.051,-3.0505,-3.0414,-2.9441,-2.874,-2.8361,-2.7803,-2.7538,-2.777,-2.8379,-2.8268,-2.7541,-2.7928,-2.7641,-2.6553,-2.6041,-2.5836,-2.5925,-2.5308,-2.5194,-2.5624,-2.5678,-2.5858,-2.6084,-2.6097,-2.6223,-2.6474,-2.6248,-2.6097,-2.6097,-2.5548,-2.5247,-2.5234,-2.4951,-2.4587,-2.4061,-2.4261,-2.4412,-2.4456,-2.4695,-2.4913,-2.5209,-2.5247,-2.536,-2.5686,-2.5745,-2.5812,-2.6047,-2.6097,-2.6197,-2.6449,-2.6487,-2.6487,-2.6487,-2.6487,-2.6487,-2.6487,-2.6487,-2.6487,-2.6487,-2.7007,-2.7417,-2.7451,-2.769,-2.7934,-2.7986,-2.8298,-2.8473,-2.8505,-2.8505,-2.8383,-2.8094,-2.8067,-2.7913,-2.7669,-2.7677,-2.7472,-2.7138,-2.7308,-2.7213,-2.6988,-2.6836,-2.7001,-2.7159,-2.7242,-2.7014,-3.1705,-3.1705,-3.1981,-3.2257,-3.2562,-3.2952,-3.3124,-3.3124,-3.3124,-3.3124,-3.2995,-3.2264,-3.1813,-3.1581,-3.1581,-3.1492,-3.1169,-3.0306,-2.9852,-2.9761,-2.8863,-2.8398,-2.8491,-2.9406,-2.9441,-2.8899,-2.9715,-2.9806,-2.9176,-2.9624,-2.9761,-2.9522,-2.8981,-2.8397,-2.7838,-2.7388,-2.7127,-2.7005,-2.7574,-2.7439,-2.6577,-2.769,-2.7758,-2.6778,-2.6427,-2.6469,-2.6935,-2.6173,-2.5974,-2.6465,-2.6487,-2.6487,-2.6487,-2.6487,-2.6487,-2.6487,-2.6487,-2.6487,-2.6461,-2.6084,-2.5787,-2.5774,-2.5423,-2.5197,-2.5197,-2.5197,-2.5134,-2.5001,-2.5146,-2.5385,-2.5711,-2.5833,-2.6009,-2.6436,-2.6487,-2.6436,-2.6487,-2.6487,-2.6487,-2.6487,-2.6487,-2.6487,-2.6487,-2.6487,-2.6487,-2.6487,-2.6487,-2.6487,-2.6487,-2.6487,-2.6487,-2.6589,-2.6939,-2.725,-2.7284,-2.7637,-2.792,-2.8038,-2.7986,-2.7894,-2.7867,-2.7959,-2.8005,-2.7833,-2.7742,-2.7482,-2.737,-2.7328,-2.7008,-2.6768,-2.6779,-2.6998,-2.7197,-2.7096,-2.7077,-3.1705,-3.1749,-3.2157,-3.2593,-3.2995,-3.3081,-3.3124,-3.3124,-3.3124,-3.3124,-3.3038,-3.2982,-3.2351,-3.1669,-3.1536,-3.108,-3.0306,-2.9314,-2.8863,-2.8771,-2.7857,-2.7441,-2.762,-2.8445,-2.8817,-2.8817,-2.9669,-2.9943,-2.9761,-2.9176,-2.8409,-2.7615,-2.7066,-2.7253,-2.7639,-2.6283,-2.5837,-2.6517,-2.6217,-2.6378,-2.6966,-2.6714,-2.6489,-2.6363,-2.66,-2.6525,-2.6263,-2.6755,-2.6909,-2.6549,-2.6512,-2.6499,-2.6499,-2.6499,-2.6487,-2.6487,-2.6487,-2.6487,-2.6487,-2.6449,-2.6386,-2.6411,-2.6336,-2.6285,-2.6285,-2.6298,-2.6109,-2.5724,-2.5988,-2.6285,-2.6411,-2.6386,-2.6386,-2.6461,-2.6487,-2.6487,-2.6487,-2.6487,-2.6487,-2.6487,-2.6487,-2.6487,-2.6487,-2.6487,-2.6487,-2.6487,-2.6487,-2.6487,-2.6487,-2.6487,-2.6487,-2.6487,-2.6577,-2.6611,-2.6658,-2.6624,-2.6871,-2.6803,-2.6714,-2.6837,-2.6905,-2.6884,-2.6726,-2.7116,-2.7211,-2.7241,-2.7133,-2.738,-2.7734,-2.6873,-2.6887,-2.7327,-2.6827,-2.647,-2.6407,-3.1761,-3.1893,-3.2081,-3.2431,-3.2853,-3.3038,-3.3124,-3.3068,-3.245,-3.222,-3.2133,-3.1613,-3.1169,-3.0756,-3.017,-2.9669,-2.9314,-2.891,-2.8678,-2.8678,-2.8258,-2.8128,-2.8175,-2.8491,-2.8678,-2.8631,-2.8585,-2.8502,-2.8398,-2.8081,-2.7668,-2.7336,-2.7112,-2.7071,-2.7034,-2.6107,-2.5659,-2.5717,-2.5263,-2.5189,-2.5621,-2.6374,-2.6517,-2.6095,-2.6347,-2.67,-2.6882,-2.7016,-2.7114,-2.7383,-2.7165,-2.6977,-2.6977,-2.6675,-2.6487,-2.6487,-2.6487,-2.6487,-2.6487,-2.6487,-2.6487,-2.6487,-2.6487,-2.6487,-2.6487,-2.6487,-2.6373,-2.6235,-2.6361,-2.6487,-2.6499,-2.6487,-2.6487,-2.6487,-2.6487,-2.6499,-2.6487,-2.6499,-2.6487,-2.6487,-2.6487,-2.6499,-2.6487,-2.6487,-2.6487,-2.6487,-2.6487,-2.6487,-2.6487,-2.6487,-2.6487,-2.6487,-2.6487,-2.6487,-2.6487,-2.6487,-2.6487,-2.6487,-2.6487,-2.6487,-2.6487,-2.6487,-2.6521,-2.6487,-2.6748,-2.6884,-2.6598,-2.6782,-2.708,-2.6647,-2.6999,-2.743,-2.7192,-2.694,-2.7088,-3.1981,-3.2081,-3.2169,-3.2419,-3.2797,-3.3038,-3.2939,-3.2624,-3.1901,-3.1448,-3.1125,-3.0227,-2.9806,-2.9704,-2.9314,-2.9084,-2.9084,-2.8817,-2.8678,-2.8678,-2.8456,-2.8305,-2.8315,-2.8315,-2.8315,-2.8222,-2.7668,-2.7309,-2.732,-2.732,-2.732,-2.732,-2.732,-2.7133,-2.6791,-2.6345,-2.5906,-2.5585,-2.4993,-2.4693,-2.4888,-2.5791,-2.608,-2.5557,-2.5902,-2.64,-2.6843,-2.6954,-2.7233,-2.7705,-2.7576,-2.7507,-2.7494,-2.7014,-2.665,-2.6499,-2.6487,-2.6487,-2.6487,-2.6487,-2.6487,-2.6487,-2.6487,-2.6487,-2.6512,-2.6637,-2.6725,-2.6725,-2.6851,-2.6901,-2.6512,-2.6637,-2.6713,-2.6725,-2.6826,-2.6939,-2.6964,-2.6952,-2.6989,-2.6952,-2.704,-2.6864,-2.6738,-2.6612,-2.6487,-2.6487,-2.6487,-2.6487,-2.6487,-2.6487,-2.6487,-2.6487,-2.6487,-2.6487,-2.6487,-2.6487,-2.6487,-2.6487,-2.6487,-2.6487,-2.6487,-2.6487,-2.6487,-2.6487,-2.6487,-2.6487,-2.6499,-2.6521,-2.6555,-2.6624,-2.6892,-2.7224,-2.7054,-2.7157,-2.7157,-3.2388,-3.2388,-3.2593,-3.281,-3.3068,-3.3068,-3.2568,-3.1857,-3.1625,-3.108,-3.026,-2.9222,-2.8771,-2.8806,-2.9532,-3.0022,-2.9897,-2.9037,-2.8585,-2.8538,-2.7809,-2.7404,-2.7347,-2.7357,-2.7404,-2.7499,-2.7404,-2.732,-2.732,-2.732,-2.732,-2.732,-2.732,-2.7299,-2.7175,-2.677,-2.6573,-2.6341,-2.5606,-2.5137,-2.5096,-2.4843,-2.4732,-2.4743,-2.5358,-2.5598,-2.5481,-2.6725,-2.7354,-2.6899,-2.7594,-2.8035,-2.7985,-2.7532,-2.7065,-2.6637,-2.6549,-2.6537,-2.6562,-2.6587,-2.6575,-2.6549,-2.6625,-2.6537,-2.6675,-2.704,-2.7278,-2.7243,-2.7645,-2.7544,-2.6826,-2.7052,-2.7278,-2.7281,-2.7695,-2.7908,-2.7971,-2.7858,-2.8021,-2.7959,-2.7883,-2.7632,-2.7256,-2.6813,-2.6575,-2.6512,-2.6487,-2.6487,-2.6487,-2.6487,-2.6487,-2.6487,-2.6487,-2.6487,-2.6487,-2.6487,-2.6487,-2.6487,-2.6487,-2.6487,-2.6487,-2.6487,-2.6487,-2.6487,-2.6487,-2.6487,-2.6487,-2.6487,-2.6487,-2.6521,-2.6521,-2.6679,-2.6782,-2.6624,-2.6645,-3.24,-3.2444,-3.281,-3.2896,-3.2896,-3.3025,-3.2896,-3.2438,-3.1214,-3.0531,-2.9943,-2.8538,-2.7809,-2.7809,-2.8164,-2.8362,-2.8305,-2.794,-2.7809,-2.7762,-2.7441,-2.732,-2.732,-2.732,-2.732,-2.732,-2.732,-2.732,-2.732,-2.732,-2.732,-2.732,-2.732,-2.732,-2.7226,-2.6853,-2.6625,-2.6563,-2.5947,-2.5513,-2.522,-2.5024,-2.4807,-2.456,-2.4786,-2.5147,-2.5496,-2.6132,-2.6611,-2.6958,-2.751,-2.7799,-2.7775,-2.7791,-2.7733,-2.7544,-2.7519,-2.7507,-2.7507,-2.7519,-2.7519,-2.7519,-2.7519,-2.7469,-2.7544,-2.7695,-2.7821,-2.7858,-2.7946,-2.7846,-2.7695,-2.7708,-2.7808,-2.7846,-2.7984,-2.816,-2.8109,-2.8109,-2.8109,-2.8109,-2.8109,-2.7883,-2.7482,-2.7153,-2.6889,-2.6562,-2.6487,-2.6499,-2.6487,-2.6487,-2.6487,-2.6487,-2.6487,-2.6487,-2.6487,-2.6487,-2.6487,-2.6487,-2.6487,-2.6487,-2.6487,-2.6487,-2.6487,-2.6487,-2.6487,-2.6487,-2.6487,-2.6487,-2.6487,-2.6487,-2.6487,-2.6487,-2.6487,-2.6487,-2.6487,-3.2649,-3.2649,-3.2995,-3.281,-3.2407,-3.2525,-3.2251,-3.1581,-3.026,-2.9532,-2.9037,-2.7857,-2.732,-2.732,-2.732,-2.732,-2.732,-2.732,-2.732,-2.732,-2.732,-2.732,-2.732,-2.732,-2.732,-2.732,-2.732,-2.732,-2.732,-2.732,-2.732,-2.732,-2.732,-2.732,-2.7258,-2.6988,-2.6843,-2.676,-2.6387,-2.5947,-2.5678,-2.5513,-2.5223,-2.4807,-2.4724,-2.4879,-2.5401,-2.5663,-2.6027,-2.6644,-2.7167,-2.7462,-2.7633,-2.8089,-2.8248,-2.8134,-2.8097,-2.8109,-2.8109,-2.8109,-2.8097,-2.8097,-2.8109,-2.8109,-2.8109,-2.8223,-2.836,-2.8398,-2.8574,-2.8649,-2.8649,-2.8662,-2.8574,-2.8461,-2.8536,-2.8649,-2.8662,-2.8662,-2.8674,-2.8687,-2.8524,-2.8222,-2.7883,-2.767,-2.7318,-2.6839,-2.6751,-2.6725,-2.6537,-2.6487,-2.6487,-2.6487,-2.6487,-2.6487,-2.6487,-2.6487,-2.6487,-2.6487,-2.6487,-2.6487,-2.6487,-2.6487,-2.6487,-2.6487,-2.6487,-2.6487,-2.6487,-2.6487,-2.6487,-2.6487,-2.6487,-2.6487,-2.6487,-2.6487,-2.6487,-3.3081,-3.2995,-3.3081,-3.245,-3.1613,-3.1569,-3.0543,-2.9268,-2.891,-2.8445,-2.7857,-2.7357,-2.732,-2.732,-2.732,-2.732,-2.732,-2.732,-2.732,-2.732,-2.732,-2.732,-2.732,-2.732,-2.732,-2.732,-2.732,-2.732,-2.732,-2.732,-2.732,-2.732,-2.732,-2.732,-2.732,-2.7258,-2.7268,-2.7175,-2.6812,-2.6594,-2.6563,-2.6092,-2.5678,-2.5241,-2.5158,-2.4941,-2.4624,-2.5316,-2.5704,-2.5872,-2.6584,-2.7208,-2.7621,-2.8345,-2.8625,-2.8225,-2.8161,-2.8172,-2.8197,-2.8247,-2.8298,-2.8298,-2.821,-2.831,-2.8398,-2.8699,-2.89,-2.9013,-2.934,-2.9679,-2.9641,-2.9628,-2.9453,-2.9051,-2.9315,-2.9578,-2.9666,-2.9741,-2.9754,-2.9603,-2.9239,-2.8963,-2.8762,-2.8423,-2.7908,-2.7444,-2.7218,-2.7077,-2.67,-2.6562,-2.6487,-2.6487,-2.6487,-2.6487,-2.6487,-2.6487,-2.6487,-2.6487,-2.6487,-2.6487,-2.6487,-2.6487,-2.6487,-2.6487,-2.6487,-2.6487,-2.6487,-2.6487,-2.6487,-2.6487,-2.6487,-2.6487,-2.6487,-2.6487,-2.6487,-3.2711,-3.2077,-3.2077,-3.1536,-3.0666,-3.0621,-3.0215,-2.9669,-2.9037,-2.8538,-2.8175,-2.7573,-2.732,-2.732,-2.732,-2.7309,-2.732,-2.732,-2.732,-2.732,-2.732,-2.732,-2.732,-2.732,-2.732,-2.732,-2.732,-2.7309,-2.732,-2.732,-2.732,-2.732,-2.732,-2.732,-2.7262,-2.732,-2.732,-2.7289,-2.7164,-2.6946,-2.6646,-2.649,-2.6134,-2.5709,-2.5255,-2.4975,-2.4962,-2.4953,-2.4914,-2.4946,-2.5715,-2.6528,-2.7255,-2.8131,-2.8502,-2.8484,-2.8985,-2.9264,-2.9264,-2.9239,-2.9227,-2.9252,-2.9239,-2.9264,-2.9264,-2.9377,-2.9503,-2.9503,-2.9691,-2.9779,-2.9779,-2.9779,-2.9679,-2.9553,-2.9679,-2.9779,-2.9779,-2.9779,-2.9779,-2.9779,-2.9628,-2.9377,-2.9001,-2.8675,-2.8461,-2.7921,-2.757,-2.7205,-2.7065,-2.67,-2.6512,-2.6487,-2.6487,-2.6487,-2.6487,-2.6487,-2.6487,-2.6487,-2.6487,-2.6487,-2.6487,-2.6487,-2.6487,-2.6487,-2.6487,-2.6487,-2.6487,-2.6487,-2.6487,-2.6487,-2.6487,-2.6487,-2.6487,-2.6487,-2.6487,-3.2164,-3.1581,-3.1214,-3.0531,-2.9669,-2.9635,-2.9441,-2.9073,-2.8491,-2.8175,-2.8045,-2.7584,-2.7214,-2.7167,-2.7262,-2.7214,-2.7177,-2.7262,-2.732,-2.732,-2.732,-2.732,-2.732,-2.732,-2.732,-2.732,-2.732,-2.7262,-2.7177,-2.7251,-2.7214,-2.7061,-2.7071,-2.7081,-2.7023,-2.7129,-2.7177,-2.7177,-2.7262,-2.7127,-2.6806,-2.6697,-2.647,-2.5992,-2.5513,-2.5217,-2.5176,-2.4813,-2.4576,-2.4657,-2.5348,-2.6069,-2.6648,-2.7464,-2.8131,-2.8542,-2.8988,-2.9404,-2.9714,-2.9716,-2.9779,-2.9779,-2.9779,-2.9767,-2.9779,-2.9779,-2.9779,-2.9779,-2.9779,-2.9779,-2.9779,-2.9779,-2.9779,-2.9779,-2.9779,-2.9779,-2.9779,-2.9779,-2.9779,-2.9779,-2.9767,-2.9591,-2.9365,-2.9239,-2.9013,-2.8486,-2.7946,-2.7431,-2.7304,-2.6839,-2.6637,-2.6499,-2.6487,-2.6487,-2.6487,-2.6487,-2.6487,-2.6487,-2.6487,-2.6487,-2.6487,-2.6487,-2.6487,-2.6487,-2.6487,-2.6487,-2.6487,-2.6487,-2.6487,-2.6487,-2.6487,-2.6487,-2.6487,-2.6487,-2.6487,-3.1492,-3.1347,-3.0486,-2.9532,-2.8678,-2.8642,-2.8222,-2.7489,-2.7404,-2.7404,-2.7357,-2.7357,-2.7177,-2.7034,-2.7225,-2.7167,-2.6986,-2.7129,-2.7225,-2.7214,-2.7214,-2.7225,-2.7309,-2.732,-2.7272,-2.7272,-2.7272,-2.7129,-2.689,-2.7071,-2.7013,-2.664,-2.6794,-2.6757,-2.6651,-2.6757,-2.6853,-2.69,-2.7119,-2.7051,-2.6849,-2.686,-2.6686,-2.6221,-2.5855,-2.5584,-2.5375,-2.5033,-2.4702,-2.4645,-2.5221,-2.5631,-2.5872,-2.6577,-2.7447,-2.8091,-2.8371,-2.8961,-2.9507,-2.9753,-2.9779,-2.9779,-2.9779,-2.9779,-2.9779,-2.9779,-2.9779,-2.9779,-2.9779,-2.9779,-2.9779,-2.9779,-2.9779,-2.9779,-2.9779,-2.9779,-2.9779,-2.9779,-2.9779,-2.9779,-2.9779,-2.9767,-2.9716,-2.9704,-2.9465,-2.9051,-2.8499,-2.7996,-2.7469,-2.7102,-2.6663,-2.6524,-2.6499,-2.6487,-2.6487,-2.6487,-2.6487,-2.6487,-2.6487,-2.6487,-2.6487,-2.6487,-2.6487,-2.6487,-2.6487,-2.6487,-2.6487,-2.6487,-2.6487,-2.6487,-2.6487,-2.6487,-2.6487,-2.6487,-2.6487,-3.0125,-2.9452,-2.9176,-2.8538,-2.7715,-2.7678,-2.7536,-2.732,-2.732,-2.732,-2.732,-2.732,-2.7262,-2.7214,-2.7214,-2.7167,-2.6938,-2.6938,-2.689,-2.6747,-2.6688,-2.6976,-2.7262,-2.7309,-2.7177,-2.7034,-2.6986,-2.6853,-2.6602,-2.6688,-2.664,-2.6496,-2.6544,-2.6544,-2.6554,-2.6554,-2.6602,-2.6602,-2.664,-2.6688,-2.664,-2.6592,-2.6552,-2.6421,-2.5872,-2.5742,-2.5844,-2.5386,-2.4885,-2.4549,-2.47,-2.4818,-2.4978,-2.5663,-2.6318,-2.673,-2.7758,-2.8542,-2.887,-2.9417,-2.974,-2.9779,-2.974,-2.9779,-2.9779,-2.9779,-2.9779,-2.9779,-2.9779,-2.9779,-2.9779,-2.9779,-2.9779,-2.9779,-2.9779,-2.9779,-2.9779,-2.9779,-2.9779,-2.9779,-2.9779,-2.9779,-2.9779,-2.9779,-2.9729,-2.9478,-2.9026,-2.8461,-2.7946,-2.7431,-2.7065,-2.6637,-2.6512,-2.6499,-2.6487,-2.6487,-2.6487,-2.6487,-2.6487,-2.6487,-2.6487,-2.6487,-2.6487,-2.6487,-2.6487,-2.6487,-2.6487,-2.6487,-2.6487,-2.6487,-2.6487,-2.6487,-2.6487,-2.6487,-2.6487,-2.9119,-2.8678,-2.8269,-2.7809,-2.7309,-2.732,-2.732,-2.732,-2.732,-2.7214,-2.7167,-2.7262,-2.7119,-2.6822,-2.7023,-2.6928,-2.6602,-2.6699,-2.6651,-2.6544,-2.6496,-2.6688,-2.6928,-2.6976,-2.688,-2.6747,-2.6747,-2.6592,-2.64,-2.6448,-2.6352,-2.6207,-2.6255,-2.6255,-2.6169,-2.6304,-2.6342,-2.6342,-2.64,-2.6448,-2.6342,-2.6342,-2.6342,-2.6264,-2.5833,-2.5732,-2.5912,-2.5384,-2.4841,-2.4567,-2.4507,-2.4507,-2.454,-2.4946,-2.5421,-2.5777,-2.6812,-2.7464,-2.8011,-2.8764,-2.9209,-2.9287,-2.9456,-2.9702,-2.974,-2.9689,-2.965,-2.9792,-2.9792,-2.9779,-2.9779,-2.9779,-2.9779,-2.9779,-2.9702,-2.9702,-2.9779,-2.9779,-2.9779,-2.9779,-2.9779,-2.9779,-2.9779,-2.9792,-2.9779,-2.9666,-2.9239,-2.8837,-2.8448,-2.7946,-2.7421,-2.6959,-2.6719,-2.6744,-2.6596,-2.6534,-2.6556,-2.6531,-2.6418,-2.6418,-2.6452,-2.6452,-2.6487,-2.6487,-2.6487,-2.6487,-2.6452,-2.6452,-2.6487,-2.6487,-2.6487,-2.6487,-2.6487,-2.6487,-2.6487,-2.8236,-2.8409,-2.7584,-2.7214,-2.7214,-2.7225,-2.7167,-2.7214,-2.7167,-2.7034,-2.6938,-2.7129,-2.6832,-2.6149,-2.6699,-2.6592,-2.6149,-2.64,-2.641,-2.6352,-2.6352,-2.64,-2.641,-2.6592,-2.6544,-2.6496,-2.6448,-2.6304,-2.6149,-2.6304,-2.6159,-2.5927,-2.5965,-2.5917,-2.5878,-2.5965,-2.6062,-2.61,-2.6255,-2.6207,-2.61,-2.6062,-2.6052,-2.6004,-2.5936,-2.5727,-2.5601,-2.5194,-2.4757,-2.4514,-2.4495,-2.4507,-2.4507,-2.454,-2.4861,-2.5453,-2.5872,-2.6359,-2.6987,-2.7931,-2.8502,-2.8621,-2.9067,-2.947,-2.9573,-2.9495,-2.9482,-2.9714,-2.9753,-2.9702,-2.9702,-2.9702,-2.9663,-2.9624,-2.9482,-2.9521,-2.9663,-2.9714,-2.9714,-2.9714,-2.9702,-2.9702,-2.9714,-2.9714,-2.9702,-2.9521,-2.916,-2.8898,-2.8587,-2.8201,-2.7679,-2.7182,-2.7032,-2.7016,-2.6816,-2.6604,-2.6614,-2.6577,-2.6355,-2.628,-2.6314,-2.6349,-2.6452,-2.6487,-2.6487,-2.6452,-2.6396,-2.643,-2.6418,-2.6383,-2.6327,-2.6396,-2.6465,-2.6487,-2.6487,-2.6907,-2.6965,-2.6774,-2.6688,-2.664,-2.6699,-2.6688,-2.6688,-2.6688,-2.6688,-2.6592,-2.664,-2.6592,-2.64,-2.6506,-2.64,-2.61,-2.6149,-2.611,-2.5878,-2.5878,-2.5878,-2.5975,-2.6265,-2.6342,-2.6245,-2.6187,-2.6052,-2.5868,-2.5868,-2.583,-2.5732,-2.5781,-2.5732,-2.5732,-2.5781,-2.5781,-2.5771,-2.5878,-2.5878,-2.582,-2.583,-2.582,-2.583,-2.5917,-2.5834,-2.5503,-2.5227,-2.4927,-2.4591,-2.4487,-2.4454,-2.4454,-2.4464,-2.4572,-2.485,-2.5421,-2.5872,-2.6287,-2.7232,-2.8131,-2.8079,-2.8621,-2.9157,-2.9209,-2.9209,-2.9275,-2.9443,-2.947,-2.9482,-2.9482,-2.9326,-2.9339,-2.93,-2.9248,-2.9197,-2.9248,-2.9248,-2.93,-2.93,-2.93,-2.926,-2.9248,-2.9312,-2.93,-2.9236,-2.9088,-2.8878,-2.8631,-2.841,-2.7977,-2.7484,-2.7446,-2.742,-2.71,-2.689,-2.6875,-2.6824,-2.6578,-2.6394,-2.6452,-2.6457,-2.6602,-2.6593,-2.6487,-2.6418,-2.6292,-2.6258,-2.6223,-2.6188,-2.6154,-2.6223,-2.6292,-2.6361,-2.6383,-2.639,-2.6496,-2.6496,-2.6496,-2.6496,-2.6496,-2.6496,-2.6496,-2.6496,-2.6448,-2.6342,-2.6448,-2.6362,-2.6169,-2.6255,-2.6159,-2.5965,-2.5917,-2.582,-2.5732,-2.5684,-2.5684,-2.5742,-2.5927,-2.6014,-2.5907,-2.5917,-2.583,-2.5732,-2.5684,-2.5732,-2.5684,-2.5684,-2.5732,-2.5684,-2.5684,-2.5684,-2.5684,-2.5684,-2.5684,-2.5684,-2.5684,-2.5684,-2.5684,-2.582,-2.5827,-2.5754,-2.5212,-2.5017,-2.4781,-2.4432,-2.4153,-2.4186,-2.4153,-2.4186,-2.4262,-2.469,-2.4967,-2.5242,-2.6027,-2.676,-2.676,-2.7666,-2.8263,-2.8554,-2.8752,-2.904,-2.9197,-2.9275,-2.9275,-2.9236,-2.9197,-2.9091,-2.9104,-2.9013,-2.8961,-2.8961,-2.9052,-2.9104,-2.9104,-2.9143,-2.9143,-2.9104,-2.9064,-2.9104,-2.9131,-2.917,-2.8934,-2.8946,-2.8727,-2.8367,-2.7998,-2.7901,-2.7779,-2.7446,-2.7262,-2.7201,-2.7139,-2.7004,-2.6882,-2.6857,-2.6829,-2.6834,-2.6671,-2.6469,-2.6201,-2.6084,-2.605,-2.6052,-2.6015,-2.6015,-2.605,-2.605,-2.6119,-2.6107,-2.6149,-2.641,-2.6362,-2.6362,-2.6352,-2.6352,-2.6352,-2.6352,-2.64,-2.6207,-2.611,-2.6304,-2.6072,-2.583,-2.5965,-2.5868,-2.5781,-2.5732,-2.5684,-2.5684,-2.5684,-2.5684,-2.5742,-2.5732,-2.5781,-2.5684,-2.5732,-2.5684,-2.5684,-2.5684,-2.5684,-2.5684,-2.5684,-2.5684,-2.5684,-2.5684,-2.5684,-2.5684,-2.5684,-2.5684,-2.5684,-2.5684,-2.5684,-2.5684,-2.5732,-2.582,-2.5729,-2.5261,-2.4782,-2.4991,-2.4191,-2.3791,-2.3711,-2.3797,-2.3797,-2.3841,-2.4153,-2.4186,-2.4251,-2.4872,-2.5442,-2.5136,-2.6348,-2.7221,-2.7557,-2.8011,-2.8474,-2.8752,-2.8882,-2.904,-2.9052,-2.8973,-2.8986,-2.8986,-2.8843,-2.8764,-2.8803,-2.8934,-2.8946,-2.8986,-2.8907,-2.8907,-2.8895,-2.8895,-2.8973,-2.9013,-2.9013,-2.9013,-2.9013,-2.8912,-2.8529,-2.8329,-2.8234,-2.8173,-2.7878,-2.7501,-2.7479,-2.7394,-2.7334,-2.7187,-2.7113,-2.698,-2.6858,-2.6647,-2.6436,-2.6254,-2.6121,-2.611,-2.6086,-2.5926,-2.584,-2.584,-2.5875,-2.5875,-2.5863,-2.5781,-2.583,-2.5839,-2.583,-2.583,-2.583,-2.5878,-2.583,-2.5878,-2.583,-2.5781,-2.583,-2.583,-2.5732,-2.5732,-2.5732,-2.5684,-2.5684,-2.5684,-2.5684,-2.5684,-2.5684,-2.5684,-2.5684,-2.5684,-2.5684,-2.5684,-2.5684,-2.5684,-2.5684,-2.5684,-2.5684,-2.5684,-2.5684,-2.5684,-2.5684,-2.5684,-2.5684,-2.5684,-2.5684,-2.5684,-2.5684,-2.5684,-2.5684,-2.5684,-2.5732,-2.5595,-2.4969,-2.4516,-2.4438,-2.3683,-2.331,-2.3309,-2.358,-2.3711,-2.3754,-2.3807,-2.3841,-2.3884,-2.4423,-2.4829,-2.5031,-2.5621,-2.608,-2.637,-2.6946,-2.7568,-2.7971,-2.8422,-2.8791,-2.8831,-2.8736,-2.863,-2.859,-2.863,-2.859,-2.8578,-2.863,-2.8669,-2.8709,-2.8669,-2.863,-2.8697,-2.8736,-2.8736,-2.8749,-2.8749,-2.8749,-2.8749,-2.8709,-2.8533,-2.8457,-2.8481,-2.8457,-2.8357,-2.7963,-2.7686,-2.7639,-2.7519,-2.7289,-2.7167,-2.6985,-2.683,-2.7017,-2.6932,-2.6773,-2.6614,-2.6359,-2.6068,-2.5886,-2.5776,-2.569,-2.5653,-2.5676,-2.5723,-2.5684,-2.5684,-2.5684,-2.5684,-2.5684,-2.5684,-2.5684,-2.5684,-2.5684,-2.5684,-2.5684,-2.5684,-2.5684,-2.5684,-2.5684,-2.5684,-2.5684,-2.5684,-2.5684,-2.5684,-2.5684,-2.5684,-2.5684,-2.5684,-2.5684,-2.5684,-2.5684,-2.5684,-2.5684,-2.5684,-2.5684,-2.5684,-2.5684,-2.5684,-2.5684,-2.5684,-2.5684,-2.5684,-2.5684,-2.5684,-2.5684,-2.5684,-2.5684,-2.5684,-2.5684,-2.5684,-2.5518,-2.4836,-2.4434,-2.4258,-2.3549,-2.3188,-2.3178,-2.3266,-2.345,-2.3493,-2.358,-2.358,-2.3537,-2.3874,-2.4036,-2.4026,-2.4648,-2.5073,-2.5326,-2.5913,-2.67,-2.7284,-2.7568,-2.8195,-2.8578,-2.855,-2.851,-2.851,-2.851,-2.851,-2.851,-2.851,-2.851,-2.851,-2.855,-2.855,-2.855,-2.855,-2.851,-2.851,-2.851,-2.851,-2.851,-2.851,-2.851,-2.851,-2.8498,-2.8498,-2.8498,-2.827,-2.8005,-2.7933,-2.7834,-2.7606,-2.757,-2.7572,-2.7719,-2.7908,-2.7718,-2.7258,-2.6966,-2.6637,-2.6251,-2.5913,-2.5949,-2.5888,-2.5598,-2.5488,-2.5572,-2.5684,-2.5684,-2.5684,-2.5684,-2.5684,-2.5684,-2.5684,-2.5684,-2.5684,-2.5684,-2.5684,-2.5684,-2.5684,-2.5684,-2.5684,-2.5684,-2.5684,-2.5684,-2.5684,-2.5684,-2.5684,-2.5684,-2.5684,-2.5684,-2.5684,-2.5684,-2.5684,-2.5684,-2.5684,-2.5684,-2.5684,-2.5684,-2.5684,-2.5684,-2.5684,-2.5684,-2.5684,-2.5684,-2.5684,-2.5684,-2.5684,-2.5684,-2.5684,-2.5684,-2.5684,-2.5684,-2.5596,-2.5019,-2.456,-2.4268,-2.376,-2.3198,-2.312,-2.3101,-2.3101,-2.3144,-2.3319,-2.3276,-2.3232,-2.3329,-2.345,-2.3353,-2.3864,-2.4112,-2.4445,-2.5073,-2.5997,-2.6876,-2.7255,-2.7672,-2.8339,-2.851,-2.851,-2.851,-2.851,-2.851,-2.851,-2.851,-2.851,-2.851,-2.851,-2.851,-2.851,-2.851,-2.851,-2.851,-2.851,-2.851,-2.851,-2.851,-2.851,-2.851,-2.851,-2.851,-2.851,-2.851,-2.833,-2.8282,-2.8258,-2.815,-2.8234,-2.833,-2.8418,-2.8337,-2.8032,-2.7601,-2.7284,-2.6994,-2.6755,-2.6526,-2.6358,-2.6105,-2.5865,-2.566,-2.5624,-2.5684,-2.5684,-2.5684,-2.5684,-2.5684,-2.5684,-2.5684,-2.5684,-2.5684,-2.5684,-2.5684,-2.5684,-2.5684,-2.5684,-2.5684,-2.5684,-2.5684,-2.5684,-2.5684,-2.5684,-2.5684,-2.5684,-2.5684,-2.5684,-2.5684,-2.5684,-2.5684,-2.5684,-2.5684,-2.5684,-2.5684,-2.5684,-2.5684,-2.5684,-2.5684,-2.5684,-2.5684,-2.5684,-2.5684,-2.5684,-2.5684,-2.5684,-2.5684,-2.5684,-2.5684,-2.5684,-2.5625,-2.5185,-2.4814,-2.4434,-2.3984,-2.3525,-2.3188,-2.3101,-2.3101,-2.3101,-2.3135,-2.3135,-2.3091,-2.3144,-2.3188,-2.3101,-2.3309,-2.3266,-2.3604,-2.4198,-2.5295,-2.7051,-2.7092,-2.7336,-2.7926,-2.8351,-2.8431,-2.8391,-2.8219,-2.8299,-2.8379,-2.851,-2.851,-2.851,-2.851,-2.851,-2.851,-2.851,-2.851,-2.851,-2.851,-2.8471,-2.851,-2.851,-2.8259,-2.8179,-2.8139,-2.8139,-2.8139,-2.8179,-2.8391,-2.8431,-2.851,-2.851,-2.851,-2.851,-2.851,-2.8366,-2.811,-2.7966,-2.7765,-2.7524,-2.7294,-2.7078,-2.6887,-2.6526,-2.6129,-2.5973,-2.5877,-2.5684,-2.5684,-2.5684,-2.5684,-2.5684,-2.5684,-2.5684,-2.5684,-2.5684,-2.5684,-2.5684,-2.5684,-2.5684,-2.5684,-2.5684,-2.5684,-2.5684,-2.5684,-2.5684,-2.5684,-2.5684,-2.5684,-2.5684,-2.5684,-2.5684,-2.5684,-2.5684,-2.5684,-2.5684,-2.5684,-2.5684,-2.5684,-2.5684,-2.5684,-2.5684,-2.5684,-2.5684,-2.5684,-2.5684,-2.5684,-2.5684,-2.5684,-2.5684,-2.5684,-2.5684,-2.5684,-2.5635,-2.5303,-2.5067,-2.4668,-2.4189,-2.373,-2.3486,-2.3257,-2.3101,-2.3101,-2.3101,-2.3091,-2.3101,-2.3101,-2.3101,-2.3101,-2.3101,-2.3135,-2.3178,-2.3517,-2.4241,-2.5495,-2.5673,-2.6163,-2.6835,-2.6958,-2.6958,-2.708,-2.7632,-2.7794,-2.8007,-2.8431,-2.851,-2.851,-2.851,-2.851,-2.851,-2.851,-2.851,-2.8471,-2.8391,-2.8311,-2.8391,-2.851,-2.8139,-2.7684,-2.7684,-2.7684,-2.7632,-2.7632,-2.8047,-2.8219,-2.851,-2.851,-2.851,-2.851,-2.851,-2.851,-2.839,-2.8258,-2.815,-2.8041,-2.7873,-2.7594,-2.7354,-2.7006,-2.6707,-2.655,-2.6345,-2.5684,-2.5684,-2.5684,-2.5684,-2.5684,-2.5684,-2.5684,-2.5684,-2.5684,-2.5684,-2.5684,-2.5684,-2.5684,-2.5684,-2.5684,-2.5684,-2.5684,-2.5684,-2.5684,-2.5684,-2.5684,-2.5684,-2.5684,-2.5684,-2.5684,-2.5684,-2.5684,-2.5684,-2.5684,-2.5684,-2.5684,-2.5684,-2.5684,-2.5684,-2.5684,-2.5684,-2.5684,-2.5684,-2.5684,-2.5684,-2.5684,-2.5684,-2.5684,-2.5684,-2.5684,-2.5684,-2.5635,-2.5469,-2.5264,-2.4959,-2.4541,-2.417,-2.3935,-2.373,-2.3539,-2.3539,-2.3549,-2.3452,-2.3325,-2.3208,-2.312,-2.3101,-2.3101,-2.3101,-2.3091,-2.3135,-2.3517,-2.4616,-2.4701,-2.5115,-2.5568,-2.5902,-2.6027,-2.637,-2.6794,-2.701,-2.7296,-2.7846,-2.8351,-2.851,-2.851,-2.851,-2.851,-2.851,-2.8471,-2.8471,-2.8339,-2.8139,-2.8007,-2.7966,-2.751,-2.6876,-2.6835,-2.6876,-2.6876,-2.701,-2.7499,-2.7886,-2.8167,-2.8379,-2.8339,-2.8431,-2.851,-2.851,-2.8391,-2.8462,-2.833,-2.8378,-2.8402,-2.8138,-2.7834,-2.757,-2.7306,-2.7126,-2.6849,-2.5684,-2.5684,-2.5684,-2.5684,-2.5684,-2.5684,-2.5684,-2.5684,-2.5684,-2.5684,-2.5684,-2.5684,-2.5684,-2.5684,-2.5684,-2.5684,-2.5684,-2.5684,-2.5684,-2.5684,-2.5684,-2.5684,-2.5684,-2.5684,-2.5684,-2.5684,-2.5684,-2.5684,-2.5684,-2.5684,-2.5684,-2.5684,-2.5684,-2.5684,-2.5684,-2.5684,-2.5684,-2.5684,-2.5684,-2.5684,-2.5684,-2.5684,-2.5684,-2.5684,-2.5684,-2.5684,-2.5684,-2.5596,-2.5488,-2.5166,-2.4959,-2.4678,-2.4394,-2.4209,-2.4111,-2.4102,-2.4111,-2.3984,-2.3779,-2.3437,-2.313,-2.3101,-2.3101,-2.3101,-2.3101,-2.3101,-2.356,-2.4198,-2.4198,-2.4659,-2.5284,-2.5735,-2.5358,-2.5495,-2.583,-2.634,-2.6805,-2.751,-2.8018,-2.8351,-2.8299,-2.7926,-2.7834,-2.7713,-2.8007,-2.8007,-2.7418,-2.7174,-2.6753,-2.6618,-2.6329,-2.5955,-2.5902,-2.5944,-2.5997,-2.6287,-2.6629,-2.7092,-2.7458,-2.7834,-2.8127,-2.8207,-2.7886,-2.8047,-2.7926,-2.8219,-2.8471,-2.8435,-2.8383,-2.8459,-2.8342,-2.799,-2.7666,-2.739,-2.7174,-2.5684,-2.5684,-2.5684,-2.5684,-2.5684,-2.5684,-2.5684,-2.5684,-2.5684,-2.5684,-2.5684,-2.5684,-2.5684,-2.5684,-2.5684,-2.5684,-2.5684,-2.5684,-2.5684,-2.5684,-2.5684,-2.5684,-2.5684,-2.5684,-2.5684,-2.5684,-2.5684,-2.5684,-2.5684,-2.5684,-2.5684,-2.5684,-2.5684,-2.5684,-2.5684,-2.5684,-2.5684,-2.5684,-2.5684,-2.5684,-2.5684,-2.5684,-2.5684,-2.5684,-2.5684,-2.5684,-2.5684,-2.5684,-2.5615,-2.5459,-2.5225,-2.501,-2.4824,-2.4629,-2.4521,-2.4502,-2.4512,-2.4385,-2.417,-2.3779,-2.3437,-2.312,-2.3101,-2.313,-2.3198,-2.312,-2.3232,-2.3517,-2.3741,-2.4191,-2.4057,-2.4122,-2.4059,-2.436,-2.4914,-2.5645,-2.6181,-2.6926,-2.7298,-2.7513,-2.7083,-2.6618,-2.6659,-2.67,-2.7121,-2.7429,-2.6794,-2.6205,-2.5735,-2.5442,-2.5242,-2.5031,-2.4978,-2.4988,-2.5031,-2.5379,-2.5757,-2.6257,-2.6712,-2.704,-2.7284,-2.6823,-2.6618,-2.6958,-2.7418,-2.7672,-2.7926,-2.8259,-2.8379,-2.8471,-2.8498,-2.839,-2.8026,-2.7678,-2.7534,-2.5684,-2.5684,-2.5684,-2.5684,-2.5684,-2.5684,-2.5684,-2.5684,-2.5684,-2.5684,-2.5684,-2.5684,-2.5684,-2.5684,-2.5684,-2.5684,-2.5684,-2.5684,-2.5684,-2.5684,-2.5684,-2.5684,-2.5684,-2.5684,-2.5684,-2.5684,-2.5684,-2.5684,-2.5684,-2.5684,-2.5684,-2.5684,-2.5684,-2.5684,-2.5684,-2.5684,-2.5684,-2.5684,-2.5684,-2.5684,-2.5684,-2.5684,-2.5684,-2.5684,-2.5684,-2.5684,-2.5684,-2.5684,-2.5684,-2.5567,-2.5478,-2.5312,-2.5166,-2.5019,-2.4844,-2.4758,-2.4795,-2.4756,-2.4541,-2.4209,-2.3857,-2.3637,-2.3603,-2.3539,-2.3471,-2.3461,-2.3687,-2.3648,-2.3609,-2.3461,-2.3452,-2.3791,-2.3821,-2.4202,-2.4977,-2.5621,-2.5676,-2.6131,-2.6367,-2.6559,-2.6234,-2.6218,-2.6005,-2.6089,-2.5821,-2.6113,-2.5799,-2.5158,-2.4606,-2.4392,-2.4392,-2.4188,-2.4059,-2.4069,-2.4122,-2.4669,-2.5168,-2.5411,-2.583,-2.6038,-2.6069,-2.5694,-2.5735,-2.6287,-2.6712,-2.7051,-2.751,-2.7966,-2.8259,-2.851,-2.8498,-2.8474,-2.8414,-2.8062,-2.8014,-2.5684,-2.5684,-2.5684,-2.5684,-2.5684,-2.5684,-2.5684,-2.5684,-2.5684,-2.5684,-2.5684,-2.5684,-2.5684,-2.5684,-2.5684,-2.5684,-2.5684,-2.5684,-2.5684,-2.5684,-2.5684,-2.5684,-2.5684,-2.5684,-2.5684,-2.5684,-2.5684,-2.5684,-2.5684,-2.5684,-2.5684,-2.5684,-2.5684,-2.5684,-2.5684,-2.5684,-2.5684,-2.5684,-2.5684,-2.5684,-2.5684,-2.5684,-2.5684,-2.5684,-2.5684,-2.5684,-2.5684,-2.5684,-2.5684,-2.5645,-2.5625,-2.5547,-2.5576,-2.5566,-2.5469,-2.5499,-2.5528,-2.542,-2.5088,-2.4658,-2.4424,-2.4238,-2.4092,-2.415,-2.4287,-2.4307,-2.4219,-2.4072,-2.4189,-2.4202,-2.427,-2.4261,-2.4055,-2.4098,-2.4832,-2.5117,-2.5121,-2.52,-2.543,-2.5467,-2.5999,-2.6303,-2.5894,-2.5498,-2.4815,-2.4636,-2.4605,-2.4198,-2.3724,-2.3637,-2.3724,-2.3681,-2.356,-2.3517,-2.3691,-2.4112,-2.4498,-2.4744,-2.4819,-2.4988,-2.5147,-2.5115,-2.5284,-2.5663,-2.5955,-2.6257,-2.701,-2.7765,-2.7846,-2.7926,-2.8431,-2.8498,-2.8498,-2.8462,-2.8342,-2.5684,-2.5684,-2.5684,-2.5684,-2.5684,-2.5684,-2.5684,-2.5684,-2.5684,-2.5684,-2.5684,-2.5684,-2.5684,-2.5684,-2.5684,-2.5684,-2.5684,-2.5684,-2.5684,-2.5684,-2.5684,-2.5684,-2.5684,-2.5684,-2.5684,-2.5684,-2.5684,-2.5684,-2.5684,-2.5684,-2.5684,-2.5684,-2.5684,-2.5684,-2.5684,-2.5684,-2.5684,-2.5684,-2.5684,-2.5684,-2.5684,-2.5684,-2.5684,-2.5684,-2.5684,-2.5684,-2.5684,-2.5684,-2.5684,-2.5684,-2.5684,-2.5684,-2.5684,-2.5684,-2.5684,-2.5684,-2.5684,-2.5645,-2.5527,-2.5245,-2.499,-2.4697,-2.4502,-2.4512,-2.4434,-2.4424,-2.4414,-2.4417,-2.4448,-2.4373,-2.4154,-2.4117,-2.395,-2.382,-2.4171,-2.4171,-2.4198,-2.43,-2.4408,-2.4343,-2.4619,-2.4922,-2.4766,-2.4757,-2.4279,-2.3903,-2.3917,-2.3717,-2.3266,-2.3256,-2.3299,-2.3309,-2.3222,-2.3178,-2.3309,-2.3647,-2.3777,-2.3897,-2.381,-2.3681,-2.394,-2.4317,-2.4231,-2.4317,-2.4872,-2.5463,-2.6133,-2.6753,-2.7051,-2.7348,-2.7886,-2.8391,-2.851,-2.8498,-2.8474,-2.5684,-2.5684,-2.5684,-2.5684,-2.5684,-2.5684,-2.5684,-2.5684,-2.5684,-2.5684,-2.5684,-2.5684,-2.5684,-2.5684,-2.5684,-2.5684,-2.5684,-2.5684,-2.5684,-2.5684,-2.5684,-2.5684,-2.5684,-2.5684,-2.5684,-2.5684,-2.5684,-2.5684,-2.5684,-2.5684,-2.5684,-2.5684,-2.5684,-2.5684,-2.5684,-2.5684,-2.5684,-2.5684,-2.5684,-2.5684,-2.5684,-2.5684,-2.5684,-2.5684,-2.5684,-2.5684,-2.5684,-2.5684,-2.5684,-2.5684,-2.5684,-2.5684,-2.5684,-2.5684,-2.5684,-2.5684,-2.5684,-2.5684,-2.5645,-2.5635,-2.5304,-2.4982,-2.4883,-2.4779,-2.4732,-2.4772,-2.4668,-2.4648,-2.4552,-2.4458,-2.4306,-2.424,-2.4136,-2.4032,-2.4042,-2.4098,-2.3975,-2.4136,-2.4222,-2.4042,-2.3937,-2.3975,-2.3935,-2.3798,-2.3751,-2.3512,-2.3294,-2.3073,-2.292,-2.2925,-2.2916,-2.2916,-2.2925,-2.2882,-2.2925,-2.3047,-2.3135,-2.3091,-2.3057,-2.3047,-2.3178,-2.3647,-2.3309,-2.3222,-2.4155,-2.4914,-2.52,-2.5621,-2.634,-2.6969,-2.7551,-2.8007,-2.8391,-2.851,-2.851,-2.5684,-2.5684,-2.5684,-2.5684,-2.5684,-2.5684,-2.5684,-2.5684,-2.5684,-2.5684,-2.5684,-2.5684,-2.5684,-2.5684,-2.5684,-2.5684,-2.5684,-2.5684,-2.5684,-2.5684,-2.5684,-2.5684,-2.5684,-2.5684,-2.5684,-2.5684,-2.5684,-2.5684,-2.5684,-2.5684,-2.5684,-2.5684,-2.5684,-2.5684,-2.5684,-2.5684,-2.5684,-2.5684,-2.5684,-2.5684,-2.5684,-2.5684,-2.5684,-2.5684,-2.5684,-2.5684,-2.5684,-2.5684,-2.5684,-2.5684,-2.5684,-2.5684,-2.5684,-2.5684,-2.5684,-2.5684,-2.5684,-2.5635,-2.5635,-2.5635,-2.5518,-2.5295,-2.5431,-2.5431,-2.5324,-2.5092,-2.4996,-2.487,-2.4802,-2.48,-2.476,-2.4683,-2.4596,-2.4566,-2.4566,-2.4487,-2.43,-2.4349,-2.4487,-2.4433,-2.4314,-2.4202,-2.4013,-2.3796,-2.3654,-2.3531,-2.3304,-2.2872,-2.2725,-2.2593,-2.2583,-2.2564,-2.2574,-2.2618,-2.2662,-2.275,-2.2794,-2.2838,-2.2916,-2.2916,-2.3003,-2.3057,-2.3057,-2.3266,-2.3907,-2.437,-2.4488,-2.5073,-2.5955,-2.6547,-2.7133,-2.7846,-2.8299,-2.8471,-2.851,-2.5684,-2.5684,-2.5684,-2.5684,-2.5684,-2.5684,-2.5684,-2.5684,-2.5684,-2.5684,-2.5684,-2.5684,-2.5684,-2.5684,-2.5684,-2.5684,-2.5684,-2.5684,-2.5684,-2.5684,-2.5684,-2.5684,-2.5684,-2.5684,-2.5684,-2.5684,-2.5684,-2.5684,-2.5684,-2.5684,-2.5684,-2.5684,-2.5684,-2.5684,-2.5684,-2.5684,-2.5684,-2.5684,-2.5684,-2.5684,-2.5684,-2.5684,-2.5684,-2.5684,-2.5684,-2.5684,-2.5684,-2.5684,-2.5684,-2.5684,-2.5684,-2.5693,-2.5684,-2.5684,-2.5684,-2.5684,-2.5538,-2.5391,-2.5391,-2.5245,-2.5186,-2.5186,-2.5186,-2.5235,-2.5226,-2.5235,-2.5137,-2.4941,-2.4794,-2.4735,-2.4686,-2.4587,-2.4538,-2.4489,-2.4489,-2.4399,-2.4251,-2.4301,-2.4449,-2.4402,-2.4296,-2.4298,-2.4103,-2.3954,-2.3832,-2.3691,-2.3411,-2.2899,-2.2527,-2.2447,-2.2293,-2.2274,-2.2309,-2.2353,-2.2441,-2.253,-2.253,-2.2574,-2.2662,-2.275,-2.2838,-2.2882,-2.2969,-2.3178,-2.3517,-2.3604,-2.3604,-2.4402,-2.5463,-2.608,-2.67,-2.7499,-2.8179,-2.8391,-2.851,-2.5684,-2.5684,-2.5684,-2.5684,-2.5684,-2.5684,-2.5684,-2.5684,-2.5684,-2.5684,-2.5684,-2.5684,-2.5684,-2.5684,-2.5684,-2.5684,-2.5684,-2.5684,-2.5684,-2.5684,-2.5684,-2.5684,-2.5684,-2.5684,-2.5684,-2.5684,-2.5684,-2.5684,-2.5684,-2.5684,-2.5684,-2.5684,-2.5684,-2.5684,-2.5684,-2.5684,-2.5684,-2.5684,-2.5684,-2.5684,-2.5684,-2.5684,-2.5684,-2.5684,-2.5684,-2.5635,-2.5538,-2.5538,-2.5479,-2.543,-2.5391,-2.5382,-2.5382,-2.5382,-2.5382,-2.5333,-2.5235,-2.5137,-2.5137,-2.5039,-2.4941,-2.4892,-2.4892,-2.4883,-2.4932,-2.4892,-2.4745,-2.4597,-2.4597,-2.4548,-2.4449,-2.4399,-2.4291,-2.4192,-2.4202,-2.4211,-2.4211,-2.4211,-2.4202,-2.4251,-2.4273,-2.4313,-2.4251,-2.4103,-2.3953,-2.3869,-2.359,-2.3137,-2.2732,-2.2464,-2.2186,-2.2036,-2.2061,-2.2087,-2.2176,-2.2264,-2.2353,-2.2397,-2.2485,-2.2574,-2.2618,-2.2662,-2.2706,-2.2794,-2.2925,-2.3047,-2.3178,-2.3993,-2.4925,-2.5579,-2.6276,-2.704,-2.7834,-2.8431,-2.851,-2.5635,-2.5684,-2.5684,-2.5684,-2.5684,-2.5684,-2.5684,-2.5684,-2.5684,-2.5684,-2.5684,-2.5684,-2.5684,-2.5684,-2.5684,-2.5684,-2.5684,-2.5684,-2.5684,-2.5684,-2.5684,-2.5684,-2.5684,-2.5684,-2.5684,-2.5684,-2.5684,-2.5684,-2.5684,-2.5684,-2.5684,-2.5684,-2.5684,-2.5684,-2.5684,-2.5684,-2.5684,-2.5684,-2.5684,-2.5684,-2.5684,-2.5684,-2.5684,-2.5645,-2.5596,-2.5489,-2.5333,-2.5235,-2.5128,-2.4981,-2.4932,-2.4932,-2.4981,-2.499,-2.499,-2.4932,-2.4932,-2.4883,-2.4833,-2.4784,-2.4784,-2.4794,-2.4843,-2.4686,-2.4637,-2.4637,-2.4587,-2.4449,-2.4399,-2.4399,-2.4301,-2.4301,-2.4251,-2.4202,-2.4202,-2.4211,-2.4211,-2.4211,-2.4211,-2.4202,-2.4251,-2.4301,-2.4282,-2.4125,-2.4107,-2.4027,-2.3898,-2.3455,-2.3024,-2.2658,-2.2217,-2.1877,-2.1883,-2.1909,-2.1998,-2.2052,-2.2141,-2.223,-2.2264,-2.2353,-2.2407,-2.2397,-2.2397,-2.2574,-2.275,-2.2803,-2.3057,-2.3907,-2.4627,-2.52,-2.5902,-2.6618,-2.7284,-2.7834,-2.8099,-2.4971,-2.5693,-2.5684,-2.5684,-2.5684,-2.5684,-2.5684,-2.5684,-2.5684,-2.5684,-2.5684,-2.5684,-2.5684,-2.5684,-2.5684,-2.5684,-2.5684,-2.5684,-2.5684,-2.5684,-2.5684,-2.5684,-2.5684,-2.5684,-2.5684,-2.5684,-2.5684,-2.5684,-2.5684,-2.5684,-2.5684,-2.5684,-2.5684,-2.5693,-2.5635,-2.5635,-2.5635,-2.5586,-2.5586,-2.5586,-2.5586,-2.5489,-2.5391,-2.5342,-2.5235,-2.5137,-2.499,-2.4981,-2.4981,-2.4883,-2.4883,-2.4892,-2.4892,-2.4892,-2.4892,-2.4892,-2.4686,-2.4637,-2.4587,-2.4498,-2.4449,-2.4399,-2.4399,-2.435,-2.435,-2.444,-2.444,-2.4301,-2.4211,-2.4211,-2.4211,-2.4211,-2.4211,-2.4211,-2.4211,-2.4211,-2.4202,-2.4183,-2.4183,-2.4174,-2.4183,-2.4174,-2.4165,-2.4202,-2.4211,-2.4183,-2.4156,-2.384,-2.3334,-2.2933,-2.2309,-2.197,-2.1777,-2.1776,-2.182,-2.1874,-2.1963,-2.1919,-2.1954,-2.2043,-2.2141,-2.2176,-2.2264,-2.2441,-2.2627,-2.2671,-2.3013,-2.3864,-2.4531,-2.4946,-2.5326,-2.5986,-2.611,-2.6535,-2.6958,-2.4452,-2.5011,-2.5538,-2.5684,-2.5684,-2.5684,-2.5684,-2.5684,-2.5684,-2.5684,-2.5684,-2.5684,-2.5684,-2.5684,-2.5684,-2.5684,-2.5684,-2.5684,-2.5684,-2.5684,-2.5684,-2.5684,-2.5684,-2.5684,-2.5684,-2.5684,-2.5684,-2.5684,-2.5684,-2.5684,-2.5684,-2.5684,-2.5693,-2.5645,-2.5586,-2.5538,-2.5489,-2.5342,-2.5391,-2.5391,-2.5391,-2.5284,-2.5186,-2.5079,-2.4981,-2.4833,-2.4735,-2.4735,-2.4637,-2.4637,-2.4548,-2.4548,-2.4548,-2.4538,-2.4538,-2.4538,-2.444,-2.4341,-2.4341,-2.4251,-2.4211,-2.4211,-2.4211,-2.4251,-2.4251,-2.435,-2.4341,-2.4202,-2.4211,-2.4211,-2.4211,-2.4211,-2.4211,-2.4211,-2.4211,-2.4211,-2.4101,-2.3941,-2.3886,-2.3813,-2.3813,-2.3813,-2.3877,-2.4137,-2.4156,-2.4211,-2.4202,-2.3868,-2.3474,-2.3123,-2.2519,-2.2044,-2.1842,-2.1714,-2.1731,-2.1731,-2.1776,-2.1731,-2.1687,-2.1776,-2.1919,-2.1998,-2.2087,-2.222,-2.2353,-2.253,-2.3003,-2.3681,-2.4241,-2.4659,-2.4946,-2.5284,-2.5274,-2.5231,-2.54,-2.3642,-2.384,-2.4815,-2.5284,-2.5323,-2.543,-2.543,-2.5479,-2.5635,-2.5684,-2.5684,-2.5684,-2.5684,-2.5684,-2.5684,-2.5684,-2.5684,-2.5684,-2.5684,-2.5684,-2.5684,-2.5684,-2.5684,-2.5684,-2.5684,-2.5684,-2.5684,-2.5684,-2.5684,-2.5635,-2.5586,-2.5693,-2.5645,-2.5538,-2.5391,-2.5284,-2.5235,-2.5088,-2.499,-2.4932,-2.4981,-2.5079,-2.4981,-2.4883,-2.4784,-2.4686,-2.4538,-2.444,-2.4341,-2.4291,-2.4301,-2.4301,-2.4301,-2.4301,-2.4301,-2.4251,-2.4301,-2.4251,-2.4202,-2.4202,-2.4211,-2.4211,-2.4211,-2.4211,-2.4211,-2.4202,-2.4202,-2.4202,-2.4202,-2.4211,-2.4211,-2.4211,-2.4211,-2.4211,-2.4211,-2.4211,-2.3996,-2.3813,-2.3627,-2.3526,-2.3526,-2.3535,-2.3721,-2.3941,-2.4137,-2.4192,-2.4055,-2.3657,-2.3316,-2.3087,-2.2693,-2.2236,-2.1925,-2.1815,-2.1714,-2.1687,-2.1687,-2.1687,-2.1687,-2.1687,-2.1731,-2.182,-2.1865,-2.1865,-2.2043,-2.2353,-2.274,-2.3256,-2.381,-2.4155,-2.4059,-2.4102,-2.4221,-2.4092,-2.3877,-2.1481,-2.1582,-2.2702,-2.3144,-2.3294,-2.4048,-2.4393,-2.4559,-2.5274,-2.5684,-2.5586,-2.5684,-2.5684,-2.5684,-2.5684,-2.5684,-2.5684,-2.5684,-2.5684,-2.5684,-2.5684,-2.5684,-2.5684,-2.5684,-2.5684,-2.5684,-2.5684,-2.5684,-2.5684,-2.5538,-2.5489,-2.5693,-2.544,-2.5342,-2.5342,-2.5235,-2.5079,-2.4883,-2.4784,-2.4784,-2.4637,-2.4637,-2.4627,-2.4529,-2.439,-2.435,-2.4251,-2.4251,-2.4242,-2.4202,-2.4211,-2.4211,-2.4211,-2.4211,-2.4211,-2.4211,-2.4211,-2.4211,-2.4211,-2.4211,-2.4211,-2.4211,-2.4211,-2.4211,-2.4211,-2.4211,-2.4202,-2.4202,-2.4211,-2.4211,-2.4211,-2.4211,-2.4211,-2.4211,-2.4211,-2.4211,-2.4128,-2.3813,-2.3544,-2.3508,-2.3508,-2.3517,-2.3553,-2.3849,-2.4174,-2.4211,-2.4211,-2.3849,-2.3666,-2.3251,-2.2821,-2.2419,-2.2016,-2.1833,-2.1687,-2.1687,-2.1687,-2.1687,-2.1687,-2.1687,-2.1687,-2.1687,-2.1731,-2.1731,-2.1954,-2.2299,-2.2652,-2.2916,-2.296,-2.3169,-2.2872,-2.2828,-2.3038,-2.3115,-2.3028]}]]